<?xml version="1.0" encoding="UTF-8" standalone="no" ?>
<gpx xmlns="http://www.topografix.com/GPX/1/1" xmlns:xsi="http://www.w3.org/2001/XMLSchema-instance" xsi:schemaLocation="http://www.topografix.com/GPX/1/1 http://www.topografix.com/GPX/1/1/gpx.xsd" version="1.1" creator="VisuGPX - https://www.visugpx.com">
  <metadata>
    <name>RAID de NARBONNE Novembre 2015</name>
    <desc><![CDATA[Team CATALA
]]></desc>
  </metadata>
  <trk>
    <name><![CDATA[Sequence 1]]></name>
    <trkseg>
      <trkpt lat="43.1473" lon="2.97384">
        <ele>27</ele>
        <time>2015-11-22T08:28:07Z</time>
      </trkpt>
      <trkpt lat="43.1473" lon="2.97385">
        <ele>26</ele>
        <time>2015-11-22T08:28:13Z</time>
      </trkpt>
      <trkpt lat="43.14732" lon="2.97386">
        <ele>25</ele>
        <time>2015-11-22T08:28:19Z</time>
      </trkpt>
      <trkpt lat="43.14728" lon="2.97385">
        <ele>22</ele>
        <time>2015-11-22T08:28:25Z</time>
      </trkpt>
      <trkpt lat="43.1472" lon="2.97385">
        <ele>24</ele>
        <time>2015-11-22T08:28:31Z</time>
      </trkpt>
      <trkpt lat="43.14721" lon="2.97385">
        <ele>25</ele>
        <time>2015-11-22T08:28:37Z</time>
      </trkpt>
      <trkpt lat="43.14718" lon="2.97391">
        <ele>24</ele>
        <time>2015-11-22T08:28:44Z</time>
      </trkpt>
      <trkpt lat="43.14716" lon="2.97395">
        <ele>23</ele>
        <time>2015-11-22T08:28:49Z</time>
      </trkpt>
      <trkpt lat="43.14713" lon="2.97409">
        <ele>24</ele>
        <time>2015-11-22T08:28:55Z</time>
      </trkpt>
      <trkpt lat="43.14711" lon="2.9742">
        <ele>23</ele>
        <time>2015-11-22T08:29:01Z</time>
      </trkpt>
      <trkpt lat="43.1471" lon="2.97437">
        <ele>25</ele>
        <time>2015-11-22T08:29:07Z</time>
      </trkpt>
      <trkpt lat="43.14701" lon="2.97454">
        <ele>28</ele>
        <time>2015-11-22T08:29:13Z</time>
      </trkpt>
      <trkpt lat="43.14705" lon="2.9748">
        <ele>29</ele>
        <time>2015-11-22T08:29:20Z</time>
      </trkpt>
      <trkpt lat="43.14711" lon="2.97501">
        <ele>26</ele>
        <time>2015-11-22T08:29:26Z</time>
      </trkpt>
      <trkpt lat="43.1472" lon="2.97528">
        <ele>24</ele>
        <time>2015-11-22T08:29:33Z</time>
      </trkpt>
      <trkpt lat="43.14726" lon="2.97542">
        <ele>22</ele>
        <time>2015-11-22T08:29:37Z</time>
      </trkpt>
      <trkpt lat="43.14734" lon="2.97565">
        <ele>20</ele>
        <time>2015-11-22T08:29:43Z</time>
      </trkpt>
      <trkpt lat="43.14741" lon="2.97588">
        <ele>18</ele>
        <time>2015-11-22T08:29:49Z</time>
      </trkpt>
      <trkpt lat="43.14748" lon="2.97609">
        <ele>19</ele>
        <time>2015-11-22T08:29:55Z</time>
      </trkpt>
      <trkpt lat="43.14755" lon="2.97629">
        <ele>19</ele>
        <time>2015-11-22T08:30:01Z</time>
      </trkpt>
      <trkpt lat="43.1476" lon="2.97648">
        <ele>18</ele>
        <time>2015-11-22T08:30:07Z</time>
      </trkpt>
      <trkpt lat="43.14759" lon="2.97663">
        <ele>17</ele>
        <time>2015-11-22T08:30:13Z</time>
      </trkpt>
      <trkpt lat="43.14769" lon="2.97672">
        <ele>17</ele>
        <time>2015-11-22T08:30:19Z</time>
      </trkpt>
      <trkpt lat="43.14782" lon="2.97683">
        <ele>17</ele>
        <time>2015-11-22T08:30:25Z</time>
      </trkpt>
      <trkpt lat="43.14795" lon="2.97692">
        <ele>18</ele>
        <time>2015-11-22T08:30:31Z</time>
      </trkpt>
      <trkpt lat="43.14809" lon="2.977">
        <ele>18</ele>
        <time>2015-11-22T08:30:37Z</time>
      </trkpt>
      <trkpt lat="43.14823" lon="2.97708">
        <ele>19</ele>
        <time>2015-11-22T08:30:43Z</time>
      </trkpt>
      <trkpt lat="43.14838" lon="2.97715">
        <ele>20</ele>
        <time>2015-11-22T08:30:49Z</time>
      </trkpt>
      <trkpt lat="43.14853" lon="2.97722">
        <ele>20</ele>
        <time>2015-11-22T08:30:55Z</time>
      </trkpt>
      <trkpt lat="43.14866" lon="2.97736">
        <ele>16</ele>
        <time>2015-11-22T08:31:01Z</time>
      </trkpt>
      <trkpt lat="43.14866" lon="2.97758">
        <ele>13</ele>
        <time>2015-11-22T08:31:07Z</time>
      </trkpt>
      <trkpt lat="43.14857" lon="2.9778">
        <ele>12</ele>
        <time>2015-11-22T08:31:14Z</time>
      </trkpt>
      <trkpt lat="43.14852" lon="2.97801">
        <ele>13</ele>
        <time>2015-11-22T08:31:19Z</time>
      </trkpt>
      <trkpt lat="43.14843" lon="2.97817">
        <ele>14</ele>
        <time>2015-11-22T08:31:25Z</time>
      </trkpt>
      <trkpt lat="43.14829" lon="2.97829">
        <ele>14</ele>
        <time>2015-11-22T08:31:31Z</time>
      </trkpt>
      <trkpt lat="43.14814" lon="2.97835">
        <ele>16</ele>
        <time>2015-11-22T08:31:37Z</time>
      </trkpt>
      <trkpt lat="43.14797" lon="2.97843">
        <ele>16</ele>
        <time>2015-11-22T08:31:43Z</time>
      </trkpt>
      <trkpt lat="43.14768" lon="2.97852">
        <ele>16</ele>
        <time>2015-11-22T08:31:54Z</time>
      </trkpt>
      <trkpt lat="43.14765" lon="2.97852">
        <ele>16</ele>
        <time>2015-11-22T08:31:55Z</time>
      </trkpt>
      <trkpt lat="43.14749" lon="2.97841">
        <ele>15</ele>
        <time>2015-11-22T08:32:01Z</time>
      </trkpt>
      <trkpt lat="43.14727" lon="2.97851">
        <ele>17</ele>
        <time>2015-11-22T08:32:12Z</time>
      </trkpt>
      <trkpt lat="43.14726" lon="2.97853">
        <ele>18</ele>
        <time>2015-11-22T08:32:13Z</time>
      </trkpt>
      <trkpt lat="43.14716" lon="2.97873">
        <ele>19</ele>
        <time>2015-11-22T08:32:19Z</time>
      </trkpt>
      <trkpt lat="43.14707" lon="2.97895">
        <ele>18</ele>
        <time>2015-11-22T08:32:25Z</time>
      </trkpt>
      <trkpt lat="43.14697" lon="2.97913">
        <ele>17</ele>
        <time>2015-11-22T08:32:31Z</time>
      </trkpt>
      <trkpt lat="43.14682" lon="2.97922">
        <ele>16</ele>
        <time>2015-11-22T08:32:37Z</time>
      </trkpt>
      <trkpt lat="43.14667" lon="2.97935">
        <ele>15</ele>
        <time>2015-11-22T08:32:43Z</time>
      </trkpt>
      <trkpt lat="43.14657" lon="2.97953">
        <ele>15</ele>
        <time>2015-11-22T08:32:49Z</time>
      </trkpt>
      <trkpt lat="43.14645" lon="2.97971">
        <ele>15</ele>
        <time>2015-11-22T08:32:55Z</time>
      </trkpt>
      <trkpt lat="43.14636" lon="2.97991">
        <ele>14</ele>
        <time>2015-11-22T08:33:01Z</time>
      </trkpt>
      <trkpt lat="43.14627" lon="2.98009">
        <ele>14</ele>
        <time>2015-11-22T08:33:07Z</time>
      </trkpt>
      <trkpt lat="43.14621" lon="2.98027">
        <ele>13</ele>
        <time>2015-11-22T08:33:13Z</time>
      </trkpt>
      <trkpt lat="43.14619" lon="2.98043">
        <ele>10</ele>
        <time>2015-11-22T08:33:19Z</time>
      </trkpt>
      <trkpt lat="43.14612" lon="2.98061">
        <ele>9</ele>
        <time>2015-11-22T08:33:25Z</time>
      </trkpt>
      <trkpt lat="43.14601" lon="2.98078">
        <ele>8</ele>
        <time>2015-11-22T08:33:31Z</time>
      </trkpt>
      <trkpt lat="43.14596" lon="2.98094">
        <ele>8</ele>
        <time>2015-11-22T08:33:37Z</time>
      </trkpt>
      <trkpt lat="43.14594" lon="2.981">
        <ele>9</ele>
        <time>2015-11-22T08:33:43Z</time>
      </trkpt>
      <trkpt lat="43.1459" lon="2.98103">
        <ele>10</ele>
        <time>2015-11-22T08:33:54Z</time>
      </trkpt>
      <trkpt lat="43.14554" lon="2.98168">
        <ele>20</ele>
        <time>2015-11-22T08:34:04Z</time>
      </trkpt>
      <trkpt lat="43.14549" lon="2.98177">
        <ele>18</ele>
        <time>2015-11-22T08:34:07Z</time>
      </trkpt>
      <trkpt lat="43.14534" lon="2.98189">
        <ele>18</ele>
        <time>2015-11-22T08:34:13Z</time>
      </trkpt>
      <trkpt lat="43.14514" lon="2.98198">
        <ele>20</ele>
        <time>2015-11-22T08:34:22Z</time>
      </trkpt>
      <trkpt lat="43.14506" lon="2.98201">
        <ele>20</ele>
        <time>2015-11-22T08:34:25Z</time>
      </trkpt>
      <trkpt lat="43.1449" lon="2.98203">
        <ele>16</ele>
        <time>2015-11-22T08:34:31Z</time>
      </trkpt>
      <trkpt lat="43.14474" lon="2.98198">
        <ele>13</ele>
        <time>2015-11-22T08:34:37Z</time>
      </trkpt>
      <trkpt lat="43.14457" lon="2.982">
        <ele>14</ele>
        <time>2015-11-22T08:34:43Z</time>
      </trkpt>
      <trkpt lat="43.14442" lon="2.98196">
        <ele>14</ele>
        <time>2015-11-22T08:34:49Z</time>
      </trkpt>
      <trkpt lat="43.14433" lon="2.98177">
        <ele>9</ele>
        <time>2015-11-22T08:34:55Z</time>
      </trkpt>
      <trkpt lat="43.14427" lon="2.98154">
        <ele>7</ele>
        <time>2015-11-22T08:35:01Z</time>
      </trkpt>
      <trkpt lat="43.14419" lon="2.98134">
        <ele>6</ele>
        <time>2015-11-22T08:35:07Z</time>
      </trkpt>
      <trkpt lat="43.14409" lon="2.98116">
        <ele>5</ele>
        <time>2015-11-22T08:35:13Z</time>
      </trkpt>
      <trkpt lat="43.14395" lon="2.98103">
        <ele>4</ele>
        <time>2015-11-22T08:35:19Z</time>
      </trkpt>
      <trkpt lat="43.14379" lon="2.9809">
        <ele>1</ele>
        <time>2015-11-22T08:35:25Z</time>
      </trkpt>
      <trkpt lat="43.14365" lon="2.98082">
        <ele>8.4</ele>
        <time>2015-11-22T08:35:31Z</time>
      </trkpt>
      <trkpt lat="43.14344" lon="2.98074">
        <ele>9.9</ele>
        <time>2015-11-22T08:35:39Z</time>
      </trkpt>
      <trkpt lat="43.14334" lon="2.98067">
        <ele>10</ele>
        <time>2015-11-22T08:35:43Z</time>
      </trkpt>
      <trkpt lat="43.14321" lon="2.98056">
        <ele>-2</ele>
        <time>2015-11-22T08:35:49Z</time>
      </trkpt>
      <trkpt lat="43.1431" lon="2.98043">
        <ele>-1</ele>
        <time>2015-11-22T08:35:55Z</time>
      </trkpt>
      <trkpt lat="43.143" lon="2.98033">
        <ele>4</ele>
        <time>2015-11-22T08:36:01Z</time>
      </trkpt>
      <trkpt lat="43.14286" lon="2.98025">
        <ele>2</ele>
        <time>2015-11-22T08:36:07Z</time>
      </trkpt>
      <trkpt lat="43.14265" lon="2.98018">
        <ele>5</ele>
        <time>2015-11-22T08:36:16Z</time>
      </trkpt>
      <trkpt lat="43.14257" lon="2.98015">
        <ele>4</ele>
        <time>2015-11-22T08:36:19Z</time>
      </trkpt>
      <trkpt lat="43.14233" lon="2.98009">
        <ele>8</ele>
        <time>2015-11-22T08:36:30Z</time>
      </trkpt>
      <trkpt lat="43.1423" lon="2.9801">
        <ele>10</ele>
        <time>2015-11-22T08:36:32Z</time>
      </trkpt>
      <trkpt lat="43.1422" lon="2.98011">
        <ele>11</ele>
        <time>2015-11-22T08:36:37Z</time>
      </trkpt>
      <trkpt lat="43.14211" lon="2.98016">
        <ele>16</ele>
        <time>2015-11-22T08:36:43Z</time>
      </trkpt>
      <trkpt lat="43.142" lon="2.98021">
        <ele>19</ele>
        <time>2015-11-22T08:36:49Z</time>
      </trkpt>
      <trkpt lat="43.14183" lon="2.98019">
        <ele>19</ele>
        <time>2015-11-22T08:36:56Z</time>
      </trkpt>
      <trkpt lat="43.14174" lon="2.98013">
        <ele>20</ele>
        <time>2015-11-22T08:37:01Z</time>
      </trkpt>
      <trkpt lat="43.14153" lon="2.97987">
        <ele>18</ele>
        <time>2015-11-22T08:37:11Z</time>
      </trkpt>
      <trkpt lat="43.1414" lon="2.97973">
        <ele>17</ele>
        <time>2015-11-22T08:37:17Z</time>
      </trkpt>
      <trkpt lat="43.14136" lon="2.97969">
        <ele>17</ele>
        <time>2015-11-22T08:37:19Z</time>
      </trkpt>
      <trkpt lat="43.14121" lon="2.97956">
        <ele>14</ele>
        <time>2015-11-22T08:37:25Z</time>
      </trkpt>
      <trkpt lat="43.14111" lon="2.97934">
        <ele>13</ele>
        <time>2015-11-22T08:37:32Z</time>
      </trkpt>
      <trkpt lat="43.14107" lon="2.97915">
        <ele>12</ele>
        <time>2015-11-22T08:37:37Z</time>
      </trkpt>
      <trkpt lat="43.14105" lon="2.97895">
        <ele>14</ele>
        <time>2015-11-22T08:37:43Z</time>
      </trkpt>
      <trkpt lat="43.14094" lon="2.97878">
        <ele>14</ele>
        <time>2015-11-22T08:37:49Z</time>
      </trkpt>
      <trkpt lat="43.1408" lon="2.97866">
        <ele>13</ele>
        <time>2015-11-22T08:37:55Z</time>
      </trkpt>
      <trkpt lat="43.14065" lon="2.97855">
        <ele>11</ele>
        <time>2015-11-22T08:38:01Z</time>
      </trkpt>
      <trkpt lat="43.14052" lon="2.97843">
        <ele>12</ele>
        <time>2015-11-22T08:38:07Z</time>
      </trkpt>
      <trkpt lat="43.14037" lon="2.9783">
        <ele>9</ele>
        <time>2015-11-22T08:38:13Z</time>
      </trkpt>
      <trkpt lat="43.14021" lon="2.97817">
        <ele>10</ele>
        <time>2015-11-22T08:38:19Z</time>
      </trkpt>
      <trkpt lat="43.14001" lon="2.97789">
        <ele>11</ele>
        <time>2015-11-22T08:38:30Z</time>
      </trkpt>
      <trkpt lat="43.13993" lon="2.97782">
        <ele>10</ele>
        <time>2015-11-22T08:38:33Z</time>
      </trkpt>
      <trkpt lat="43.13981" lon="2.97773">
        <ele>8</ele>
        <time>2015-11-22T08:38:37Z</time>
      </trkpt>
      <trkpt lat="43.13965" lon="2.97762">
        <ele>6</ele>
        <time>2015-11-22T08:38:43Z</time>
      </trkpt>
      <trkpt lat="43.13941" lon="2.97748">
        <ele>4</ele>
        <time>2015-11-22T08:38:51Z</time>
      </trkpt>
      <trkpt lat="43.13933" lon="2.97741">
        <ele>6</ele>
        <time>2015-11-22T08:38:55Z</time>
      </trkpt>
      <trkpt lat="43.13918" lon="2.9773">
        <ele>5</ele>
        <time>2015-11-22T08:39:01Z</time>
      </trkpt>
      <trkpt lat="43.13902" lon="2.97718">
        <ele>2</ele>
        <time>2015-11-22T08:39:07Z</time>
      </trkpt>
      <trkpt lat="43.13878" lon="2.97693">
        <ele>5</ele>
        <time>2015-11-22T08:39:18Z</time>
      </trkpt>
      <trkpt lat="43.13875" lon="2.97691">
        <ele>5</ele>
        <time>2015-11-22T08:39:19Z</time>
      </trkpt>
      <trkpt lat="43.13857" lon="2.97675">
        <ele>6</ele>
        <time>2015-11-22T08:39:27Z</time>
      </trkpt>
      <trkpt lat="43.13845" lon="2.97661">
        <ele>11</ele>
        <time>2015-11-22T08:39:34Z</time>
      </trkpt>
      <trkpt lat="43.13839" lon="2.97653">
        <ele>11</ele>
        <time>2015-11-22T08:39:37Z</time>
      </trkpt>
      <trkpt lat="43.13826" lon="2.97634">
        <ele>9</ele>
        <time>2015-11-22T08:39:43Z</time>
      </trkpt>
      <trkpt lat="43.13813" lon="2.97615">
        <ele>6</ele>
        <time>2015-11-22T08:39:49Z</time>
      </trkpt>
      <trkpt lat="43.138" lon="2.97597">
        <ele>4</ele>
        <time>2015-11-22T08:39:55Z</time>
      </trkpt>
      <trkpt lat="43.13782" lon="2.97584">
        <ele>15.7</ele>
        <time>2015-11-22T08:40:01Z</time>
      </trkpt>
      <trkpt lat="43.13767" lon="2.97572">
        <ele>-2</ele>
        <time>2015-11-22T08:40:06Z</time>
      </trkpt>
      <trkpt lat="43.13747" lon="2.97556">
        <ele>-6</ele>
        <time>2015-11-22T08:40:12Z</time>
      </trkpt>
      <trkpt lat="43.13729" lon="2.9754">
        <ele>-9</ele>
        <time>2015-11-22T08:40:18Z</time>
      </trkpt>
      <trkpt lat="43.13714" lon="2.97525">
        <ele>-10</ele>
        <time>2015-11-22T08:40:24Z</time>
      </trkpt>
      <trkpt lat="43.13697" lon="2.97509">
        <ele>-13</ele>
        <time>2015-11-22T08:40:30Z</time>
      </trkpt>
      <trkpt lat="43.1368" lon="2.97489">
        <ele>-16</ele>
        <time>2015-11-22T08:40:37Z</time>
      </trkpt>
      <trkpt lat="43.13669" lon="2.97474">
        <ele>-17</ele>
        <time>2015-11-22T08:40:42Z</time>
      </trkpt>
      <trkpt lat="43.13656" lon="2.97457">
        <ele>-18</ele>
        <time>2015-11-22T08:40:48Z</time>
      </trkpt>
      <trkpt lat="43.13645" lon="2.97442">
        <ele>-15</ele>
        <time>2015-11-22T08:40:54Z</time>
      </trkpt>
      <trkpt lat="43.13636" lon="2.97427">
        <ele>-14</ele>
        <time>2015-11-22T08:41:00Z</time>
      </trkpt>
      <trkpt lat="43.13621" lon="2.97419">
        <ele>-12</ele>
        <time>2015-11-22T08:41:06Z</time>
      </trkpt>
      <trkpt lat="43.13612" lon="2.97413">
        <ele>-5</ele>
        <time>2015-11-22T08:41:12Z</time>
      </trkpt>
      <trkpt lat="43.13598" lon="2.97403">
        <ele>-5</ele>
        <time>2015-11-22T08:41:18Z</time>
      </trkpt>
      <trkpt lat="43.13586" lon="2.97393">
        <ele>-5</ele>
        <time>2015-11-22T08:41:24Z</time>
      </trkpt>
      <trkpt lat="43.13576" lon="2.97383">
        <ele>17.1</ele>
        <time>2015-11-22T08:41:30Z</time>
      </trkpt>
      <trkpt lat="43.13553" lon="2.97379">
        <ele>2</ele>
        <time>2015-11-22T08:41:40Z</time>
      </trkpt>
      <trkpt lat="43.13541" lon="2.97384">
        <ele>5</ele>
        <time>2015-11-22T08:41:45Z</time>
      </trkpt>
      <trkpt lat="43.13529" lon="2.97395">
        <ele>10</ele>
        <time>2015-11-22T08:41:51Z</time>
      </trkpt>
      <trkpt lat="43.13524" lon="2.97399">
        <ele>10</ele>
        <time>2015-11-22T08:41:53Z</time>
      </trkpt>
      <trkpt lat="43.1351" lon="2.97408">
        <ele>12</ele>
        <time>2015-11-22T08:41:59Z</time>
      </trkpt>
      <trkpt lat="43.13492" lon="2.97418">
        <ele>14</ele>
        <time>2015-11-22T08:42:06Z</time>
      </trkpt>
      <trkpt lat="43.13479" lon="2.97428">
        <ele>14</ele>
        <time>2015-11-22T08:42:11Z</time>
      </trkpt>
      <trkpt lat="43.13464" lon="2.97445">
        <ele>14</ele>
        <time>2015-11-22T08:42:17Z</time>
      </trkpt>
      <trkpt lat="43.13451" lon="2.9746">
        <ele>15</ele>
        <time>2015-11-22T08:42:23Z</time>
      </trkpt>
      <trkpt lat="43.13439" lon="2.97475">
        <ele>16</ele>
        <time>2015-11-22T08:42:29Z</time>
      </trkpt>
      <trkpt lat="43.13425" lon="2.9749">
        <ele>16</ele>
        <time>2015-11-22T08:42:35Z</time>
      </trkpt>
      <trkpt lat="43.13413" lon="2.97502">
        <ele>16</ele>
        <time>2015-11-22T08:42:41Z</time>
      </trkpt>
      <trkpt lat="43.13409" lon="2.97505">
        <ele>17</ele>
        <time>2015-11-22T08:42:47Z</time>
      </trkpt>
      <trkpt lat="43.13409" lon="2.97505">
        <ele>18</ele>
        <time>2015-11-22T08:42:53Z</time>
      </trkpt>
      <trkpt lat="43.13408" lon="2.97506">
        <ele>18</ele>
        <time>2015-11-22T08:42:59Z</time>
      </trkpt>
      <trkpt lat="43.13407" lon="2.97507">
        <ele>17</ele>
        <time>2015-11-22T08:43:05Z</time>
      </trkpt>
      <trkpt lat="43.13407" lon="2.97507">
        <ele>18</ele>
        <time>2015-11-22T08:43:11Z</time>
      </trkpt>
      <trkpt lat="43.13408" lon="2.97508">
        <ele>17</ele>
        <time>2015-11-22T08:43:17Z</time>
      </trkpt>
      <trkpt lat="43.13408" lon="2.97508">
        <ele>16</ele>
        <time>2015-11-22T08:43:23Z</time>
      </trkpt>
      <trkpt lat="43.13408" lon="2.97508">
        <ele>16</ele>
        <time>2015-11-22T08:43:32Z</time>
      </trkpt>
      <trkpt lat="43.13409" lon="2.9751">
        <ele>16</ele>
        <time>2015-11-22T08:43:40Z</time>
      </trkpt>
      <trkpt lat="43.1341" lon="2.97509">
        <ele>16</ele>
        <time>2015-11-22T08:43:44Z</time>
      </trkpt>
      <trkpt lat="43.1341" lon="2.97509">
        <ele>15</ele>
        <time>2015-11-22T08:43:48Z</time>
      </trkpt>
      <trkpt lat="43.13409" lon="2.97509">
        <ele>15</ele>
        <time>2015-11-22T08:43:53Z</time>
      </trkpt>
      <trkpt lat="43.13408" lon="2.97515">
        <ele>13</ele>
        <time>2015-11-22T08:43:59Z</time>
      </trkpt>
      <trkpt lat="43.13398" lon="2.97529">
        <ele>14</ele>
        <time>2015-11-22T08:44:06Z</time>
      </trkpt>
      <trkpt lat="43.13397" lon="2.97545">
        <ele>13</ele>
        <time>2015-11-22T08:44:11Z</time>
      </trkpt>
      <trkpt lat="43.134" lon="2.97568">
        <ele>12</ele>
        <time>2015-11-22T08:44:17Z</time>
      </trkpt>
      <trkpt lat="43.13407" lon="2.97588">
        <ele>12</ele>
        <time>2015-11-22T08:44:23Z</time>
      </trkpt>
      <trkpt lat="43.13417" lon="2.97604">
        <ele>13</ele>
        <time>2015-11-22T08:44:29Z</time>
      </trkpt>
      <trkpt lat="43.1343" lon="2.9762">
        <ele>14</ele>
        <time>2015-11-22T08:44:35Z</time>
      </trkpt>
      <trkpt lat="43.13442" lon="2.97633">
        <ele>14</ele>
        <time>2015-11-22T08:44:41Z</time>
      </trkpt>
      <trkpt lat="43.13452" lon="2.97648">
        <ele>15</ele>
        <time>2015-11-22T08:44:47Z</time>
      </trkpt>
      <trkpt lat="43.13467" lon="2.97662">
        <ele>11</ele>
        <time>2015-11-22T08:44:53Z</time>
      </trkpt>
      <trkpt lat="43.13484" lon="2.97682">
        <ele>9</ele>
        <time>2015-11-22T08:45:00Z</time>
      </trkpt>
      <trkpt lat="43.13494" lon="2.97701">
        <ele>9</ele>
        <time>2015-11-22T08:45:05Z</time>
      </trkpt>
      <trkpt lat="43.13503" lon="2.97721">
        <ele>8</ele>
        <time>2015-11-22T08:45:11Z</time>
      </trkpt>
      <trkpt lat="43.13509" lon="2.97748">
        <ele>6</ele>
        <time>2015-11-22T08:45:17Z</time>
      </trkpt>
      <trkpt lat="43.13512" lon="2.97769">
        <ele>8</ele>
        <time>2015-11-22T08:45:23Z</time>
      </trkpt>
      <trkpt lat="43.13488" lon="2.97785">
        <ele>17</ele>
        <time>2015-11-22T08:45:34Z</time>
      </trkpt>
      <trkpt lat="43.13485" lon="2.97786">
        <ele>18</ele>
        <time>2015-11-22T08:45:35Z</time>
      </trkpt>
      <trkpt lat="43.13468" lon="2.97797">
        <ele>20</ele>
        <time>2015-11-22T08:45:44Z</time>
      </trkpt>
      <trkpt lat="43.13463" lon="2.97799">
        <ele>20</ele>
        <time>2015-11-22T08:45:47Z</time>
      </trkpt>
      <trkpt lat="43.13461" lon="2.97818">
        <ele>19</ele>
        <time>2015-11-22T08:45:53Z</time>
      </trkpt>
      <trkpt lat="43.13461" lon="2.97843">
        <ele>17</ele>
        <time>2015-11-22T08:45:59Z</time>
      </trkpt>
      <trkpt lat="43.13466" lon="2.97867">
        <ele>16</ele>
        <time>2015-11-22T08:46:05Z</time>
      </trkpt>
      <trkpt lat="43.1347" lon="2.97893">
        <ele>17</ele>
        <time>2015-11-22T08:46:11Z</time>
      </trkpt>
      <trkpt lat="43.13463" lon="2.97914">
        <ele>16</ele>
        <time>2015-11-22T08:46:17Z</time>
      </trkpt>
      <trkpt lat="43.13451" lon="2.97923">
        <ele>18</ele>
        <time>2015-11-22T08:46:23Z</time>
      </trkpt>
      <trkpt lat="43.13439" lon="2.97932">
        <ele>17</ele>
        <time>2015-11-22T08:46:29Z</time>
      </trkpt>
      <trkpt lat="43.13422" lon="2.97945">
        <ele>17</ele>
        <time>2015-11-22T08:46:37Z</time>
      </trkpt>
      <trkpt lat="43.13415" lon="2.97954">
        <ele>17</ele>
        <time>2015-11-22T08:46:41Z</time>
      </trkpt>
      <trkpt lat="43.13401" lon="2.97965">
        <ele>17</ele>
        <time>2015-11-22T08:46:47Z</time>
      </trkpt>
      <trkpt lat="43.13373" lon="2.9798">
        <ele>13</ele>
        <time>2015-11-22T08:46:58Z</time>
      </trkpt>
      <trkpt lat="43.13371" lon="2.97982">
        <ele>13</ele>
        <time>2015-11-22T08:46:59Z</time>
      </trkpt>
      <trkpt lat="43.13357" lon="2.97987">
        <ele>12</ele>
        <time>2015-11-22T08:47:05Z</time>
      </trkpt>
      <trkpt lat="43.13345" lon="2.9799">
        <ele>12</ele>
        <time>2015-11-22T08:47:13Z</time>
      </trkpt>
      <trkpt lat="43.13341" lon="2.97992">
        <ele>13</ele>
        <time>2015-11-22T08:47:17Z</time>
      </trkpt>
      <trkpt lat="43.13334" lon="2.97994">
        <ele>12</ele>
        <time>2015-11-22T08:47:23Z</time>
      </trkpt>
      <trkpt lat="43.13328" lon="2.97996">
        <ele>15</ele>
        <time>2015-11-22T08:47:29Z</time>
      </trkpt>
      <trkpt lat="43.1332" lon="2.97998">
        <ele>18</ele>
        <time>2015-11-22T08:47:35Z</time>
      </trkpt>
      <trkpt lat="43.13311" lon="2.98003">
        <ele>19</ele>
        <time>2015-11-22T08:47:41Z</time>
      </trkpt>
      <trkpt lat="43.13297" lon="2.98009">
        <ele>20</ele>
        <time>2015-11-22T08:47:47Z</time>
      </trkpt>
      <trkpt lat="43.1328" lon="2.98034">
        <ele>23</ele>
        <time>2015-11-22T08:47:57Z</time>
      </trkpt>
      <trkpt lat="43.13276" lon="2.98042">
        <ele>24</ele>
        <time>2015-11-22T08:47:59Z</time>
      </trkpt>
      <trkpt lat="43.13263" lon="2.98062">
        <ele>23</ele>
        <time>2015-11-22T08:48:05Z</time>
      </trkpt>
      <trkpt lat="43.1325" lon="2.98082">
        <ele>20</ele>
        <time>2015-11-22T08:48:11Z</time>
      </trkpt>
      <trkpt lat="43.13241" lon="2.98099">
        <ele>20</ele>
        <time>2015-11-22T08:48:17Z</time>
      </trkpt>
      <trkpt lat="43.1324" lon="2.98104">
        <ele>22</ele>
        <time>2015-11-22T08:48:23Z</time>
      </trkpt>
      <trkpt lat="43.13236" lon="2.98127">
        <ele>18</ele>
        <time>2015-11-22T08:48:29Z</time>
      </trkpt>
      <trkpt lat="43.13231" lon="2.98151">
        <ele>18</ele>
        <time>2015-11-22T08:48:35Z</time>
      </trkpt>
      <trkpt lat="43.13228" lon="2.98176">
        <ele>17</ele>
        <time>2015-11-22T08:48:41Z</time>
      </trkpt>
      <trkpt lat="43.13228" lon="2.98201">
        <ele>17</ele>
        <time>2015-11-22T08:48:47Z</time>
      </trkpt>
      <trkpt lat="43.13225" lon="2.98229">
        <ele>18</ele>
        <time>2015-11-22T08:48:54Z</time>
      </trkpt>
      <trkpt lat="43.13225" lon="2.98248">
        <ele>17</ele>
        <time>2015-11-22T08:49:01Z</time>
      </trkpt>
      <trkpt lat="43.1322" lon="2.98249">
        <ele>19</ele>
        <time>2015-11-22T08:49:05Z</time>
      </trkpt>
      <trkpt lat="43.13214" lon="2.98254">
        <ele>18</ele>
        <time>2015-11-22T08:49:11Z</time>
      </trkpt>
      <trkpt lat="43.13209" lon="2.98256">
        <ele>17</ele>
        <time>2015-11-22T08:49:18Z</time>
      </trkpt>
      <trkpt lat="43.13207" lon="2.98258">
        <ele>18</ele>
        <time>2015-11-22T08:49:23Z</time>
      </trkpt>
      <trkpt lat="43.13201" lon="2.9826">
        <ele>19</ele>
        <time>2015-11-22T08:49:29Z</time>
      </trkpt>
      <trkpt lat="43.13198" lon="2.98264">
        <ele>17</ele>
        <time>2015-11-22T08:49:35Z</time>
      </trkpt>
      <trkpt lat="43.13192" lon="2.98268">
        <ele>19</ele>
        <time>2015-11-22T08:49:41Z</time>
      </trkpt>
      <trkpt lat="43.13185" lon="2.98271">
        <ele>19</ele>
        <time>2015-11-22T08:49:47Z</time>
      </trkpt>
      <trkpt lat="43.13185" lon="2.9827">
        <ele>19</ele>
        <time>2015-11-22T08:49:53Z</time>
      </trkpt>
      <trkpt lat="43.13185" lon="2.98271">
        <ele>18</ele>
        <time>2015-11-22T08:49:59Z</time>
      </trkpt>
      <trkpt lat="43.13185" lon="2.98271">
        <ele>18</ele>
        <time>2015-11-22T08:50:05Z</time>
      </trkpt>
      <trkpt lat="43.13185" lon="2.98271">
        <ele>18</ele>
        <time>2015-11-22T08:50:11Z</time>
      </trkpt>
      <trkpt lat="43.13179" lon="2.98276">
        <ele>19</ele>
        <time>2015-11-22T08:50:17Z</time>
      </trkpt>
      <trkpt lat="43.13168" lon="2.98285">
        <ele>20</ele>
        <time>2015-11-22T08:50:23Z</time>
      </trkpt>
      <trkpt lat="43.13157" lon="2.98294">
        <ele>25</ele>
        <time>2015-11-22T08:50:29Z</time>
      </trkpt>
      <trkpt lat="43.13149" lon="2.98304">
        <ele>29</ele>
        <time>2015-11-22T08:50:35Z</time>
      </trkpt>
      <trkpt lat="43.13145" lon="2.98316">
        <ele>32</ele>
        <time>2015-11-22T08:50:41Z</time>
      </trkpt>
      <trkpt lat="43.13142" lon="2.98328">
        <ele>33</ele>
        <time>2015-11-22T08:50:47Z</time>
      </trkpt>
      <trkpt lat="43.13139" lon="2.98339">
        <ele>35</ele>
        <time>2015-11-22T08:50:53Z</time>
      </trkpt>
      <trkpt lat="43.13131" lon="2.98342">
        <ele>37</ele>
        <time>2015-11-22T08:50:59Z</time>
      </trkpt>
      <trkpt lat="43.13123" lon="2.98347">
        <ele>38</ele>
        <time>2015-11-22T08:51:05Z</time>
      </trkpt>
      <trkpt lat="43.13116" lon="2.98344">
        <ele>38</ele>
        <time>2015-11-22T08:51:11Z</time>
      </trkpt>
      <trkpt lat="43.1311" lon="2.98338">
        <ele>37</ele>
        <time>2015-11-22T08:51:17Z</time>
      </trkpt>
      <trkpt lat="43.13101" lon="2.98328">
        <ele>38</ele>
        <time>2015-11-22T08:51:23Z</time>
      </trkpt>
      <trkpt lat="43.13089" lon="2.98316">
        <ele>37</ele>
        <time>2015-11-22T08:51:29Z</time>
      </trkpt>
      <trkpt lat="43.1308" lon="2.98319">
        <ele>35</ele>
        <time>2015-11-22T08:51:35Z</time>
      </trkpt>
      <trkpt lat="43.13068" lon="2.98326">
        <ele>35</ele>
        <time>2015-11-22T08:51:41Z</time>
      </trkpt>
      <trkpt lat="43.13065" lon="2.9835">
        <ele>34</ele>
        <time>2015-11-22T08:51:47Z</time>
      </trkpt>
      <trkpt lat="43.13058" lon="2.98376">
        <ele>32</ele>
        <time>2015-11-22T08:51:53Z</time>
      </trkpt>
      <trkpt lat="43.13044" lon="2.98392">
        <ele>31</ele>
        <time>2015-11-22T08:51:59Z</time>
      </trkpt>
      <trkpt lat="43.13027" lon="2.98399">
        <ele>28</ele>
        <time>2015-11-22T08:52:06Z</time>
      </trkpt>
      <trkpt lat="43.13011" lon="2.98412">
        <ele>27</ele>
        <time>2015-11-22T08:52:11Z</time>
      </trkpt>
      <trkpt lat="43.12996" lon="2.98427">
        <ele>26</ele>
        <time>2015-11-22T08:52:17Z</time>
      </trkpt>
      <trkpt lat="43.12982" lon="2.98446">
        <ele>25</ele>
        <time>2015-11-22T08:52:23Z</time>
      </trkpt>
      <trkpt lat="43.12966" lon="2.98449">
        <ele>26</ele>
        <time>2015-11-22T08:52:29Z</time>
      </trkpt>
      <trkpt lat="43.12951" lon="2.98459">
        <ele>26</ele>
        <time>2015-11-22T08:52:35Z</time>
      </trkpt>
      <trkpt lat="43.12937" lon="2.98468">
        <ele>26</ele>
        <time>2015-11-22T08:52:42Z</time>
      </trkpt>
      <trkpt lat="43.12927" lon="2.98473">
        <ele>27</ele>
        <time>2015-11-22T08:52:47Z</time>
      </trkpt>
      <trkpt lat="43.12912" lon="2.98474">
        <ele>28</ele>
        <time>2015-11-22T08:52:53Z</time>
      </trkpt>
      <trkpt lat="43.12897" lon="2.98475">
        <ele>29</ele>
        <time>2015-11-22T08:52:59Z</time>
      </trkpt>
      <trkpt lat="43.12882" lon="2.98477">
        <ele>26</ele>
        <time>2015-11-22T08:53:05Z</time>
      </trkpt>
      <trkpt lat="43.12861" lon="2.98475">
        <ele>19</ele>
        <time>2015-11-22T08:53:13Z</time>
      </trkpt>
      <trkpt lat="43.12833" lon="2.98474">
        <ele>16</ele>
        <time>2015-11-22T08:53:21Z</time>
      </trkpt>
      <trkpt lat="43.12827" lon="2.98477">
        <ele>16</ele>
        <time>2015-11-22T08:53:23Z</time>
      </trkpt>
      <trkpt lat="43.12799" lon="2.98488">
        <ele>13</ele>
        <time>2015-11-22T08:53:33Z</time>
      </trkpt>
      <trkpt lat="43.1278" lon="2.98496">
        <ele>12</ele>
        <time>2015-11-22T08:53:39Z</time>
      </trkpt>
      <trkpt lat="43.12773" lon="2.985">
        <ele>12</ele>
        <time>2015-11-22T08:53:41Z</time>
      </trkpt>
      <trkpt lat="43.12745" lon="2.98513">
        <ele>12</ele>
        <time>2015-11-22T08:53:51Z</time>
      </trkpt>
      <trkpt lat="43.12736" lon="2.98515">
        <ele>14</ele>
        <time>2015-11-22T08:53:54Z</time>
      </trkpt>
      <trkpt lat="43.12709" lon="2.98518">
        <ele>17</ele>
        <time>2015-11-22T08:54:03Z</time>
      </trkpt>
      <trkpt lat="43.12704" lon="2.9852">
        <ele>17</ele>
        <time>2015-11-22T08:54:05Z</time>
      </trkpt>
      <trkpt lat="43.12685" lon="2.98524">
        <ele>17</ele>
        <time>2015-11-22T08:54:11Z</time>
      </trkpt>
      <trkpt lat="43.12648" lon="2.98534">
        <ele>17</ele>
        <time>2015-11-22T08:54:22Z</time>
      </trkpt>
      <trkpt lat="43.12635" lon="2.98544">
        <ele>19</ele>
        <time>2015-11-22T08:54:28Z</time>
      </trkpt>
      <trkpt lat="43.12622" lon="2.98552">
        <ele>19</ele>
        <time>2015-11-22T08:54:33Z</time>
      </trkpt>
      <trkpt lat="43.12614" lon="2.98556">
        <ele>20</ele>
        <time>2015-11-22T08:54:36Z</time>
      </trkpt>
      <trkpt lat="43.12602" lon="2.98566">
        <ele>20</ele>
        <time>2015-11-22T08:54:41Z</time>
      </trkpt>
      <trkpt lat="43.12584" lon="2.98576">
        <ele>20</ele>
        <time>2015-11-22T08:54:48Z</time>
      </trkpt>
      <trkpt lat="43.12571" lon="2.98583">
        <ele>21</ele>
        <time>2015-11-22T08:54:53Z</time>
      </trkpt>
      <trkpt lat="43.12556" lon="2.98591">
        <ele>21</ele>
        <time>2015-11-22T08:54:59Z</time>
      </trkpt>
      <trkpt lat="43.12535" lon="2.98607">
        <ele>19</ele>
        <time>2015-11-22T08:55:06Z</time>
      </trkpt>
      <trkpt lat="43.12522" lon="2.98616">
        <ele>17</ele>
        <time>2015-11-22T08:55:11Z</time>
      </trkpt>
      <trkpt lat="43.12505" lon="2.98629">
        <ele>14</ele>
        <time>2015-11-22T08:55:18Z</time>
      </trkpt>
      <trkpt lat="43.12497" lon="2.9864">
        <ele>14</ele>
        <time>2015-11-22T08:55:23Z</time>
      </trkpt>
      <trkpt lat="43.12474" lon="2.9865">
        <ele>15</ele>
        <time>2015-11-22T08:55:33Z</time>
      </trkpt>
      <trkpt lat="43.12461" lon="2.98655">
        <ele>16</ele>
        <time>2015-11-22T08:55:38Z</time>
      </trkpt>
      <trkpt lat="43.12454" lon="2.98656">
        <ele>17</ele>
        <time>2015-11-22T08:55:41Z</time>
      </trkpt>
      <trkpt lat="43.12435" lon="2.98669">
        <ele>19</ele>
        <time>2015-11-22T08:55:52Z</time>
      </trkpt>
      <trkpt lat="43.12433" lon="2.98672">
        <ele>19</ele>
        <time>2015-11-22T08:55:53Z</time>
      </trkpt>
      <trkpt lat="43.12418" lon="2.98674">
        <ele>19</ele>
        <time>2015-11-22T08:55:59Z</time>
      </trkpt>
      <trkpt lat="43.12403" lon="2.98669">
        <ele>14</ele>
        <time>2015-11-22T08:56:05Z</time>
      </trkpt>
      <trkpt lat="43.12389" lon="2.9866">
        <ele>13</ele>
        <time>2015-11-22T08:56:12Z</time>
      </trkpt>
      <trkpt lat="43.12377" lon="2.98656">
        <ele>11</ele>
        <time>2015-11-22T08:56:19Z</time>
      </trkpt>
      <trkpt lat="43.12373" lon="2.9865">
        <ele>11</ele>
        <time>2015-11-22T08:56:23Z</time>
      </trkpt>
      <trkpt lat="43.12361" lon="2.98637">
        <ele>12</ele>
        <time>2015-11-22T08:56:30Z</time>
      </trkpt>
      <trkpt lat="43.12352" lon="2.98627">
        <ele>11</ele>
        <time>2015-11-22T08:56:35Z</time>
      </trkpt>
      <trkpt lat="43.12339" lon="2.98618">
        <ele>8</ele>
        <time>2015-11-22T08:56:45Z</time>
      </trkpt>
      <trkpt lat="43.12335" lon="2.98616">
        <ele>8</ele>
        <time>2015-11-22T08:56:47Z</time>
      </trkpt>
      <trkpt lat="43.12324" lon="2.98609">
        <ele>9</ele>
        <time>2015-11-22T08:56:53Z</time>
      </trkpt>
      <trkpt lat="43.12311" lon="2.98602">
        <ele>9</ele>
        <time>2015-11-22T08:56:59Z</time>
      </trkpt>
      <trkpt lat="43.12296" lon="2.98597">
        <ele>8</ele>
        <time>2015-11-22T08:57:05Z</time>
      </trkpt>
      <trkpt lat="43.12285" lon="2.98593">
        <ele>8</ele>
        <time>2015-11-22T08:57:11Z</time>
      </trkpt>
      <trkpt lat="43.12276" lon="2.98589">
        <ele>8</ele>
        <time>2015-11-22T08:57:16Z</time>
      </trkpt>
      <trkpt lat="43.12268" lon="2.98582">
        <ele>9</ele>
        <time>2015-11-22T08:57:22Z</time>
      </trkpt>
      <trkpt lat="43.12259" lon="2.98572">
        <ele>9</ele>
        <time>2015-11-22T08:57:27Z</time>
      </trkpt>
      <trkpt lat="43.1224" lon="2.98567">
        <ele>10</ele>
        <time>2015-11-22T08:57:35Z</time>
      </trkpt>
      <trkpt lat="43.12233" lon="2.98563">
        <ele>11</ele>
        <time>2015-11-22T08:57:39Z</time>
      </trkpt>
      <trkpt lat="43.12219" lon="2.98554">
        <ele>12</ele>
        <time>2015-11-22T08:57:50Z</time>
      </trkpt>
      <trkpt lat="43.1222" lon="2.98554">
        <ele>11</ele>
        <time>2015-11-22T08:57:51Z</time>
      </trkpt>
      <trkpt lat="43.12221" lon="2.98554">
        <ele>11</ele>
        <time>2015-11-22T08:57:57Z</time>
      </trkpt>
      <trkpt lat="43.12206" lon="2.98552">
        <ele>11</ele>
        <time>2015-11-22T08:58:07Z</time>
      </trkpt>
      <trkpt lat="43.12201" lon="2.9855">
        <ele>11</ele>
        <time>2015-11-22T08:58:11Z</time>
      </trkpt>
      <trkpt lat="43.12176" lon="2.98547">
        <ele>11</ele>
        <time>2015-11-22T08:58:20Z</time>
      </trkpt>
      <trkpt lat="43.12167" lon="2.98541">
        <ele>12</ele>
        <time>2015-11-22T08:58:24Z</time>
      </trkpt>
      <trkpt lat="43.12162" lon="2.9854">
        <ele>10</ele>
        <time>2015-11-22T08:58:27Z</time>
      </trkpt>
      <trkpt lat="43.12151" lon="2.98538">
        <ele>9</ele>
        <time>2015-11-22T08:58:34Z</time>
      </trkpt>
      <trkpt lat="43.12146" lon="2.98532">
        <ele>9</ele>
        <time>2015-11-22T08:58:41Z</time>
      </trkpt>
      <trkpt lat="43.12144" lon="2.98531">
        <ele>8</ele>
        <time>2015-11-22T08:58:45Z</time>
      </trkpt>
      <trkpt lat="43.12141" lon="2.98531">
        <ele>10</ele>
        <time>2015-11-22T08:58:52Z</time>
      </trkpt>
      <trkpt lat="43.12141" lon="2.9853">
        <ele>10</ele>
        <time>2015-11-22T08:58:56Z</time>
      </trkpt>
      <trkpt lat="43.12142" lon="2.9853">
        <ele>10</ele>
        <time>2015-11-22T08:59:02Z</time>
      </trkpt>
      <trkpt lat="43.12141" lon="2.9853">
        <ele>9</ele>
        <time>2015-11-22T08:59:08Z</time>
      </trkpt>
      <trkpt lat="43.12137" lon="2.98513">
        <ele>8</ele>
        <time>2015-11-22T08:59:14Z</time>
      </trkpt>
      <trkpt lat="43.1214" lon="2.98483">
        <ele>11</ele>
        <time>2015-11-22T08:59:22Z</time>
      </trkpt>
      <trkpt lat="43.12145" lon="2.98468">
        <ele>11</ele>
        <time>2015-11-22T08:59:27Z</time>
      </trkpt>
      <trkpt lat="43.12147" lon="2.98452">
        <ele>12</ele>
        <time>2015-11-22T08:59:33Z</time>
      </trkpt>
      <trkpt lat="43.12146" lon="2.98447">
        <ele>13</ele>
        <time>2015-11-22T08:59:37Z</time>
      </trkpt>
      <trkpt lat="43.12143" lon="2.98438">
        <ele>15</ele>
        <time>2015-11-22T08:59:44Z</time>
      </trkpt>
      <trkpt lat="43.12138" lon="2.98423">
        <ele>16</ele>
        <time>2015-11-22T08:59:52Z</time>
      </trkpt>
      <trkpt lat="43.12134" lon="2.98412">
        <ele>17</ele>
        <time>2015-11-22T08:59:56Z</time>
      </trkpt>
      <trkpt lat="43.12133" lon="2.98391">
        <ele>19</ele>
        <time>2015-11-22T09:00:04Z</time>
      </trkpt>
      <trkpt lat="43.12134" lon="2.98382">
        <ele>21</ele>
        <time>2015-11-22T09:00:07Z</time>
      </trkpt>
      <trkpt lat="43.12136" lon="2.98373">
        <ele>22</ele>
        <time>2015-11-22T09:00:13Z</time>
      </trkpt>
      <trkpt lat="43.1214" lon="2.98366">
        <ele>20</ele>
        <time>2015-11-22T09:00:19Z</time>
      </trkpt>
      <trkpt lat="43.12141" lon="2.98369">
        <ele>22</ele>
        <time>2015-11-22T09:00:25Z</time>
      </trkpt>
      <trkpt lat="43.12141" lon="2.9837">
        <ele>21</ele>
        <time>2015-11-22T09:00:31Z</time>
      </trkpt>
      <trkpt lat="43.12141" lon="2.9837">
        <ele>22</ele>
        <time>2015-11-22T09:00:37Z</time>
      </trkpt>
      <trkpt lat="43.12141" lon="2.9837">
        <ele>22</ele>
        <time>2015-11-22T09:00:43Z</time>
      </trkpt>
      <trkpt lat="43.1214" lon="2.98371">
        <ele>21</ele>
        <time>2015-11-22T09:00:49Z</time>
      </trkpt>
      <trkpt lat="43.12139" lon="2.9837">
        <ele>20</ele>
        <time>2015-11-22T09:00:55Z</time>
      </trkpt>
      <trkpt lat="43.12136" lon="2.98367">
        <ele>22</ele>
        <time>2015-11-22T09:01:01Z</time>
      </trkpt>
      <trkpt lat="43.12118" lon="2.98357">
        <ele>19</ele>
        <time>2015-11-22T09:01:07Z</time>
      </trkpt>
      <trkpt lat="43.12102" lon="2.98339">
        <ele>18</ele>
        <time>2015-11-22T09:01:13Z</time>
      </trkpt>
      <trkpt lat="43.12089" lon="2.9832">
        <ele>16</ele>
        <time>2015-11-22T09:01:18Z</time>
      </trkpt>
      <trkpt lat="43.12075" lon="2.983">
        <ele>18</ele>
        <time>2015-11-22T09:01:25Z</time>
      </trkpt>
      <trkpt lat="43.12067" lon="2.98279">
        <ele>16</ele>
        <time>2015-11-22T09:01:30Z</time>
      </trkpt>
      <trkpt lat="43.12055" lon="2.98259">
        <ele>15</ele>
        <time>2015-11-22T09:01:36Z</time>
      </trkpt>
      <trkpt lat="43.12052" lon="2.98243">
        <ele>15</ele>
        <time>2015-11-22T09:01:42Z</time>
      </trkpt>
      <trkpt lat="43.1205" lon="2.9824">
        <ele>16</ele>
        <time>2015-11-22T09:01:48Z</time>
      </trkpt>
      <trkpt lat="43.1205" lon="2.9824">
        <ele>15</ele>
        <time>2015-11-22T09:01:54Z</time>
      </trkpt>
      <trkpt lat="43.12046" lon="2.98238">
        <ele>14</ele>
        <time>2015-11-22T09:02:00Z</time>
      </trkpt>
      <trkpt lat="43.12039" lon="2.98244">
        <ele>15</ele>
        <time>2015-11-22T09:02:06Z</time>
      </trkpt>
      <trkpt lat="43.12038" lon="2.98249">
        <ele>16</ele>
        <time>2015-11-22T09:02:12Z</time>
      </trkpt>
      <trkpt lat="43.12038" lon="2.98249">
        <ele>15</ele>
        <time>2015-11-22T09:02:17Z</time>
      </trkpt>
      <trkpt lat="43.12038" lon="2.98249">
        <ele>14</ele>
        <time>2015-11-22T09:02:23Z</time>
      </trkpt>
      <trkpt lat="43.12038" lon="2.98249">
        <ele>15</ele>
        <time>2015-11-22T09:02:28Z</time>
      </trkpt>
      <trkpt lat="43.12038" lon="2.98249">
        <ele>15</ele>
        <time>2015-11-22T09:02:34Z</time>
      </trkpt>
      <trkpt lat="43.12038" lon="2.98249">
        <ele>15</ele>
        <time>2015-11-22T09:02:40Z</time>
      </trkpt>
      <trkpt lat="43.12038" lon="2.98249">
        <ele>15</ele>
        <time>2015-11-22T09:02:46Z</time>
      </trkpt>
      <trkpt lat="43.12039" lon="2.98249">
        <ele>15</ele>
        <time>2015-11-22T09:02:56Z</time>
      </trkpt>
      <trkpt lat="43.12042" lon="2.98248">
        <ele>15</ele>
        <time>2015-11-22T09:02:58Z</time>
      </trkpt>
      <trkpt lat="43.12048" lon="2.98241">
        <ele>15</ele>
        <time>2015-11-22T09:03:03Z</time>
      </trkpt>
      <trkpt lat="43.12053" lon="2.98238">
        <ele>17</ele>
        <time>2015-11-22T09:03:10Z</time>
      </trkpt>
      <trkpt lat="43.12054" lon="2.98232">
        <ele>18</ele>
        <time>2015-11-22T09:03:15Z</time>
      </trkpt>
      <trkpt lat="43.12056" lon="2.9823">
        <ele>18</ele>
        <time>2015-11-22T09:03:21Z</time>
      </trkpt>
      <trkpt lat="43.12066" lon="2.98221">
        <ele>18</ele>
        <time>2015-11-22T09:03:27Z</time>
      </trkpt>
      <trkpt lat="43.1207" lon="2.98202">
        <ele>16</ele>
        <time>2015-11-22T09:03:32Z</time>
      </trkpt>
      <trkpt lat="43.12072" lon="2.9819">
        <ele>16</ele>
        <time>2015-11-22T09:03:41Z</time>
      </trkpt>
      <trkpt lat="43.12075" lon="2.98184">
        <ele>17</ele>
        <time>2015-11-22T09:03:44Z</time>
      </trkpt>
      <trkpt lat="43.12082" lon="2.98169">
        <ele>20</ele>
        <time>2015-11-22T09:03:54Z</time>
      </trkpt>
      <trkpt lat="43.12083" lon="2.98168">
        <ele>21</ele>
        <time>2015-11-22T09:03:56Z</time>
      </trkpt>
      <trkpt lat="43.12086" lon="2.98162">
        <ele>24</ele>
        <time>2015-11-22T09:04:02Z</time>
      </trkpt>
      <trkpt lat="43.12088" lon="2.98156">
        <ele>26</ele>
        <time>2015-11-22T09:04:10Z</time>
      </trkpt>
      <trkpt lat="43.12095" lon="2.98151">
        <ele>28</ele>
        <time>2015-11-22T09:04:16Z</time>
      </trkpt>
      <trkpt lat="43.12099" lon="2.98144">
        <ele>30</ele>
        <time>2015-11-22T09:04:23Z</time>
      </trkpt>
      <trkpt lat="43.12102" lon="2.98142">
        <ele>31</ele>
        <time>2015-11-22T09:04:28Z</time>
      </trkpt>
      <trkpt lat="43.12103" lon="2.98141">
        <ele>32</ele>
        <time>2015-11-22T09:04:32Z</time>
      </trkpt>
      <trkpt lat="43.12105" lon="2.98137">
        <ele>32</ele>
        <time>2015-11-22T09:04:38Z</time>
      </trkpt>
      <trkpt lat="43.12109" lon="2.98131">
        <ele>33</ele>
        <time>2015-11-22T09:04:45Z</time>
      </trkpt>
      <trkpt lat="43.1211" lon="2.98128">
        <ele>33</ele>
        <time>2015-11-22T09:04:51Z</time>
      </trkpt>
      <trkpt lat="43.12113" lon="2.98126">
        <ele>33</ele>
        <time>2015-11-22T09:04:56Z</time>
      </trkpt>
      <trkpt lat="43.12112" lon="2.98121">
        <ele>36</ele>
        <time>2015-11-22T09:05:03Z</time>
      </trkpt>
      <trkpt lat="43.12113" lon="2.98121">
        <ele>36</ele>
        <time>2015-11-22T09:05:06Z</time>
      </trkpt>
      <trkpt lat="43.12121" lon="2.98113">
        <ele>39</ele>
        <time>2015-11-22T09:05:17Z</time>
      </trkpt>
      <trkpt lat="43.12123" lon="2.98113">
        <ele>39</ele>
        <time>2015-11-22T09:05:23Z</time>
      </trkpt>
      <trkpt lat="43.12124" lon="2.98113">
        <ele>39</ele>
        <time>2015-11-22T09:05:28Z</time>
      </trkpt>
      <trkpt lat="43.12124" lon="2.98113">
        <ele>39</ele>
        <time>2015-11-22T09:05:30Z</time>
      </trkpt>
      <trkpt lat="43.12125" lon="2.98111">
        <ele>40</ele>
        <time>2015-11-22T09:05:39Z</time>
      </trkpt>
      <trkpt lat="43.12125" lon="2.9811">
        <ele>40</ele>
        <time>2015-11-22T09:05:42Z</time>
      </trkpt>
      <trkpt lat="43.12126" lon="2.98108">
        <ele>41</ele>
        <time>2015-11-22T09:05:53Z</time>
      </trkpt>
      <trkpt lat="43.12126" lon="2.98108">
        <ele>41</ele>
        <time>2015-11-22T09:05:54Z</time>
      </trkpt>
      <trkpt lat="43.12129" lon="2.98108">
        <ele>43</ele>
        <time>2015-11-22T09:06:00Z</time>
      </trkpt>
      <trkpt lat="43.12128" lon="2.98107">
        <ele>46</ele>
        <time>2015-11-22T09:06:06Z</time>
      </trkpt>
      <trkpt lat="43.12131" lon="2.98106">
        <ele>47</ele>
        <time>2015-11-22T09:06:12Z</time>
      </trkpt>
      <trkpt lat="43.12133" lon="2.98108">
        <ele>46</ele>
        <time>2015-11-22T09:06:18Z</time>
      </trkpt>
      <trkpt lat="43.12138" lon="2.98106">
        <ele>48</ele>
        <time>2015-11-22T09:06:24Z</time>
      </trkpt>
      <trkpt lat="43.12146" lon="2.98102">
        <ele>49</ele>
        <time>2015-11-22T09:06:29Z</time>
      </trkpt>
      <trkpt lat="43.12148" lon="2.98095">
        <ele>48</ele>
        <time>2015-11-22T09:06:38Z</time>
      </trkpt>
      <trkpt lat="43.12148" lon="2.98091">
        <ele>49</ele>
        <time>2015-11-22T09:06:43Z</time>
      </trkpt>
      <trkpt lat="43.12149" lon="2.98091">
        <ele>49</ele>
        <time>2015-11-22T09:06:47Z</time>
      </trkpt>
      <trkpt lat="43.12149" lon="2.98091">
        <ele>49</ele>
        <time>2015-11-22T09:06:53Z</time>
      </trkpt>
      <trkpt lat="43.12148" lon="2.98084">
        <ele>47</ele>
        <time>2015-11-22T09:06:59Z</time>
      </trkpt>
      <trkpt lat="43.12152" lon="2.98075">
        <ele>44</ele>
        <time>2015-11-22T09:07:04Z</time>
      </trkpt>
      <trkpt lat="43.12151" lon="2.98066">
        <ele>43</ele>
        <time>2015-11-22T09:07:09Z</time>
      </trkpt>
      <trkpt lat="43.12151" lon="2.98058">
        <ele>45</ele>
        <time>2015-11-22T09:07:15Z</time>
      </trkpt>
      <trkpt lat="43.12158" lon="2.98048">
        <ele>36</ele>
        <time>2015-11-22T09:07:26Z</time>
      </trkpt>
      <trkpt lat="43.12159" lon="2.98048">
        <ele>40</ele>
        <time>2015-11-22T09:07:27Z</time>
      </trkpt>
      <trkpt lat="43.12159" lon="2.98039">
        <ele>48</ele>
        <time>2015-11-22T09:07:34Z</time>
      </trkpt>
      <trkpt lat="43.1216" lon="2.98038">
        <ele>49</ele>
        <time>2015-11-22T09:07:39Z</time>
      </trkpt>
      <trkpt lat="43.12158" lon="2.98033">
        <ele>48</ele>
        <time>2015-11-22T09:07:45Z</time>
      </trkpt>
      <trkpt lat="43.12158" lon="2.98032">
        <ele>48</ele>
        <time>2015-11-22T09:07:51Z</time>
      </trkpt>
      <trkpt lat="43.12157" lon="2.98032">
        <ele>47</ele>
        <time>2015-11-22T09:07:57Z</time>
      </trkpt>
      <trkpt lat="43.12157" lon="2.98031">
        <ele>48</ele>
        <time>2015-11-22T09:08:03Z</time>
      </trkpt>
      <trkpt lat="43.12157" lon="2.98031">
        <ele>48</ele>
        <time>2015-11-22T09:08:09Z</time>
      </trkpt>
      <trkpt lat="43.12157" lon="2.98031">
        <ele>48</ele>
        <time>2015-11-22T09:08:15Z</time>
      </trkpt>
      <trkpt lat="43.12157" lon="2.98031">
        <ele>48</ele>
        <time>2015-11-22T09:08:21Z</time>
      </trkpt>
      <trkpt lat="43.12157" lon="2.98031">
        <ele>48</ele>
        <time>2015-11-22T09:08:27Z</time>
      </trkpt>
      <trkpt lat="43.12157" lon="2.98031">
        <ele>48</ele>
        <time>2015-11-22T09:08:33Z</time>
      </trkpt>
      <trkpt lat="43.12157" lon="2.98031">
        <ele>48</ele>
        <time>2015-11-22T09:08:38Z</time>
      </trkpt>
      <trkpt lat="43.12158" lon="2.9803">
        <ele>48</ele>
        <time>2015-11-22T09:08:44Z</time>
      </trkpt>
      <trkpt lat="43.12158" lon="2.9803">
        <ele>49</ele>
        <time>2015-11-22T09:08:49Z</time>
      </trkpt>
      <trkpt lat="43.12159" lon="2.98029">
        <ele>48</ele>
        <time>2015-11-22T09:08:58Z</time>
      </trkpt>
      <trkpt lat="43.12159" lon="2.98027">
        <ele>48</ele>
        <time>2015-11-22T09:09:01Z</time>
      </trkpt>
      <trkpt lat="43.12158" lon="2.98022">
        <ele>48</ele>
        <time>2015-11-22T09:09:07Z</time>
      </trkpt>
      <trkpt lat="43.12159" lon="2.9802">
        <ele>49</ele>
        <time>2015-11-22T09:09:13Z</time>
      </trkpt>
      <trkpt lat="43.12161" lon="2.98019">
        <ele>50</ele>
        <time>2015-11-22T09:09:19Z</time>
      </trkpt>
      <trkpt lat="43.12161" lon="2.98018">
        <ele>50</ele>
        <time>2015-11-22T09:09:25Z</time>
      </trkpt>
      <trkpt lat="43.12161" lon="2.98019">
        <ele>52</ele>
        <time>2015-11-22T09:09:36Z</time>
      </trkpt>
      <trkpt lat="43.12159" lon="2.98021">
        <ele>53</ele>
        <time>2015-11-22T09:09:39Z</time>
      </trkpt>
      <trkpt lat="43.12157" lon="2.98027">
        <ele>52</ele>
        <time>2015-11-22T09:09:45Z</time>
      </trkpt>
      <trkpt lat="43.12155" lon="2.98031">
        <ele>52</ele>
        <time>2015-11-22T09:09:49Z</time>
      </trkpt>
      <trkpt lat="43.12153" lon="2.98034">
        <ele>54</ele>
        <time>2015-11-22T09:09:55Z</time>
      </trkpt>
      <trkpt lat="43.12151" lon="2.98037">
        <ele>53</ele>
        <time>2015-11-22T09:10:01Z</time>
      </trkpt>
      <trkpt lat="43.12151" lon="2.98037">
        <ele>52</ele>
        <time>2015-11-22T09:10:07Z</time>
      </trkpt>
      <trkpt lat="43.12151" lon="2.98038">
        <ele>50</ele>
        <time>2015-11-22T09:10:14Z</time>
      </trkpt>
      <trkpt lat="43.12151" lon="2.98038">
        <ele>50</ele>
        <time>2015-11-22T09:10:18Z</time>
      </trkpt>
      <trkpt lat="43.12151" lon="2.98038">
        <ele>50</ele>
        <time>2015-11-22T09:10:28Z</time>
      </trkpt>
      <trkpt lat="43.12151" lon="2.98038">
        <ele>50</ele>
        <time>2015-11-22T09:10:30Z</time>
      </trkpt>
      <trkpt lat="43.12151" lon="2.98041">
        <ele>50</ele>
        <time>2015-11-22T09:10:36Z</time>
      </trkpt>
      <trkpt lat="43.12156" lon="2.98045">
        <ele>51</ele>
        <time>2015-11-22T09:10:42Z</time>
      </trkpt>
      <trkpt lat="43.1216" lon="2.9806">
        <ele>51</ele>
        <time>2015-11-22T09:10:48Z</time>
      </trkpt>
      <trkpt lat="43.12159" lon="2.98076">
        <ele>49</ele>
        <time>2015-11-22T09:10:55Z</time>
      </trkpt>
      <trkpt lat="43.12156" lon="2.98089">
        <ele>48</ele>
        <time>2015-11-22T09:11:00Z</time>
      </trkpt>
      <trkpt lat="43.12155" lon="2.98109">
        <ele>49</ele>
        <time>2015-11-22T09:11:09Z</time>
      </trkpt>
      <trkpt lat="43.1216" lon="2.98112">
        <ele>49</ele>
        <time>2015-11-22T09:11:12Z</time>
      </trkpt>
      <trkpt lat="43.12166" lon="2.9812">
        <ele>49</ele>
        <time>2015-11-22T09:11:18Z</time>
      </trkpt>
      <trkpt lat="43.12171" lon="2.98126">
        <ele>50</ele>
        <time>2015-11-22T09:11:24Z</time>
      </trkpt>
      <trkpt lat="43.12188" lon="2.98147">
        <ele>50</ele>
        <time>2015-11-22T09:11:34Z</time>
      </trkpt>
      <trkpt lat="43.12193" lon="2.98153">
        <ele>51</ele>
        <time>2015-11-22T09:11:36Z</time>
      </trkpt>
      <trkpt lat="43.12209" lon="2.98166">
        <ele>55</ele>
        <time>2015-11-22T09:11:43Z</time>
      </trkpt>
      <trkpt lat="43.12222" lon="2.98169">
        <ele>58</ele>
        <time>2015-11-22T09:11:51Z</time>
      </trkpt>
      <trkpt lat="43.12224" lon="2.98169">
        <ele>58</ele>
        <time>2015-11-22T09:11:53Z</time>
      </trkpt>
      <trkpt lat="43.12225" lon="2.9817">
        <ele>58</ele>
        <time>2015-11-22T09:11:59Z</time>
      </trkpt>
      <trkpt lat="43.12229" lon="2.98168">
        <ele>60</ele>
        <time>2015-11-22T09:12:05Z</time>
      </trkpt>
      <trkpt lat="43.12238" lon="2.98172">
        <ele>59</ele>
        <time>2015-11-22T09:12:11Z</time>
      </trkpt>
      <trkpt lat="43.12252" lon="2.98181">
        <ele>60</ele>
        <time>2015-11-22T09:12:17Z</time>
      </trkpt>
      <trkpt lat="43.12268" lon="2.98187">
        <ele>60</ele>
        <time>2015-11-22T09:12:23Z</time>
      </trkpt>
      <trkpt lat="43.12283" lon="2.98197">
        <ele>60</ele>
        <time>2015-11-22T09:12:29Z</time>
      </trkpt>
      <trkpt lat="43.12296" lon="2.98209">
        <ele>59</ele>
        <time>2015-11-22T09:12:35Z</time>
      </trkpt>
      <trkpt lat="43.1232" lon="2.98195">
        <ele>58</ele>
        <time>2015-11-22T09:12:46Z</time>
      </trkpt>
      <trkpt lat="43.12323" lon="2.98191">
        <ele>58</ele>
        <time>2015-11-22T09:12:48Z</time>
      </trkpt>
      <trkpt lat="43.12323" lon="2.98189">
        <ele>59</ele>
        <time>2015-11-22T09:12:53Z</time>
      </trkpt>
      <trkpt lat="43.12323" lon="2.98189">
        <ele>60</ele>
        <time>2015-11-22T09:12:59Z</time>
      </trkpt>
      <trkpt lat="43.12322" lon="2.98188">
        <ele>60</ele>
        <time>2015-11-22T09:13:05Z</time>
      </trkpt>
      <trkpt lat="43.12323" lon="2.98188">
        <ele>61</ele>
        <time>2015-11-22T09:13:12Z</time>
      </trkpt>
      <trkpt lat="43.12324" lon="2.98177">
        <ele>63</ele>
        <time>2015-11-22T09:13:17Z</time>
      </trkpt>
      <trkpt lat="43.12325" lon="2.98163">
        <ele>65</ele>
        <time>2015-11-22T09:13:23Z</time>
      </trkpt>
      <trkpt lat="43.12324" lon="2.98152">
        <ele>63</ele>
        <time>2015-11-22T09:13:29Z</time>
      </trkpt>
      <trkpt lat="43.12323" lon="2.98147">
        <ele>61</ele>
        <time>2015-11-22T09:13:36Z</time>
      </trkpt>
      <trkpt lat="43.12316" lon="2.98149">
        <ele>62</ele>
        <time>2015-11-22T09:13:40Z</time>
      </trkpt>
      <trkpt lat="43.1232" lon="2.98135">
        <ele>65</ele>
        <time>2015-11-22T09:13:45Z</time>
      </trkpt>
      <trkpt lat="43.12323" lon="2.98117">
        <ele>68</ele>
        <time>2015-11-22T09:13:51Z</time>
      </trkpt>
      <trkpt lat="43.12328" lon="2.98104">
        <ele>68</ele>
        <time>2015-11-22T09:13:56Z</time>
      </trkpt>
      <trkpt lat="43.12333" lon="2.98094">
        <ele>71</ele>
        <time>2015-11-22T09:14:02Z</time>
      </trkpt>
      <trkpt lat="43.12336" lon="2.98081">
        <ele>71</ele>
        <time>2015-11-22T09:14:08Z</time>
      </trkpt>
      <trkpt lat="43.1234" lon="2.98071">
        <ele>74</ele>
        <time>2015-11-22T09:14:13Z</time>
      </trkpt>
      <trkpt lat="43.12341" lon="2.98063">
        <ele>75</ele>
        <time>2015-11-22T09:14:19Z</time>
      </trkpt>
      <trkpt lat="43.12339" lon="2.98055">
        <ele>76</ele>
        <time>2015-11-22T09:14:30Z</time>
      </trkpt>
      <trkpt lat="43.12339" lon="2.98045">
        <ele>77</ele>
        <time>2015-11-22T09:14:36Z</time>
      </trkpt>
      <trkpt lat="43.1234" lon="2.98041">
        <ele>79</ele>
        <time>2015-11-22T09:14:38Z</time>
      </trkpt>
      <trkpt lat="43.12342" lon="2.9802">
        <ele>80</ele>
        <time>2015-11-22T09:14:46Z</time>
      </trkpt>
      <trkpt lat="43.12337" lon="2.98015">
        <ele>82</ele>
        <time>2015-11-22T09:14:49Z</time>
      </trkpt>
      <trkpt lat="43.12333" lon="2.98006">
        <ele>82</ele>
        <time>2015-11-22T09:14:55Z</time>
      </trkpt>
      <trkpt lat="43.12332" lon="2.97998">
        <ele>82</ele>
        <time>2015-11-22T09:15:01Z</time>
      </trkpt>
      <trkpt lat="43.12327" lon="2.97994">
        <ele>83</ele>
        <time>2015-11-22T09:15:07Z</time>
      </trkpt>
      <trkpt lat="43.12326" lon="2.97988">
        <ele>84</ele>
        <time>2015-11-22T09:15:13Z</time>
      </trkpt>
      <trkpt lat="43.12321" lon="2.97983">
        <ele>88</ele>
        <time>2015-11-22T09:15:19Z</time>
      </trkpt>
      <trkpt lat="43.12318" lon="2.9797">
        <ele>92</ele>
        <time>2015-11-22T09:15:28Z</time>
      </trkpt>
      <trkpt lat="43.12316" lon="2.97967">
        <ele>91</ele>
        <time>2015-11-22T09:15:31Z</time>
      </trkpt>
      <trkpt lat="43.12322" lon="2.97948">
        <ele>92</ele>
        <time>2015-11-22T09:15:42Z</time>
      </trkpt>
      <trkpt lat="43.12323" lon="2.97946">
        <ele>92</ele>
        <time>2015-11-22T09:15:43Z</time>
      </trkpt>
      <trkpt lat="43.1233" lon="2.97937">
        <ele>92</ele>
        <time>2015-11-22T09:15:49Z</time>
      </trkpt>
      <trkpt lat="43.12345" lon="2.97917">
        <ele>91</ele>
        <time>2015-11-22T09:15:58Z</time>
      </trkpt>
      <trkpt lat="43.12357" lon="2.97903">
        <ele>91</ele>
        <time>2015-11-22T09:16:05Z</time>
      </trkpt>
      <trkpt lat="43.1236" lon="2.979">
        <ele>91</ele>
        <time>2015-11-22T09:16:07Z</time>
      </trkpt>
      <trkpt lat="43.12375" lon="2.97895">
        <ele>93</ele>
        <time>2015-11-22T09:16:14Z</time>
      </trkpt>
      <trkpt lat="43.12381" lon="2.97889">
        <ele>93</ele>
        <time>2015-11-22T09:16:19Z</time>
      </trkpt>
      <trkpt lat="43.12388" lon="2.97877">
        <ele>93</ele>
        <time>2015-11-22T09:16:25Z</time>
      </trkpt>
      <trkpt lat="43.12395" lon="2.9786">
        <ele>93</ele>
        <time>2015-11-22T09:16:31Z</time>
      </trkpt>
      <trkpt lat="43.12402" lon="2.97844">
        <ele>91</ele>
        <time>2015-11-22T09:16:37Z</time>
      </trkpt>
      <trkpt lat="43.12405" lon="2.97835">
        <ele>93</ele>
        <time>2015-11-22T09:16:43Z</time>
      </trkpt>
      <trkpt lat="43.12394" lon="2.97826">
        <ele>96</ele>
        <time>2015-11-22T09:16:54Z</time>
      </trkpt>
      <trkpt lat="43.12386" lon="2.9781">
        <ele>96</ele>
        <time>2015-11-22T09:17:00Z</time>
      </trkpt>
      <trkpt lat="43.12385" lon="2.97805">
        <ele>96</ele>
        <time>2015-11-22T09:17:01Z</time>
      </trkpt>
      <trkpt lat="43.12382" lon="2.97797">
        <ele>98</ele>
        <time>2015-11-22T09:17:07Z</time>
      </trkpt>
      <trkpt lat="43.12378" lon="2.97787">
        <ele>98</ele>
        <time>2015-11-22T09:17:14Z</time>
      </trkpt>
      <trkpt lat="43.12374" lon="2.97775">
        <ele>97</ele>
        <time>2015-11-22T09:17:22Z</time>
      </trkpt>
      <trkpt lat="43.12372" lon="2.9777">
        <ele>97</ele>
        <time>2015-11-22T09:17:25Z</time>
      </trkpt>
      <trkpt lat="43.1237" lon="2.97759">
        <ele>96</ele>
        <time>2015-11-22T09:17:31Z</time>
      </trkpt>
      <trkpt lat="43.12364" lon="2.9775">
        <ele>96</ele>
        <time>2015-11-22T09:17:37Z</time>
      </trkpt>
      <trkpt lat="43.12355" lon="2.97737">
        <ele>97</ele>
        <time>2015-11-22T09:17:48Z</time>
      </trkpt>
      <trkpt lat="43.12354" lon="2.97736">
        <ele>97</ele>
        <time>2015-11-22T09:17:49Z</time>
      </trkpt>
      <trkpt lat="43.12348" lon="2.97727">
        <ele>101</ele>
        <time>2015-11-22T09:17:58Z</time>
      </trkpt>
      <trkpt lat="43.12349" lon="2.97727">
        <ele>102</ele>
        <time>2015-11-22T09:18:02Z</time>
      </trkpt>
      <trkpt lat="43.1235" lon="2.97728">
        <ele>102</ele>
        <time>2015-11-22T09:18:07Z</time>
      </trkpt>
      <trkpt lat="43.12349" lon="2.97728">
        <ele>102</ele>
        <time>2015-11-22T09:18:13Z</time>
      </trkpt>
      <trkpt lat="43.12345" lon="2.97726">
        <ele>103</ele>
        <time>2015-11-22T09:18:24Z</time>
      </trkpt>
      <trkpt lat="43.12344" lon="2.97727">
        <ele>103</ele>
        <time>2015-11-22T09:18:25Z</time>
      </trkpt>
      <trkpt lat="43.12339" lon="2.97728">
        <ele>102</ele>
        <time>2015-11-22T09:18:30Z</time>
      </trkpt>
      <trkpt lat="43.12335" lon="2.97732">
        <ele>100</ele>
        <time>2015-11-22T09:18:36Z</time>
      </trkpt>
      <trkpt lat="43.12331" lon="2.97734">
        <ele>100</ele>
        <time>2015-11-22T09:18:42Z</time>
      </trkpt>
      <trkpt lat="43.12326" lon="2.97734">
        <ele>100</ele>
        <time>2015-11-22T09:18:48Z</time>
      </trkpt>
      <trkpt lat="43.12323" lon="2.97737">
        <ele>98</ele>
        <time>2015-11-22T09:18:54Z</time>
      </trkpt>
      <trkpt lat="43.12324" lon="2.97738">
        <ele>99</ele>
        <time>2015-11-22T09:19:00Z</time>
      </trkpt>
      <trkpt lat="43.12324" lon="2.97738">
        <ele>99</ele>
        <time>2015-11-22T09:19:06Z</time>
      </trkpt>
      <trkpt lat="43.12325" lon="2.97738">
        <ele>100</ele>
        <time>2015-11-22T09:19:12Z</time>
      </trkpt>
      <trkpt lat="43.12327" lon="2.97735">
        <ele>100</ele>
        <time>2015-11-22T09:19:18Z</time>
      </trkpt>
      <trkpt lat="43.12339" lon="2.97725">
        <ele>99</ele>
        <time>2015-11-22T09:19:26Z</time>
      </trkpt>
      <trkpt lat="43.12341" lon="2.97719">
        <ele>98</ele>
        <time>2015-11-22T09:19:30Z</time>
      </trkpt>
      <trkpt lat="43.12342" lon="2.97717">
        <ele>99</ele>
        <time>2015-11-22T09:19:36Z</time>
      </trkpt>
      <trkpt lat="43.12342" lon="2.97718">
        <ele>99</ele>
        <time>2015-11-22T09:19:42Z</time>
      </trkpt>
      <trkpt lat="43.12342" lon="2.97716">
        <ele>97</ele>
        <time>2015-11-22T09:19:48Z</time>
      </trkpt>
      <trkpt lat="43.12342" lon="2.97716">
        <ele>96</ele>
        <time>2015-11-22T09:19:55Z</time>
      </trkpt>
      <trkpt lat="43.12341" lon="2.97716">
        <ele>96</ele>
        <time>2015-11-22T09:20:00Z</time>
      </trkpt>
      <trkpt lat="43.1234" lon="2.97715">
        <ele>94</ele>
        <time>2015-11-22T09:20:06Z</time>
      </trkpt>
      <trkpt lat="43.1234" lon="2.97715">
        <ele>95</ele>
        <time>2015-11-22T09:20:11Z</time>
      </trkpt>
      <trkpt lat="43.12339" lon="2.9771">
        <ele>94</ele>
        <time>2015-11-22T09:20:16Z</time>
      </trkpt>
      <trkpt lat="43.12337" lon="2.97704">
        <ele>95</ele>
        <time>2015-11-22T09:20:22Z</time>
      </trkpt>
      <trkpt lat="43.12337" lon="2.97696">
        <ele>95</ele>
        <time>2015-11-22T09:20:28Z</time>
      </trkpt>
      <trkpt lat="43.12335" lon="2.9769">
        <ele>95</ele>
        <time>2015-11-22T09:20:34Z</time>
      </trkpt>
      <trkpt lat="43.12335" lon="2.97689">
        <ele>94</ele>
        <time>2015-11-22T09:20:40Z</time>
      </trkpt>
      <trkpt lat="43.12333" lon="2.97683">
        <ele>95</ele>
        <time>2015-11-22T09:20:47Z</time>
      </trkpt>
      <trkpt lat="43.12332" lon="2.97684">
        <ele>94</ele>
        <time>2015-11-22T09:20:52Z</time>
      </trkpt>
      <trkpt lat="43.1233" lon="2.97684">
        <ele>92</ele>
        <time>2015-11-22T09:20:59Z</time>
      </trkpt>
      <trkpt lat="43.1233" lon="2.97684">
        <ele>93</ele>
        <time>2015-11-22T09:21:06Z</time>
      </trkpt>
      <trkpt lat="43.1233" lon="2.97684">
        <ele>93</ele>
        <time>2015-11-22T09:21:09Z</time>
      </trkpt>
      <trkpt lat="43.1233" lon="2.97684">
        <ele>93</ele>
        <time>2015-11-22T09:21:15Z</time>
      </trkpt>
      <trkpt lat="43.1233" lon="2.97682">
        <ele>92</ele>
        <time>2015-11-22T09:21:20Z</time>
      </trkpt>
      <trkpt lat="43.12328" lon="2.97667">
        <ele>94</ele>
        <time>2015-11-22T09:21:26Z</time>
      </trkpt>
      <trkpt lat="43.12328" lon="2.97651">
        <ele>92</ele>
        <time>2015-11-22T09:21:32Z</time>
      </trkpt>
      <trkpt lat="43.12324" lon="2.97636">
        <ele>91</ele>
        <time>2015-11-22T09:21:40Z</time>
      </trkpt>
      <trkpt lat="43.12325" lon="2.97631">
        <ele>90</ele>
        <time>2015-11-22T09:21:43Z</time>
      </trkpt>
      <trkpt lat="43.12324" lon="2.97629">
        <ele>90</ele>
        <time>2015-11-22T09:21:49Z</time>
      </trkpt>
      <trkpt lat="43.12325" lon="2.97628">
        <ele>91</ele>
        <time>2015-11-22T09:21:54Z</time>
      </trkpt>
      <trkpt lat="43.12325" lon="2.97622">
        <ele>88</ele>
        <time>2015-11-22T09:22:00Z</time>
      </trkpt>
      <trkpt lat="43.12324" lon="2.9762">
        <ele>88</ele>
        <time>2015-11-22T09:22:05Z</time>
      </trkpt>
      <trkpt lat="43.12323" lon="2.97618">
        <ele>88</ele>
        <time>2015-11-22T09:22:11Z</time>
      </trkpt>
      <trkpt lat="43.12319" lon="2.97615">
        <ele>86</ele>
        <time>2015-11-22T09:22:17Z</time>
      </trkpt>
      <trkpt lat="43.12316" lon="2.97611">
        <ele>84</ele>
        <time>2015-11-22T09:22:27Z</time>
      </trkpt>
      <trkpt lat="43.12316" lon="2.97611">
        <ele>84</ele>
        <time>2015-11-22T09:22:28Z</time>
      </trkpt>
      <trkpt lat="43.12317" lon="2.97611">
        <ele>86</ele>
        <time>2015-11-22T09:22:34Z</time>
      </trkpt>
      <trkpt lat="43.12316" lon="2.9761">
        <ele>90</ele>
        <time>2015-11-22T09:22:40Z</time>
      </trkpt>
      <trkpt lat="43.12316" lon="2.97611">
        <ele>89</ele>
        <time>2015-11-22T09:22:51Z</time>
      </trkpt>
      <trkpt lat="43.12316" lon="2.97611">
        <ele>89</ele>
        <time>2015-11-22T09:22:52Z</time>
      </trkpt>
      <trkpt lat="43.12316" lon="2.97611">
        <ele>89</ele>
        <time>2015-11-22T09:22:58Z</time>
      </trkpt>
      <trkpt lat="43.12316" lon="2.97611">
        <ele>89</ele>
        <time>2015-11-22T09:23:05Z</time>
      </trkpt>
      <trkpt lat="43.12316" lon="2.97611">
        <ele>89</ele>
        <time>2015-11-22T09:23:09Z</time>
      </trkpt>
      <trkpt lat="43.12316" lon="2.97611">
        <ele>89</ele>
        <time>2015-11-22T09:23:15Z</time>
      </trkpt>
      <trkpt lat="43.12316" lon="2.97611">
        <ele>89</ele>
        <time>2015-11-22T09:23:21Z</time>
      </trkpt>
      <trkpt lat="43.12314" lon="2.9761">
        <ele>89</ele>
        <time>2015-11-22T09:23:28Z</time>
      </trkpt>
      <trkpt lat="43.1231" lon="2.97601">
        <ele>88</ele>
        <time>2015-11-22T09:23:32Z</time>
      </trkpt>
      <trkpt lat="43.12308" lon="2.97579">
        <ele>89</ele>
        <time>2015-11-22T09:23:41Z</time>
      </trkpt>
      <trkpt lat="43.12309" lon="2.97572">
        <ele>88</ele>
        <time>2015-11-22T09:23:45Z</time>
      </trkpt>
      <trkpt lat="43.12308" lon="2.97555">
        <ele>92</ele>
        <time>2015-11-22T09:23:54Z</time>
      </trkpt>
      <trkpt lat="43.12308" lon="2.97553">
        <ele>92</ele>
        <time>2015-11-22T09:23:56Z</time>
      </trkpt>
      <trkpt lat="43.12305" lon="2.97536">
        <ele>91</ele>
        <time>2015-11-22T09:24:03Z</time>
      </trkpt>
      <trkpt lat="43.12306" lon="2.97515">
        <ele>94</ele>
        <time>2015-11-22T09:24:12Z</time>
      </trkpt>
      <trkpt lat="43.12305" lon="2.9751">
        <ele>94</ele>
        <time>2015-11-22T09:24:14Z</time>
      </trkpt>
      <trkpt lat="43.12295" lon="2.97497">
        <ele>96</ele>
        <time>2015-11-22T09:24:20Z</time>
      </trkpt>
      <trkpt lat="43.12293" lon="2.9749">
        <ele>99</ele>
        <time>2015-11-22T09:24:26Z</time>
      </trkpt>
      <trkpt lat="43.1229" lon="2.97491">
        <ele>98</ele>
        <time>2015-11-22T09:24:35Z</time>
      </trkpt>
      <trkpt lat="43.1229" lon="2.97491">
        <ele>97</ele>
        <time>2015-11-22T09:24:38Z</time>
      </trkpt>
      <trkpt lat="43.1229" lon="2.97491">
        <ele>97</ele>
        <time>2015-11-22T09:24:48Z</time>
      </trkpt>
      <trkpt lat="43.1229" lon="2.97491">
        <ele>97</ele>
        <time>2015-11-22T09:24:51Z</time>
      </trkpt>
      <trkpt lat="43.12281" lon="2.97488">
        <ele>95</ele>
        <time>2015-11-22T09:24:56Z</time>
      </trkpt>
      <trkpt lat="43.12275" lon="2.97489">
        <ele>94</ele>
        <time>2015-11-22T09:25:02Z</time>
      </trkpt>
      <trkpt lat="43.12275" lon="2.97489">
        <ele>96</ele>
        <time>2015-11-22T09:25:07Z</time>
      </trkpt>
      <trkpt lat="43.12273" lon="2.97487">
        <ele>96</ele>
        <time>2015-11-22T09:25:13Z</time>
      </trkpt>
      <trkpt lat="43.12254" lon="2.97473">
        <ele>95</ele>
        <time>2015-11-22T09:25:22Z</time>
      </trkpt>
      <trkpt lat="43.12242" lon="2.97463">
        <ele>99</ele>
        <time>2015-11-22T09:25:30Z</time>
      </trkpt>
      <trkpt lat="43.12243" lon="2.97463">
        <ele>98</ele>
        <time>2015-11-22T09:25:31Z</time>
      </trkpt>
      <trkpt lat="43.12235" lon="2.9746">
        <ele>96</ele>
        <time>2015-11-22T09:25:37Z</time>
      </trkpt>
      <trkpt lat="43.12231" lon="2.9746">
        <ele>95</ele>
        <time>2015-11-22T09:25:44Z</time>
      </trkpt>
      <trkpt lat="43.12224" lon="2.97462">
        <ele>93</ele>
        <time>2015-11-22T09:25:49Z</time>
      </trkpt>
      <trkpt lat="43.12205" lon="2.97466">
        <ele>95</ele>
        <time>2015-11-22T09:26:00Z</time>
      </trkpt>
      <trkpt lat="43.12204" lon="2.97465">
        <ele>95</ele>
        <time>2015-11-22T09:26:04Z</time>
      </trkpt>
      <trkpt lat="43.12204" lon="2.97461">
        <ele>97</ele>
        <time>2015-11-22T09:26:08Z</time>
      </trkpt>
      <trkpt lat="43.12205" lon="2.97462">
        <ele>98</ele>
        <time>2015-11-22T09:26:13Z</time>
      </trkpt>
      <trkpt lat="43.12206" lon="2.97462">
        <ele>99</ele>
        <time>2015-11-22T09:26:19Z</time>
      </trkpt>
      <trkpt lat="43.12206" lon="2.97462">
        <ele>99</ele>
        <time>2015-11-22T09:26:25Z</time>
      </trkpt>
      <trkpt lat="43.12206" lon="2.97462">
        <ele>99</ele>
        <time>2015-11-22T09:26:31Z</time>
      </trkpt>
      <trkpt lat="43.12206" lon="2.97462">
        <ele>99</ele>
        <time>2015-11-22T09:26:37Z</time>
      </trkpt>
      <trkpt lat="43.12206" lon="2.97462">
        <ele>99</ele>
        <time>2015-11-22T09:26:43Z</time>
      </trkpt>
      <trkpt lat="43.12206" lon="2.97462">
        <ele>99</ele>
        <time>2015-11-22T09:26:49Z</time>
      </trkpt>
      <trkpt lat="43.12206" lon="2.97462">
        <ele>99</ele>
        <time>2015-11-22T09:26:55Z</time>
      </trkpt>
      <trkpt lat="43.12206" lon="2.97462">
        <ele>99</ele>
        <time>2015-11-22T09:27:01Z</time>
      </trkpt>
      <trkpt lat="43.12206" lon="2.97461">
        <ele>100</ele>
        <time>2015-11-22T09:27:07Z</time>
      </trkpt>
      <trkpt lat="43.12207" lon="2.97446">
        <ele>94</ele>
        <time>2015-11-22T09:27:14Z</time>
      </trkpt>
      <trkpt lat="43.12207" lon="2.9743">
        <ele>98</ele>
        <time>2015-11-22T09:27:19Z</time>
      </trkpt>
      <trkpt lat="43.12208" lon="2.9741">
        <ele>97</ele>
        <time>2015-11-22T09:27:26Z</time>
      </trkpt>
      <trkpt lat="43.12202" lon="2.97391">
        <ele>102</ele>
        <time>2015-11-22T09:27:33Z</time>
      </trkpt>
      <trkpt lat="43.122" lon="2.97379">
        <ele>103</ele>
        <time>2015-11-22T09:27:37Z</time>
      </trkpt>
      <trkpt lat="43.12197" lon="2.9737">
        <ele>104</ele>
        <time>2015-11-22T09:27:43Z</time>
      </trkpt>
      <trkpt lat="43.12195" lon="2.97367">
        <ele>106</ele>
        <time>2015-11-22T09:27:49Z</time>
      </trkpt>
      <trkpt lat="43.12189" lon="2.97362">
        <ele>109</ele>
        <time>2015-11-22T09:27:56Z</time>
      </trkpt>
      <trkpt lat="43.12186" lon="2.97361">
        <ele>112</ele>
        <time>2015-11-22T09:28:01Z</time>
      </trkpt>
      <trkpt lat="43.12179" lon="2.97359">
        <ele>114</ele>
        <time>2015-11-22T09:28:07Z</time>
      </trkpt>
      <trkpt lat="43.12169" lon="2.9736">
        <ele>112</ele>
        <time>2015-11-22T09:28:13Z</time>
      </trkpt>
      <trkpt lat="43.12159" lon="2.97365">
        <ele>112</ele>
        <time>2015-11-22T09:28:22Z</time>
      </trkpt>
      <trkpt lat="43.1214" lon="2.97371">
        <ele>108</ele>
        <time>2015-11-22T09:28:30Z</time>
      </trkpt>
      <trkpt lat="43.12137" lon="2.97372">
        <ele>108</ele>
        <time>2015-11-22T09:28:31Z</time>
      </trkpt>
      <trkpt lat="43.1212" lon="2.97372">
        <ele>102</ele>
        <time>2015-11-22T09:28:37Z</time>
      </trkpt>
      <trkpt lat="43.12108" lon="2.97357">
        <ele>101</ele>
        <time>2015-11-22T09:28:43Z</time>
      </trkpt>
      <trkpt lat="43.12092" lon="2.97339">
        <ele>102</ele>
        <time>2015-11-22T09:28:50Z</time>
      </trkpt>
      <trkpt lat="43.12078" lon="2.97323">
        <ele>103</ele>
        <time>2015-11-22T09:28:56Z</time>
      </trkpt>
      <trkpt lat="43.12074" lon="2.97303">
        <ele>97</ele>
        <time>2015-11-22T09:29:01Z</time>
      </trkpt>
      <trkpt lat="43.12078" lon="2.97272">
        <ele>93</ele>
        <time>2015-11-22T09:29:08Z</time>
      </trkpt>
      <trkpt lat="43.1208" lon="2.9725">
        <ele>91</ele>
        <time>2015-11-22T09:29:13Z</time>
      </trkpt>
      <trkpt lat="43.12073" lon="2.97229">
        <ele>88</ele>
        <time>2015-11-22T09:29:19Z</time>
      </trkpt>
      <trkpt lat="43.12068" lon="2.97217">
        <ele>87</ele>
        <time>2015-11-22T09:29:26Z</time>
      </trkpt>
      <trkpt lat="43.12061" lon="2.97211">
        <ele>87</ele>
        <time>2015-11-22T09:29:32Z</time>
      </trkpt>
      <trkpt lat="43.12054" lon="2.97204">
        <ele>86</ele>
        <time>2015-11-22T09:29:37Z</time>
      </trkpt>
      <trkpt lat="43.12045" lon="2.97196">
        <ele>86</ele>
        <time>2015-11-22T09:29:42Z</time>
      </trkpt>
      <trkpt lat="43.1203" lon="2.97185">
        <ele>83</ele>
        <time>2015-11-22T09:29:47Z</time>
      </trkpt>
      <trkpt lat="43.12019" lon="2.97172">
        <ele>82</ele>
        <time>2015-11-22T09:29:52Z</time>
      </trkpt>
      <trkpt lat="43.12005" lon="2.97143">
        <ele>77</ele>
        <time>2015-11-22T09:30:02Z</time>
      </trkpt>
      <trkpt lat="43.12004" lon="2.9714">
        <ele>78</ele>
        <time>2015-11-22T09:30:07Z</time>
      </trkpt>
      <trkpt lat="43.12002" lon="2.97133">
        <ele>79</ele>
        <time>2015-11-22T09:30:11Z</time>
      </trkpt>
      <trkpt lat="43.11993" lon="2.97114">
        <ele>76</ele>
        <time>2015-11-22T09:30:16Z</time>
      </trkpt>
      <trkpt lat="43.11983" lon="2.97093">
        <ele>77</ele>
        <time>2015-11-22T09:30:22Z</time>
      </trkpt>
      <trkpt lat="43.1197" lon="2.97104">
        <ele>73</ele>
        <time>2015-11-22T09:30:29Z</time>
      </trkpt>
      <trkpt lat="43.11969" lon="2.97113">
        <ele>74</ele>
        <time>2015-11-22T09:30:34Z</time>
      </trkpt>
      <trkpt lat="43.11965" lon="2.97131">
        <ele>73</ele>
        <time>2015-11-22T09:30:39Z</time>
      </trkpt>
      <trkpt lat="43.1195" lon="2.97166">
        <ele>70</ele>
        <time>2015-11-22T09:30:49Z</time>
      </trkpt>
      <trkpt lat="43.11934" lon="2.97172">
        <ele>70</ele>
        <time>2015-11-22T09:30:54Z</time>
      </trkpt>
      <trkpt lat="43.11925" lon="2.97175">
        <ele>68</ele>
        <time>2015-11-22T09:30:57Z</time>
      </trkpt>
      <trkpt lat="43.11906" lon="2.9718">
        <ele>65</ele>
        <time>2015-11-22T09:31:03Z</time>
      </trkpt>
      <trkpt lat="43.11895" lon="2.97183">
        <ele>64</ele>
        <time>2015-11-22T09:31:09Z</time>
      </trkpt>
      <trkpt lat="43.11887" lon="2.97183">
        <ele>65</ele>
        <time>2015-11-22T09:31:15Z</time>
      </trkpt>
      <trkpt lat="43.11879" lon="2.97186">
        <ele>63</ele>
        <time>2015-11-22T09:31:20Z</time>
      </trkpt>
      <trkpt lat="43.11862" lon="2.97194">
        <ele>63</ele>
        <time>2015-11-22T09:31:26Z</time>
      </trkpt>
      <trkpt lat="43.1185" lon="2.97206">
        <ele>63</ele>
        <time>2015-11-22T09:31:31Z</time>
      </trkpt>
      <trkpt lat="43.11831" lon="2.97206">
        <ele>61</ele>
        <time>2015-11-22T09:31:37Z</time>
      </trkpt>
      <trkpt lat="43.11811" lon="2.97195">
        <ele>63</ele>
        <time>2015-11-22T09:31:45Z</time>
      </trkpt>
      <trkpt lat="43.11799" lon="2.97186">
        <ele>59</ele>
        <time>2015-11-22T09:31:49Z</time>
      </trkpt>
      <trkpt lat="43.11783" lon="2.97177">
        <ele>53</ele>
        <time>2015-11-22T09:31:54Z</time>
      </trkpt>
      <trkpt lat="43.11761" lon="2.97171">
        <ele>55</ele>
        <time>2015-11-22T09:32:02Z</time>
      </trkpt>
      <trkpt lat="43.11752" lon="2.97175">
        <ele>54</ele>
        <time>2015-11-22T09:32:05Z</time>
      </trkpt>
      <trkpt lat="43.11731" lon="2.97183">
        <ele>54</ele>
        <time>2015-11-22T09:32:13Z</time>
      </trkpt>
      <trkpt lat="43.11721" lon="2.97196">
        <ele>55</ele>
        <time>2015-11-22T09:32:18Z</time>
      </trkpt>
      <trkpt lat="43.11711" lon="2.97213">
        <ele>54</ele>
        <time>2015-11-22T09:32:23Z</time>
      </trkpt>
      <trkpt lat="43.11707" lon="2.9723">
        <ele>56</ele>
        <time>2015-11-22T09:32:28Z</time>
      </trkpt>
      <trkpt lat="43.11707" lon="2.97247">
        <ele>57</ele>
        <time>2015-11-22T09:32:34Z</time>
      </trkpt>
      <trkpt lat="43.11707" lon="2.97259">
        <ele>58</ele>
        <time>2015-11-22T09:32:43Z</time>
      </trkpt>
      <trkpt lat="43.11708" lon="2.97263">
        <ele>58</ele>
        <time>2015-11-22T09:32:46Z</time>
      </trkpt>
      <trkpt lat="43.1171" lon="2.97283">
        <ele>57</ele>
        <time>2015-11-22T09:32:52Z</time>
      </trkpt>
      <trkpt lat="43.11712" lon="2.97311">
        <ele>61</ele>
        <time>2015-11-22T09:33:03Z</time>
      </trkpt>
      <trkpt lat="43.11711" lon="2.97312">
        <ele>61</ele>
        <time>2015-11-22T09:33:04Z</time>
      </trkpt>
      <trkpt lat="43.11706" lon="2.97319">
        <ele>64</ele>
        <time>2015-11-22T09:33:09Z</time>
      </trkpt>
      <trkpt lat="43.11702" lon="2.97328">
        <ele>65</ele>
        <time>2015-11-22T09:33:15Z</time>
      </trkpt>
      <trkpt lat="43.11691" lon="2.97342">
        <ele>61</ele>
        <time>2015-11-22T09:33:21Z</time>
      </trkpt>
      <trkpt lat="43.11684" lon="2.97343">
        <ele>60</ele>
        <time>2015-11-22T09:33:27Z</time>
      </trkpt>
      <trkpt lat="43.11681" lon="2.97335">
        <ele>59</ele>
        <time>2015-11-22T09:33:33Z</time>
      </trkpt>
      <trkpt lat="43.1168" lon="2.97335">
        <ele>59</ele>
        <time>2015-11-22T09:33:39Z</time>
      </trkpt>
      <trkpt lat="43.11679" lon="2.97334">
        <ele>59</ele>
        <time>2015-11-22T09:33:45Z</time>
      </trkpt>
      <trkpt lat="43.11675" lon="2.97333">
        <ele>58</ele>
        <time>2015-11-22T09:33:51Z</time>
      </trkpt>
      <trkpt lat="43.11672" lon="2.97332">
        <ele>58</ele>
        <time>2015-11-22T09:33:57Z</time>
      </trkpt>
      <trkpt lat="43.11668" lon="2.97335">
        <ele>56</ele>
        <time>2015-11-22T09:34:02Z</time>
      </trkpt>
      <trkpt lat="43.11667" lon="2.97335">
        <ele>56</ele>
        <time>2015-11-22T09:34:08Z</time>
      </trkpt>
      <trkpt lat="43.11666" lon="2.97336">
        <ele>55</ele>
        <time>2015-11-22T09:34:14Z</time>
      </trkpt>
      <trkpt lat="43.11663" lon="2.97343">
        <ele>54</ele>
        <time>2015-11-22T09:34:20Z</time>
      </trkpt>
      <trkpt lat="43.11662" lon="2.97355">
        <ele>52</ele>
        <time>2015-11-22T09:34:26Z</time>
      </trkpt>
      <trkpt lat="43.11661" lon="2.97389">
        <ele>49</ele>
        <time>2015-11-22T09:34:37Z</time>
      </trkpt>
      <trkpt lat="43.11659" lon="2.97391">
        <ele>50</ele>
        <time>2015-11-22T09:34:38Z</time>
      </trkpt>
      <trkpt lat="43.11655" lon="2.9741">
        <ele>52</ele>
        <time>2015-11-22T09:34:44Z</time>
      </trkpt>
      <trkpt lat="43.11652" lon="2.97423">
        <ele>56</ele>
        <time>2015-11-22T09:34:49Z</time>
      </trkpt>
      <trkpt lat="43.11654" lon="2.97439">
        <ele>56</ele>
        <time>2015-11-22T09:34:55Z</time>
      </trkpt>
      <trkpt lat="43.11645" lon="2.97454">
        <ele>59</ele>
        <time>2015-11-22T09:35:03Z</time>
      </trkpt>
      <trkpt lat="43.11642" lon="2.97457">
        <ele>59</ele>
        <time>2015-11-22T09:35:07Z</time>
      </trkpt>
      <trkpt lat="43.11642" lon="2.97459">
        <ele>60</ele>
        <time>2015-11-22T09:35:12Z</time>
      </trkpt>
      <trkpt lat="43.11641" lon="2.97464">
        <ele>63</ele>
        <time>2015-11-22T09:35:18Z</time>
      </trkpt>
      <trkpt lat="43.11641" lon="2.97464">
        <ele>63</ele>
        <time>2015-11-22T09:35:24Z</time>
      </trkpt>
      <trkpt lat="43.1164" lon="2.97474">
        <ele>64</ele>
        <time>2015-11-22T09:35:29Z</time>
      </trkpt>
      <trkpt lat="43.11641" lon="2.9748">
        <ele>65</ele>
        <time>2015-11-22T09:35:37Z</time>
      </trkpt>
      <trkpt lat="43.1164" lon="2.97485">
        <ele>63</ele>
        <time>2015-11-22T09:35:41Z</time>
      </trkpt>
      <trkpt lat="43.11645" lon="2.97493">
        <ele>62</ele>
        <time>2015-11-22T09:35:46Z</time>
      </trkpt>
      <trkpt lat="43.11648" lon="2.97503">
        <ele>58</ele>
        <time>2015-11-22T09:35:52Z</time>
      </trkpt>
      <trkpt lat="43.11649" lon="2.97512">
        <ele>56</ele>
        <time>2015-11-22T09:35:58Z</time>
      </trkpt>
      <trkpt lat="43.11647" lon="2.97519">
        <ele>55</ele>
        <time>2015-11-22T09:36:04Z</time>
      </trkpt>
      <trkpt lat="43.11647" lon="2.9752">
        <ele>54</ele>
        <time>2015-11-22T09:36:09Z</time>
      </trkpt>
      <trkpt lat="43.11647" lon="2.97519">
        <ele>54</ele>
        <time>2015-11-22T09:36:14Z</time>
      </trkpt>
      <trkpt lat="43.11647" lon="2.97519">
        <ele>54</ele>
        <time>2015-11-22T09:36:23Z</time>
      </trkpt>
      <trkpt lat="43.11647" lon="2.97519">
        <ele>54</ele>
        <time>2015-11-22T09:36:25Z</time>
      </trkpt>
      <trkpt lat="43.11647" lon="2.97519">
        <ele>54</ele>
        <time>2015-11-22T09:36:31Z</time>
      </trkpt>
      <trkpt lat="43.11647" lon="2.97519">
        <ele>54</ele>
        <time>2015-11-22T09:36:37Z</time>
      </trkpt>
      <trkpt lat="43.11647" lon="2.97519">
        <ele>54</ele>
        <time>2015-11-22T09:36:43Z</time>
      </trkpt>
      <trkpt lat="43.11647" lon="2.97519">
        <ele>54</ele>
        <time>2015-11-22T09:36:49Z</time>
      </trkpt>
      <trkpt lat="43.11647" lon="2.97519">
        <ele>54</ele>
        <time>2015-11-22T09:36:55Z</time>
      </trkpt>
      <trkpt lat="43.11649" lon="2.97521">
        <ele>54</ele>
        <time>2015-11-22T09:37:01Z</time>
      </trkpt>
      <trkpt lat="43.11655" lon="2.97531">
        <ele>52</ele>
        <time>2015-11-22T09:37:07Z</time>
      </trkpt>
      <trkpt lat="43.11659" lon="2.97542">
        <ele>51</ele>
        <time>2015-11-22T09:37:13Z</time>
      </trkpt>
      <trkpt lat="43.11664" lon="2.97554">
        <ele>52</ele>
        <time>2015-11-22T09:37:18Z</time>
      </trkpt>
      <trkpt lat="43.11667" lon="2.97566">
        <ele>52</ele>
        <time>2015-11-22T09:37:24Z</time>
      </trkpt>
      <trkpt lat="43.11679" lon="2.97586">
        <ele>54</ele>
        <time>2015-11-22T09:37:32Z</time>
      </trkpt>
      <trkpt lat="43.11682" lon="2.97592">
        <ele>54</ele>
        <time>2015-11-22T09:37:36Z</time>
      </trkpt>
      <trkpt lat="43.11687" lon="2.976">
        <ele>58</ele>
        <time>2015-11-22T09:37:42Z</time>
      </trkpt>
      <trkpt lat="43.11702" lon="2.97615">
        <ele>56</ele>
        <time>2015-11-22T09:37:51Z</time>
      </trkpt>
      <trkpt lat="43.11704" lon="2.97616">
        <ele>56</ele>
        <time>2015-11-22T09:37:52Z</time>
      </trkpt>
      <trkpt lat="43.11713" lon="2.9762">
        <ele>54</ele>
        <time>2015-11-22T09:37:57Z</time>
      </trkpt>
      <trkpt lat="43.11721" lon="2.9762">
        <ele>57</ele>
        <time>2015-11-22T09:38:04Z</time>
      </trkpt>
      <trkpt lat="43.11727" lon="2.97612">
        <ele>56</ele>
        <time>2015-11-22T09:38:09Z</time>
      </trkpt>
      <trkpt lat="43.11728" lon="2.97613">
        <ele>57</ele>
        <time>2015-11-22T09:38:14Z</time>
      </trkpt>
      <trkpt lat="43.11728" lon="2.97613">
        <ele>57</ele>
        <time>2015-11-22T09:38:20Z</time>
      </trkpt>
      <trkpt lat="43.11733" lon="2.97603">
        <ele>60</ele>
        <time>2015-11-22T09:38:26Z</time>
      </trkpt>
      <trkpt lat="43.11741" lon="2.97588">
        <ele>63</ele>
        <time>2015-11-22T09:38:32Z</time>
      </trkpt>
      <trkpt lat="43.11745" lon="2.97584">
        <ele>60</ele>
        <time>2015-11-22T09:38:41Z</time>
      </trkpt>
      <trkpt lat="43.11749" lon="2.97583">
        <ele>60</ele>
        <time>2015-11-22T09:38:44Z</time>
      </trkpt>
      <trkpt lat="43.11761" lon="2.97579">
        <ele>60</ele>
        <time>2015-11-22T09:38:50Z</time>
      </trkpt>
      <trkpt lat="43.1177" lon="2.97571">
        <ele>61</ele>
        <time>2015-11-22T09:38:56Z</time>
      </trkpt>
      <trkpt lat="43.11773" lon="2.97566">
        <ele>63</ele>
        <time>2015-11-22T09:39:02Z</time>
      </trkpt>
      <trkpt lat="43.11776" lon="2.97562">
        <ele>62</ele>
        <time>2015-11-22T09:39:10Z</time>
      </trkpt>
      <trkpt lat="43.11784" lon="2.97552">
        <ele>61</ele>
        <time>2015-11-22T09:39:14Z</time>
      </trkpt>
      <trkpt lat="43.11797" lon="2.9755">
        <ele>61</ele>
        <time>2015-11-22T09:39:23Z</time>
      </trkpt>
      <trkpt lat="43.11802" lon="2.97552">
        <ele>61</ele>
        <time>2015-11-22T09:39:26Z</time>
      </trkpt>
      <trkpt lat="43.11807" lon="2.97547">
        <ele>64</ele>
        <time>2015-11-22T09:39:32Z</time>
      </trkpt>
      <trkpt lat="43.11812" lon="2.9754">
        <ele>63</ele>
        <time>2015-11-22T09:39:38Z</time>
      </trkpt>
      <trkpt lat="43.11815" lon="2.97536">
        <ele>66</ele>
        <time>2015-11-22T09:39:44Z</time>
      </trkpt>
      <trkpt lat="43.11818" lon="2.97532">
        <ele>65</ele>
        <time>2015-11-22T09:39:48Z</time>
      </trkpt>
      <trkpt lat="43.11827" lon="2.97527">
        <ele>64</ele>
        <time>2015-11-22T09:39:54Z</time>
      </trkpt>
      <trkpt lat="43.11842" lon="2.97534">
        <ele>65</ele>
        <time>2015-11-22T09:40:00Z</time>
      </trkpt>
      <trkpt lat="43.11857" lon="2.97539">
        <ele>64</ele>
        <time>2015-11-22T09:40:06Z</time>
      </trkpt>
      <trkpt lat="43.11872" lon="2.97549">
        <ele>61</ele>
        <time>2015-11-22T09:40:12Z</time>
      </trkpt>
      <trkpt lat="43.11882" lon="2.97551">
        <ele>61</ele>
        <time>2015-11-22T09:40:17Z</time>
      </trkpt>
      <trkpt lat="43.11897" lon="2.97554">
        <ele>60</ele>
        <time>2015-11-22T09:40:23Z</time>
      </trkpt>
      <trkpt lat="43.11911" lon="2.97555">
        <ele>56</ele>
        <time>2015-11-22T09:40:30Z</time>
      </trkpt>
      <trkpt lat="43.1192" lon="2.97554">
        <ele>56</ele>
        <time>2015-11-22T09:40:34Z</time>
      </trkpt>
      <trkpt lat="43.11929" lon="2.97557">
        <ele>55</ele>
        <time>2015-11-22T09:40:39Z</time>
      </trkpt>
      <trkpt lat="43.11939" lon="2.97567">
        <ele>55</ele>
        <time>2015-11-22T09:40:45Z</time>
      </trkpt>
      <trkpt lat="43.11953" lon="2.97562">
        <ele>53</ele>
        <time>2015-11-22T09:40:51Z</time>
      </trkpt>
      <trkpt lat="43.11963" lon="2.97551">
        <ele>55</ele>
        <time>2015-11-22T09:40:57Z</time>
      </trkpt>
      <trkpt lat="43.11974" lon="2.97539">
        <ele>56</ele>
        <time>2015-11-22T09:41:03Z</time>
      </trkpt>
      <trkpt lat="43.11977" lon="2.97527">
        <ele>58</ele>
        <time>2015-11-22T09:41:11Z</time>
      </trkpt>
      <trkpt lat="43.1198" lon="2.97527">
        <ele>58</ele>
        <time>2015-11-22T09:41:14Z</time>
      </trkpt>
      <trkpt lat="43.11981" lon="2.97527">
        <ele>59</ele>
        <time>2015-11-22T09:41:20Z</time>
      </trkpt>
      <trkpt lat="43.11982" lon="2.97527">
        <ele>59</ele>
        <time>2015-11-22T09:41:26Z</time>
      </trkpt>
      <trkpt lat="43.11982" lon="2.97527">
        <ele>59</ele>
        <time>2015-11-22T09:41:36Z</time>
      </trkpt>
      <trkpt lat="43.11982" lon="2.97527">
        <ele>59</ele>
        <time>2015-11-22T09:41:38Z</time>
      </trkpt>
      <trkpt lat="43.11981" lon="2.97526">
        <ele>59</ele>
        <time>2015-11-22T09:41:44Z</time>
      </trkpt>
      <trkpt lat="43.11981" lon="2.97526">
        <ele>59</ele>
        <time>2015-11-22T09:41:50Z</time>
      </trkpt>
      <trkpt lat="43.11988" lon="2.97535">
        <ele>60</ele>
        <time>2015-11-22T09:41:56Z</time>
      </trkpt>
      <trkpt lat="43.11992" lon="2.97548">
        <ele>58</ele>
        <time>2015-11-22T09:42:01Z</time>
      </trkpt>
      <trkpt lat="43.11999" lon="2.97563">
        <ele>58</ele>
        <time>2015-11-22T09:42:07Z</time>
      </trkpt>
      <trkpt lat="43.12007" lon="2.97574">
        <ele>59</ele>
        <time>2015-11-22T09:42:12Z</time>
      </trkpt>
      <trkpt lat="43.12014" lon="2.97588">
        <ele>59</ele>
        <time>2015-11-22T09:42:19Z</time>
      </trkpt>
      <trkpt lat="43.12017" lon="2.97612">
        <ele>64</ele>
        <time>2015-11-22T09:42:27Z</time>
      </trkpt>
      <trkpt lat="43.12019" lon="2.9762">
        <ele>64</ele>
        <time>2015-11-22T09:42:30Z</time>
      </trkpt>
      <trkpt lat="43.12022" lon="2.9763">
        <ele>65</ele>
        <time>2015-11-22T09:42:35Z</time>
      </trkpt>
      <trkpt lat="43.12025" lon="2.97641">
        <ele>67</ele>
        <time>2015-11-22T09:42:43Z</time>
      </trkpt>
      <trkpt lat="43.12026" lon="2.97647">
        <ele>68</ele>
        <time>2015-11-22T09:42:47Z</time>
      </trkpt>
      <trkpt lat="43.12024" lon="2.97656">
        <ele>67</ele>
        <time>2015-11-22T09:42:53Z</time>
      </trkpt>
      <trkpt lat="43.12025" lon="2.97664">
        <ele>66</ele>
        <time>2015-11-22T09:42:59Z</time>
      </trkpt>
      <trkpt lat="43.12028" lon="2.97671">
        <ele>68</ele>
        <time>2015-11-22T09:43:07Z</time>
      </trkpt>
      <trkpt lat="43.12029" lon="2.97675">
        <ele>69</ele>
        <time>2015-11-22T09:43:10Z</time>
      </trkpt>
      <trkpt lat="43.12032" lon="2.97682">
        <ele>73</ele>
        <time>2015-11-22T09:43:16Z</time>
      </trkpt>
      <trkpt lat="43.12035" lon="2.97693">
        <ele>71</ele>
        <time>2015-11-22T09:43:22Z</time>
      </trkpt>
      <trkpt lat="43.12036" lon="2.97699">
        <ele>71</ele>
        <time>2015-11-22T09:43:27Z</time>
      </trkpt>
      <trkpt lat="43.12038" lon="2.97705">
        <ele>71</ele>
        <time>2015-11-22T09:43:32Z</time>
      </trkpt>
      <trkpt lat="43.12038" lon="2.97705">
        <ele>71</ele>
        <time>2015-11-22T09:43:37Z</time>
      </trkpt>
      <trkpt lat="43.12038" lon="2.97706">
        <ele>70</ele>
        <time>2015-11-22T09:43:43Z</time>
      </trkpt>
      <trkpt lat="43.12041" lon="2.97709">
        <ele>70</ele>
        <time>2015-11-22T09:43:49Z</time>
      </trkpt>
      <trkpt lat="43.12044" lon="2.97714">
        <ele>71</ele>
        <time>2015-11-22T09:43:55Z</time>
      </trkpt>
      <trkpt lat="43.12047" lon="2.97718">
        <ele>70</ele>
        <time>2015-11-22T09:44:02Z</time>
      </trkpt>
      <trkpt lat="43.12047" lon="2.97717">
        <ele>71</ele>
        <time>2015-11-22T09:44:07Z</time>
      </trkpt>
      <trkpt lat="43.12047" lon="2.97716">
        <ele>71</ele>
        <time>2015-11-22T09:44:12Z</time>
      </trkpt>
      <trkpt lat="43.12047" lon="2.97716">
        <ele>71</ele>
        <time>2015-11-22T09:44:17Z</time>
      </trkpt>
      <trkpt lat="43.1205" lon="2.97722">
        <ele>70</ele>
        <time>2015-11-22T09:44:23Z</time>
      </trkpt>
      <trkpt lat="43.12055" lon="2.97725">
        <ele>71</ele>
        <time>2015-11-22T09:44:29Z</time>
      </trkpt>
      <trkpt lat="43.12059" lon="2.97727">
        <ele>74</ele>
        <time>2015-11-22T09:44:35Z</time>
      </trkpt>
      <trkpt lat="43.12061" lon="2.9773">
        <ele>73</ele>
        <time>2015-11-22T09:44:44Z</time>
      </trkpt>
      <trkpt lat="43.1206" lon="2.97735">
        <ele>74</ele>
        <time>2015-11-22T09:44:47Z</time>
      </trkpt>
      <trkpt lat="43.12056" lon="2.97739">
        <ele>74</ele>
        <time>2015-11-22T09:44:53Z</time>
      </trkpt>
      <trkpt lat="43.12056" lon="2.97742">
        <ele>74</ele>
        <time>2015-11-22T09:44:58Z</time>
      </trkpt>
      <trkpt lat="43.12056" lon="2.97747">
        <ele>73</ele>
        <time>2015-11-22T09:45:04Z</time>
      </trkpt>
      <trkpt lat="43.12052" lon="2.97752">
        <ele>69</ele>
        <time>2015-11-22T09:45:10Z</time>
      </trkpt>
      <trkpt lat="43.12056" lon="2.97758">
        <ele>70</ele>
        <time>2015-11-22T09:45:16Z</time>
      </trkpt>
      <trkpt lat="43.12061" lon="2.97764">
        <ele>68</ele>
        <time>2015-11-22T09:45:21Z</time>
      </trkpt>
      <trkpt lat="43.1206" lon="2.97768">
        <ele>69</ele>
        <time>2015-11-22T09:45:27Z</time>
      </trkpt>
      <trkpt lat="43.12061" lon="2.97772">
        <ele>67</ele>
        <time>2015-11-22T09:45:33Z</time>
      </trkpt>
      <trkpt lat="43.12062" lon="2.97776">
        <ele>64</ele>
        <time>2015-11-22T09:45:39Z</time>
      </trkpt>
      <trkpt lat="43.12059" lon="2.97776">
        <ele>64</ele>
        <time>2015-11-22T09:45:44Z</time>
      </trkpt>
      <trkpt lat="43.12054" lon="2.9778">
        <ele>63</ele>
        <time>2015-11-22T09:45:51Z</time>
      </trkpt>
      <trkpt lat="43.12051" lon="2.97786">
        <ele>64</ele>
        <time>2015-11-22T09:45:55Z</time>
      </trkpt>
      <trkpt lat="43.12051" lon="2.9779">
        <ele>63</ele>
        <time>2015-11-22T09:46:01Z</time>
      </trkpt>
      <trkpt lat="43.12052" lon="2.97794">
        <ele>61</ele>
        <time>2015-11-22T09:46:07Z</time>
      </trkpt>
      <trkpt lat="43.1206" lon="2.97795">
        <ele>62</ele>
        <time>2015-11-22T09:46:13Z</time>
      </trkpt>
      <trkpt lat="43.12065" lon="2.978">
        <ele>62</ele>
        <time>2015-11-22T09:46:20Z</time>
      </trkpt>
      <trkpt lat="43.12071" lon="2.97809">
        <ele>60</ele>
        <time>2015-11-22T09:46:25Z</time>
      </trkpt>
      <trkpt lat="43.12085" lon="2.97814">
        <ele>59</ele>
        <time>2015-11-22T09:46:33Z</time>
      </trkpt>
      <trkpt lat="43.12092" lon="2.97815">
        <ele>60</ele>
        <time>2015-11-22T09:46:38Z</time>
      </trkpt>
      <trkpt lat="43.12099" lon="2.97822">
        <ele>59</ele>
        <time>2015-11-22T09:46:44Z</time>
      </trkpt>
      <trkpt lat="43.12106" lon="2.97821">
        <ele>60</ele>
        <time>2015-11-22T09:46:48Z</time>
      </trkpt>
      <trkpt lat="43.12112" lon="2.97817">
        <ele>58</ele>
        <time>2015-11-22T09:46:54Z</time>
      </trkpt>
      <trkpt lat="43.12116" lon="2.97817">
        <ele>58</ele>
        <time>2015-11-22T09:46:59Z</time>
      </trkpt>
      <trkpt lat="43.12121" lon="2.97821">
        <ele>58</ele>
        <time>2015-11-22T09:47:05Z</time>
      </trkpt>
      <trkpt lat="43.12136" lon="2.97822">
        <ele>55</ele>
        <time>2015-11-22T09:47:16Z</time>
      </trkpt>
      <trkpt lat="43.12146" lon="2.97823">
        <ele>58</ele>
        <time>2015-11-22T09:47:22Z</time>
      </trkpt>
      <trkpt lat="43.12148" lon="2.97828">
        <ele>60</ele>
        <time>2015-11-22T09:47:24Z</time>
      </trkpt>
      <trkpt lat="43.12154" lon="2.9783">
        <ele>62</ele>
        <time>2015-11-22T09:47:29Z</time>
      </trkpt>
      <trkpt lat="43.12161" lon="2.97828">
        <ele>64</ele>
        <time>2015-11-22T09:47:35Z</time>
      </trkpt>
      <trkpt lat="43.12166" lon="2.97825">
        <ele>65</ele>
        <time>2015-11-22T09:47:41Z</time>
      </trkpt>
      <trkpt lat="43.12174" lon="2.97822">
        <ele>66</ele>
        <time>2015-11-22T09:47:50Z</time>
      </trkpt>
      <trkpt lat="43.12175" lon="2.97821">
        <ele>67</ele>
        <time>2015-11-22T09:47:53Z</time>
      </trkpt>
      <trkpt lat="43.12177" lon="2.9782">
        <ele>67</ele>
        <time>2015-11-22T09:47:59Z</time>
      </trkpt>
      <trkpt lat="43.12178" lon="2.9782">
        <ele>66</ele>
        <time>2015-11-22T09:48:05Z</time>
      </trkpt>
      <trkpt lat="43.12181" lon="2.97826">
        <ele>66</ele>
        <time>2015-11-22T09:48:13Z</time>
      </trkpt>
      <trkpt lat="43.12181" lon="2.97826">
        <ele>64</ele>
        <time>2015-11-22T09:48:17Z</time>
      </trkpt>
      <trkpt lat="43.12182" lon="2.97825">
        <ele>63</ele>
        <time>2015-11-22T09:48:23Z</time>
      </trkpt>
      <trkpt lat="43.12186" lon="2.97828">
        <ele>63</ele>
        <time>2015-11-22T09:48:31Z</time>
      </trkpt>
      <trkpt lat="43.12189" lon="2.97829">
        <ele>64</ele>
        <time>2015-11-22T09:48:35Z</time>
      </trkpt>
      <trkpt lat="43.12193" lon="2.97828">
        <ele>66</ele>
        <time>2015-11-22T09:48:41Z</time>
      </trkpt>
      <trkpt lat="43.122" lon="2.97825">
        <ele>67</ele>
        <time>2015-11-22T09:48:47Z</time>
      </trkpt>
      <trkpt lat="43.12201" lon="2.97823">
        <ele>62</ele>
        <time>2015-11-22T09:48:53Z</time>
      </trkpt>
      <trkpt lat="43.12208" lon="2.97824">
        <ele>64</ele>
        <time>2015-11-22T09:49:04Z</time>
      </trkpt>
      <trkpt lat="43.12208" lon="2.97824">
        <ele>64</ele>
        <time>2015-11-22T09:49:05Z</time>
      </trkpt>
      <trkpt lat="43.12215" lon="2.97824">
        <ele>63</ele>
        <time>2015-11-22T09:49:14Z</time>
      </trkpt>
      <trkpt lat="43.12216" lon="2.97824">
        <ele>62</ele>
        <time>2015-11-22T09:49:17Z</time>
      </trkpt>
      <trkpt lat="43.12218" lon="2.97827">
        <ele>61</ele>
        <time>2015-11-22T09:49:23Z</time>
      </trkpt>
      <trkpt lat="43.12218" lon="2.97833">
        <ele>62</ele>
        <time>2015-11-22T09:49:29Z</time>
      </trkpt>
      <trkpt lat="43.12219" lon="2.97839">
        <ele>63</ele>
        <time>2015-11-22T09:49:35Z</time>
      </trkpt>
      <trkpt lat="43.12224" lon="2.97835">
        <ele>62</ele>
        <time>2015-11-22T09:49:41Z</time>
      </trkpt>
      <trkpt lat="43.12227" lon="2.97838">
        <ele>65</ele>
        <time>2015-11-22T09:49:52Z</time>
      </trkpt>
      <trkpt lat="43.1223" lon="2.97843">
        <ele>67</ele>
        <time>2015-11-22T09:49:58Z</time>
      </trkpt>
      <trkpt lat="43.12231" lon="2.97844">
        <ele>69</ele>
        <time>2015-11-22T09:50:01Z</time>
      </trkpt>
      <trkpt lat="43.12233" lon="2.97846">
        <ele>71</ele>
        <time>2015-11-22T09:50:06Z</time>
      </trkpt>
      <trkpt lat="43.12235" lon="2.97845">
        <ele>72</ele>
        <time>2015-11-22T09:50:13Z</time>
      </trkpt>
      <trkpt lat="43.12236" lon="2.97846">
        <ele>72</ele>
        <time>2015-11-22T09:50:17Z</time>
      </trkpt>
      <trkpt lat="43.12236" lon="2.97849">
        <ele>73</ele>
        <time>2015-11-22T09:50:23Z</time>
      </trkpt>
      <trkpt lat="43.12236" lon="2.97856">
        <ele>72</ele>
        <time>2015-11-22T09:50:29Z</time>
      </trkpt>
      <trkpt lat="43.12237" lon="2.97856">
        <ele>74</ele>
        <time>2015-11-22T09:50:34Z</time>
      </trkpt>
      <trkpt lat="43.12239" lon="2.97858">
        <ele>74</ele>
        <time>2015-11-22T09:50:40Z</time>
      </trkpt>
      <trkpt lat="43.1224" lon="2.97861">
        <ele>74</ele>
        <time>2015-11-22T09:50:49Z</time>
      </trkpt>
      <trkpt lat="43.12241" lon="2.97862">
        <ele>75</ele>
        <time>2015-11-22T09:50:52Z</time>
      </trkpt>
      <trkpt lat="43.12242" lon="2.97868">
        <ele>75</ele>
        <time>2015-11-22T09:50:58Z</time>
      </trkpt>
      <trkpt lat="43.12242" lon="2.97874">
        <ele>75</ele>
        <time>2015-11-22T09:51:04Z</time>
      </trkpt>
      <trkpt lat="43.12242" lon="2.97877">
        <ele>75</ele>
        <time>2015-11-22T09:51:10Z</time>
      </trkpt>
      <trkpt lat="43.12241" lon="2.97883">
        <ele>75</ele>
        <time>2015-11-22T09:51:16Z</time>
      </trkpt>
      <trkpt lat="43.12242" lon="2.97886">
        <ele>77</ele>
        <time>2015-11-22T09:51:22Z</time>
      </trkpt>
      <trkpt lat="43.12246" lon="2.97892">
        <ele>76</ele>
        <time>2015-11-22T09:51:28Z</time>
      </trkpt>
      <trkpt lat="43.12248" lon="2.97894">
        <ele>77</ele>
        <time>2015-11-22T09:51:38Z</time>
      </trkpt>
      <trkpt lat="43.12249" lon="2.97893">
        <ele>77</ele>
        <time>2015-11-22T09:51:40Z</time>
      </trkpt>
      <trkpt lat="43.12253" lon="2.97893">
        <ele>77</ele>
        <time>2015-11-22T09:51:46Z</time>
      </trkpt>
      <trkpt lat="43.12266" lon="2.97891">
        <ele>79</ele>
        <time>2015-11-22T09:51:57Z</time>
      </trkpt>
      <trkpt lat="43.12266" lon="2.9789">
        <ele>79</ele>
        <time>2015-11-22T09:51:58Z</time>
      </trkpt>
      <trkpt lat="43.12271" lon="2.97894">
        <ele>80</ele>
        <time>2015-11-22T09:52:05Z</time>
      </trkpt>
      <trkpt lat="43.12277" lon="2.9789">
        <ele>81</ele>
        <time>2015-11-22T09:52:14Z</time>
      </trkpt>
      <trkpt lat="43.12281" lon="2.9789">
        <ele>81</ele>
        <time>2015-11-22T09:52:16Z</time>
      </trkpt>
      <trkpt lat="43.12284" lon="2.97891">
        <ele>81</ele>
        <time>2015-11-22T09:52:21Z</time>
      </trkpt>
      <trkpt lat="43.12293" lon="2.97889">
        <ele>86</ele>
        <time>2015-11-22T09:52:32Z</time>
      </trkpt>
      <trkpt lat="43.12293" lon="2.97888">
        <ele>87</ele>
        <time>2015-11-22T09:52:33Z</time>
      </trkpt>
      <trkpt lat="43.12294" lon="2.97886">
        <ele>88</ele>
        <time>2015-11-22T09:52:39Z</time>
      </trkpt>
      <trkpt lat="43.12297" lon="2.97885">
        <ele>86</ele>
        <time>2015-11-22T09:52:45Z</time>
      </trkpt>
      <trkpt lat="43.12302" lon="2.97886">
        <ele>87</ele>
        <time>2015-11-22T09:52:51Z</time>
      </trkpt>
      <trkpt lat="43.12306" lon="2.97886">
        <ele>90</ele>
        <time>2015-11-22T09:52:57Z</time>
      </trkpt>
      <trkpt lat="43.12315" lon="2.97877">
        <ele>89</ele>
        <time>2015-11-22T09:53:07Z</time>
      </trkpt>
      <trkpt lat="43.12315" lon="2.97879">
        <ele>89</ele>
        <time>2015-11-22T09:53:09Z</time>
      </trkpt>
      <trkpt lat="43.12321" lon="2.97883">
        <ele>87</ele>
        <time>2015-11-22T09:53:16Z</time>
      </trkpt>
      <trkpt lat="43.12326" lon="2.97881">
        <ele>88</ele>
        <time>2015-11-22T09:53:21Z</time>
      </trkpt>
      <trkpt lat="43.12327" lon="2.97881">
        <ele>90</ele>
        <time>2015-11-22T09:53:27Z</time>
      </trkpt>
      <trkpt lat="43.12329" lon="2.97884">
        <ele>90</ele>
        <time>2015-11-22T09:53:33Z</time>
      </trkpt>
      <trkpt lat="43.12331" lon="2.97885">
        <ele>91</ele>
        <time>2015-11-22T09:53:44Z</time>
      </trkpt>
      <trkpt lat="43.12331" lon="2.97885">
        <ele>91</ele>
        <time>2015-11-22T09:53:45Z</time>
      </trkpt>
      <trkpt lat="43.12335" lon="2.97888">
        <ele>91</ele>
        <time>2015-11-22T09:53:52Z</time>
      </trkpt>
      <trkpt lat="43.12339" lon="2.97888">
        <ele>90</ele>
        <time>2015-11-22T09:54:01Z</time>
      </trkpt>
      <trkpt lat="43.1234" lon="2.97888">
        <ele>90</ele>
        <time>2015-11-22T09:54:07Z</time>
      </trkpt>
      <trkpt lat="43.12339" lon="2.97888">
        <ele>92</ele>
        <time>2015-11-22T09:54:09Z</time>
      </trkpt>
      <trkpt lat="43.12338" lon="2.97888">
        <ele>92</ele>
        <time>2015-11-22T09:54:14Z</time>
      </trkpt>
      <trkpt lat="43.12338" lon="2.9789">
        <ele>96</ele>
        <time>2015-11-22T09:54:22Z</time>
      </trkpt>
      <trkpt lat="43.12336" lon="2.97888">
        <ele>98</ele>
        <time>2015-11-22T09:54:26Z</time>
      </trkpt>
      <trkpt lat="43.12335" lon="2.97887">
        <ele>101</ele>
        <time>2015-11-22T09:54:31Z</time>
      </trkpt>
      <trkpt lat="43.12333" lon="2.97889">
        <ele>98</ele>
        <time>2015-11-22T09:54:42Z</time>
      </trkpt>
      <trkpt lat="43.12333" lon="2.9789">
        <ele>97</ele>
        <time>2015-11-22T09:54:44Z</time>
      </trkpt>
      <trkpt lat="43.12333" lon="2.9789">
        <ele>95</ele>
        <time>2015-11-22T09:54:49Z</time>
      </trkpt>
      <trkpt lat="43.12336" lon="2.97894">
        <ele>98</ele>
        <time>2015-11-22T09:54:56Z</time>
      </trkpt>
      <trkpt lat="43.12339" lon="2.97895">
        <ele>98</ele>
        <time>2015-11-22T09:55:01Z</time>
      </trkpt>
      <trkpt lat="43.12344" lon="2.97907">
        <ele>98</ele>
        <time>2015-11-22T09:55:08Z</time>
      </trkpt>
      <trkpt lat="43.12345" lon="2.9791">
        <ele>96</ele>
        <time>2015-11-22T09:55:18Z</time>
      </trkpt>
      <trkpt lat="43.12346" lon="2.9791">
        <ele>96</ele>
        <time>2015-11-22T09:55:22Z</time>
      </trkpt>
      <trkpt lat="43.12346" lon="2.97911">
        <ele>96</ele>
        <time>2015-11-22T09:55:25Z</time>
      </trkpt>
      <trkpt lat="43.12345" lon="2.97916">
        <ele>96</ele>
        <time>2015-11-22T09:55:30Z</time>
      </trkpt>
      <trkpt lat="43.12337" lon="2.97924">
        <ele>96</ele>
        <time>2015-11-22T09:55:35Z</time>
      </trkpt>
      <trkpt lat="43.12331" lon="2.97929">
        <ele>94</ele>
        <time>2015-11-22T09:55:43Z</time>
      </trkpt>
      <trkpt lat="43.12329" lon="2.97929">
        <ele>94</ele>
        <time>2015-11-22T09:55:52Z</time>
      </trkpt>
      <trkpt lat="43.12329" lon="2.9793">
        <ele>93</ele>
        <time>2015-11-22T09:55:53Z</time>
      </trkpt>
      <trkpt lat="43.12329" lon="2.97929">
        <ele>93</ele>
        <time>2015-11-22T09:55:59Z</time>
      </trkpt>
      <trkpt lat="43.12335" lon="2.97926">
        <ele>93</ele>
        <time>2015-11-22T09:56:04Z</time>
      </trkpt>
      <trkpt lat="43.1235" lon="2.97913">
        <ele>94</ele>
        <time>2015-11-22T09:56:11Z</time>
      </trkpt>
      <trkpt lat="43.12351" lon="2.97913">
        <ele>95</ele>
        <time>2015-11-22T09:56:16Z</time>
      </trkpt>
      <trkpt lat="43.12351" lon="2.97911">
        <ele>92</ele>
        <time>2015-11-22T09:56:22Z</time>
      </trkpt>
      <trkpt lat="43.1235" lon="2.97909">
        <ele>93</ele>
        <time>2015-11-22T09:56:28Z</time>
      </trkpt>
      <trkpt lat="43.12342" lon="2.97893">
        <ele>90</ele>
        <time>2015-11-22T09:56:34Z</time>
      </trkpt>
      <trkpt lat="43.12339" lon="2.97876">
        <ele>86</ele>
        <time>2015-11-22T09:56:40Z</time>
      </trkpt>
      <trkpt lat="43.12335" lon="2.97866">
        <ele>89</ele>
        <time>2015-11-22T09:56:47Z</time>
      </trkpt>
      <trkpt lat="43.12339" lon="2.97853">
        <ele>90</ele>
        <time>2015-11-22T09:56:54Z</time>
      </trkpt>
      <trkpt lat="43.12338" lon="2.97845">
        <ele>92</ele>
        <time>2015-11-22T09:56:57Z</time>
      </trkpt>
      <trkpt lat="43.12335" lon="2.97837">
        <ele>93</ele>
        <time>2015-11-22T09:57:03Z</time>
      </trkpt>
      <trkpt lat="43.12334" lon="2.97834">
        <ele>92</ele>
        <time>2015-11-22T09:57:09Z</time>
      </trkpt>
      <trkpt lat="43.12325" lon="2.97811">
        <ele>92</ele>
        <time>2015-11-22T09:57:20Z</time>
      </trkpt>
      <trkpt lat="43.12324" lon="2.9781">
        <ele>92</ele>
        <time>2015-11-22T09:57:21Z</time>
      </trkpt>
      <trkpt lat="43.12325" lon="2.97805">
        <ele>93</ele>
        <time>2015-11-22T09:57:28Z</time>
      </trkpt>
      <trkpt lat="43.12328" lon="2.97806">
        <ele>94</ele>
        <time>2015-11-22T09:57:33Z</time>
      </trkpt>
      <trkpt lat="43.12328" lon="2.97805">
        <ele>95</ele>
        <time>2015-11-22T09:57:40Z</time>
      </trkpt>
      <trkpt lat="43.12331" lon="2.978">
        <ele>97</ele>
        <time>2015-11-22T09:57:45Z</time>
      </trkpt>
      <trkpt lat="43.12332" lon="2.978">
        <ele>97</ele>
        <time>2015-11-22T09:57:55Z</time>
      </trkpt>
      <trkpt lat="43.12333" lon="2.978">
        <ele>99</ele>
        <time>2015-11-22T09:57:57Z</time>
      </trkpt>
      <trkpt lat="43.12333" lon="2.978">
        <ele>99</ele>
        <time>2015-11-22T09:58:04Z</time>
      </trkpt>
      <trkpt lat="43.12333" lon="2.978">
        <ele>99</ele>
        <time>2015-11-22T09:58:14Z</time>
      </trkpt>
      <trkpt lat="43.12333" lon="2.97798">
        <ele>99</ele>
        <time>2015-11-22T09:58:15Z</time>
      </trkpt>
      <trkpt lat="43.12343" lon="2.97789">
        <ele>104</ele>
        <time>2015-11-22T09:58:21Z</time>
      </trkpt>
      <trkpt lat="43.12357" lon="2.97778">
        <ele>106</ele>
        <time>2015-11-22T09:58:27Z</time>
      </trkpt>
      <trkpt lat="43.1237" lon="2.97772">
        <ele>106</ele>
        <time>2015-11-22T09:58:35Z</time>
      </trkpt>
      <trkpt lat="43.12374" lon="2.97766">
        <ele>109</ele>
        <time>2015-11-22T09:58:44Z</time>
      </trkpt>
      <trkpt lat="43.12374" lon="2.97765">
        <ele>109</ele>
        <time>2015-11-22T09:58:45Z</time>
      </trkpt>
      <trkpt lat="43.12374" lon="2.97752">
        <ele>110</ele>
        <time>2015-11-22T09:58:51Z</time>
      </trkpt>
      <trkpt lat="43.1238" lon="2.9772">
        <ele>107</ele>
        <time>2015-11-22T09:58:59Z</time>
      </trkpt>
      <trkpt lat="43.12383" lon="2.97712">
        <ele>107</ele>
        <time>2015-11-22T09:59:03Z</time>
      </trkpt>
      <trkpt lat="43.12384" lon="2.97713">
        <ele>108</ele>
        <time>2015-11-22T09:59:09Z</time>
      </trkpt>
      <trkpt lat="43.12382" lon="2.97713">
        <ele>109</ele>
        <time>2015-11-22T09:59:15Z</time>
      </trkpt>
      <trkpt lat="43.12383" lon="2.97713">
        <ele>109</ele>
        <time>2015-11-22T09:59:21Z</time>
      </trkpt>
      <trkpt lat="43.12383" lon="2.97713">
        <ele>109</ele>
        <time>2015-11-22T09:59:27Z</time>
      </trkpt>
      <trkpt lat="43.12385" lon="2.97701">
        <ele>109</ele>
        <time>2015-11-22T09:59:33Z</time>
      </trkpt>
      <trkpt lat="43.12392" lon="2.97679">
        <ele>111</ele>
        <time>2015-11-22T09:59:39Z</time>
      </trkpt>
      <trkpt lat="43.12398" lon="2.97657">
        <ele>112</ele>
        <time>2015-11-22T09:59:45Z</time>
      </trkpt>
      <trkpt lat="43.12404" lon="2.97635">
        <ele>112</ele>
        <time>2015-11-22T09:59:51Z</time>
      </trkpt>
      <trkpt lat="43.12409" lon="2.97616">
        <ele>113</ele>
        <time>2015-11-22T09:59:57Z</time>
      </trkpt>
      <trkpt lat="43.12411" lon="2.97596">
        <ele>114</ele>
        <time>2015-11-22T10:00:03Z</time>
      </trkpt>
      <trkpt lat="43.12411" lon="2.97579">
        <ele>115</ele>
        <time>2015-11-22T10:00:09Z</time>
      </trkpt>
      <trkpt lat="43.12411" lon="2.97571">
        <ele>114</ele>
        <time>2015-11-22T10:00:15Z</time>
      </trkpt>
      <trkpt lat="43.12415" lon="2.97562">
        <ele>110</ele>
        <time>2015-11-22T10:00:21Z</time>
      </trkpt>
      <trkpt lat="43.1242" lon="2.97556">
        <ele>108</ele>
        <time>2015-11-22T10:00:27Z</time>
      </trkpt>
      <trkpt lat="43.12424" lon="2.97561">
        <ele>105</ele>
        <time>2015-11-22T10:00:33Z</time>
      </trkpt>
      <trkpt lat="43.12427" lon="2.97568">
        <ele>104</ele>
        <time>2015-11-22T10:00:39Z</time>
      </trkpt>
      <trkpt lat="43.12431" lon="2.97576">
        <ele>104</ele>
        <time>2015-11-22T10:00:45Z</time>
      </trkpt>
      <trkpt lat="43.12436" lon="2.9758">
        <ele>104</ele>
        <time>2015-11-22T10:00:51Z</time>
      </trkpt>
      <trkpt lat="43.12443" lon="2.97585">
        <ele>104</ele>
        <time>2015-11-22T10:00:57Z</time>
      </trkpt>
      <trkpt lat="43.12445" lon="2.97584">
        <ele>104</ele>
        <time>2015-11-22T10:01:03Z</time>
      </trkpt>
      <trkpt lat="43.12449" lon="2.97585">
        <ele>103</ele>
        <time>2015-11-22T10:01:09Z</time>
      </trkpt>
      <trkpt lat="43.12457" lon="2.97589">
        <ele>103</ele>
        <time>2015-11-22T10:01:15Z</time>
      </trkpt>
      <trkpt lat="43.12473" lon="2.97597">
        <ele>104</ele>
        <time>2015-11-22T10:01:21Z</time>
      </trkpt>
      <trkpt lat="43.12488" lon="2.97603">
        <ele>106</ele>
        <time>2015-11-22T10:01:27Z</time>
      </trkpt>
      <trkpt lat="43.12495" lon="2.97609">
        <ele>107</ele>
        <time>2015-11-22T10:01:33Z</time>
      </trkpt>
      <trkpt lat="43.12495" lon="2.97609">
        <ele>108</ele>
        <time>2015-11-22T10:01:39Z</time>
      </trkpt>
      <trkpt lat="43.12494" lon="2.97608">
        <ele>108</ele>
        <time>2015-11-22T10:01:45Z</time>
      </trkpt>
      <trkpt lat="43.12495" lon="2.97609">
        <ele>108</ele>
        <time>2015-11-22T10:01:51Z</time>
      </trkpt>
      <trkpt lat="43.12495" lon="2.97609">
        <ele>107</ele>
        <time>2015-11-22T10:01:57Z</time>
      </trkpt>
      <trkpt lat="43.12494" lon="2.9761">
        <ele>108</ele>
        <time>2015-11-22T10:02:03Z</time>
      </trkpt>
      <trkpt lat="43.12495" lon="2.9761">
        <ele>108</ele>
        <time>2015-11-22T10:02:10Z</time>
      </trkpt>
      <trkpt lat="43.12488" lon="2.97615">
        <ele>109</ele>
        <time>2015-11-22T10:02:15Z</time>
      </trkpt>
      <trkpt lat="43.12473" lon="2.97632">
        <ele>107</ele>
        <time>2015-11-22T10:02:21Z</time>
      </trkpt>
      <trkpt lat="43.12457" lon="2.97648">
        <ele>102</ele>
        <time>2015-11-22T10:02:27Z</time>
      </trkpt>
      <trkpt lat="43.12447" lon="2.9767">
        <ele>101</ele>
        <time>2015-11-22T10:02:33Z</time>
      </trkpt>
      <trkpt lat="43.12441" lon="2.97694">
        <ele>101</ele>
        <time>2015-11-22T10:02:39Z</time>
      </trkpt>
      <trkpt lat="43.12437" lon="2.97719">
        <ele>101</ele>
        <time>2015-11-22T10:02:46Z</time>
      </trkpt>
      <trkpt lat="43.12435" lon="2.97744">
        <ele>101</ele>
        <time>2015-11-22T10:02:51Z</time>
      </trkpt>
      <trkpt lat="43.12442" lon="2.97747">
        <ele>102</ele>
        <time>2015-11-22T10:02:57Z</time>
      </trkpt>
      <trkpt lat="43.12453" lon="2.97741">
        <ele>104</ele>
        <time>2015-11-22T10:03:03Z</time>
      </trkpt>
      <trkpt lat="43.1246" lon="2.9775">
        <ele>104</ele>
        <time>2015-11-22T10:03:10Z</time>
      </trkpt>
      <trkpt lat="43.12471" lon="2.97766">
        <ele>105</ele>
        <time>2015-11-22T10:03:15Z</time>
      </trkpt>
      <trkpt lat="43.12483" lon="2.97778">
        <ele>105</ele>
        <time>2015-11-22T10:03:21Z</time>
      </trkpt>
      <trkpt lat="43.12494" lon="2.9779">
        <ele>106</ele>
        <time>2015-11-22T10:03:28Z</time>
      </trkpt>
      <trkpt lat="43.12507" lon="2.978">
        <ele>105</ele>
        <time>2015-11-22T10:03:33Z</time>
      </trkpt>
      <trkpt lat="43.12517" lon="2.97807">
        <ele>104</ele>
        <time>2015-11-22T10:03:38Z</time>
      </trkpt>
      <trkpt lat="43.12523" lon="2.97811">
        <ele>104</ele>
        <time>2015-11-22T10:03:43Z</time>
      </trkpt>
      <trkpt lat="43.12528" lon="2.97818">
        <ele>104</ele>
        <time>2015-11-22T10:03:49Z</time>
      </trkpt>
      <trkpt lat="43.12537" lon="2.97822">
        <ele>102</ele>
        <time>2015-11-22T10:03:55Z</time>
      </trkpt>
      <trkpt lat="43.12548" lon="2.97837">
        <ele>103</ele>
        <time>2015-11-22T10:04:01Z</time>
      </trkpt>
      <trkpt lat="43.12561" lon="2.97855">
        <ele>103</ele>
        <time>2015-11-22T10:04:06Z</time>
      </trkpt>
      <trkpt lat="43.12576" lon="2.97863">
        <ele>100</ele>
        <time>2015-11-22T10:04:11Z</time>
      </trkpt>
      <trkpt lat="43.12594" lon="2.9787">
        <ele>101</ele>
        <time>2015-11-22T10:04:18Z</time>
      </trkpt>
      <trkpt lat="43.12606" lon="2.97876">
        <ele>99</ele>
        <time>2015-11-22T10:04:22Z</time>
      </trkpt>
      <trkpt lat="43.1262" lon="2.97888">
        <ele>99</ele>
        <time>2015-11-22T10:04:28Z</time>
      </trkpt>
      <trkpt lat="43.12635" lon="2.97901">
        <ele>97</ele>
        <time>2015-11-22T10:04:34Z</time>
      </trkpt>
      <trkpt lat="43.12644" lon="2.97909">
        <ele>97</ele>
        <time>2015-11-22T10:04:40Z</time>
      </trkpt>
      <trkpt lat="43.12644" lon="2.97909">
        <ele>98</ele>
        <time>2015-11-22T10:04:46Z</time>
      </trkpt>
      <trkpt lat="43.12651" lon="2.97897">
        <ele>98</ele>
        <time>2015-11-22T10:04:52Z</time>
      </trkpt>
      <trkpt lat="43.12658" lon="2.97893">
        <ele>100</ele>
        <time>2015-11-22T10:04:59Z</time>
      </trkpt>
      <trkpt lat="43.12667" lon="2.979">
        <ele>99</ele>
        <time>2015-11-22T10:05:04Z</time>
      </trkpt>
      <trkpt lat="43.12679" lon="2.97913">
        <ele>100</ele>
        <time>2015-11-22T10:05:11Z</time>
      </trkpt>
      <trkpt lat="43.12689" lon="2.97916">
        <ele>98</ele>
        <time>2015-11-22T10:05:16Z</time>
      </trkpt>
      <trkpt lat="43.12703" lon="2.97928">
        <ele>96</ele>
        <time>2015-11-22T10:05:22Z</time>
      </trkpt>
      <trkpt lat="43.1272" lon="2.97942">
        <ele>94</ele>
        <time>2015-11-22T10:05:33Z</time>
      </trkpt>
      <trkpt lat="43.12721" lon="2.97942">
        <ele>94</ele>
        <time>2015-11-22T10:05:34Z</time>
      </trkpt>
      <trkpt lat="43.12722" lon="2.97942">
        <ele>92</ele>
        <time>2015-11-22T10:05:40Z</time>
      </trkpt>
      <trkpt lat="43.12722" lon="2.97942">
        <ele>91</ele>
        <time>2015-11-22T10:05:45Z</time>
      </trkpt>
      <trkpt lat="43.1273" lon="2.97945">
        <ele>92</ele>
        <time>2015-11-22T10:05:51Z</time>
      </trkpt>
      <trkpt lat="43.12739" lon="2.97949">
        <ele>91</ele>
        <time>2015-11-22T10:05:58Z</time>
      </trkpt>
      <trkpt lat="43.12752" lon="2.97958">
        <ele>87</ele>
        <time>2015-11-22T10:06:03Z</time>
      </trkpt>
      <trkpt lat="43.12763" lon="2.97963">
        <ele>88</ele>
        <time>2015-11-22T10:06:08Z</time>
      </trkpt>
      <trkpt lat="43.12776" lon="2.97964">
        <ele>84</ele>
        <time>2015-11-22T10:06:14Z</time>
      </trkpt>
      <trkpt lat="43.12791" lon="2.97952">
        <ele>81</ele>
        <time>2015-11-22T10:06:24Z</time>
      </trkpt>
      <trkpt lat="43.12794" lon="2.9795">
        <ele>83</ele>
        <time>2015-11-22T10:06:26Z</time>
      </trkpt>
      <trkpt lat="43.12806" lon="2.97932">
        <ele>83</ele>
        <time>2015-11-22T10:06:37Z</time>
      </trkpt>
      <trkpt lat="43.12812" lon="2.97919">
        <ele>84</ele>
        <time>2015-11-22T10:06:40Z</time>
      </trkpt>
      <trkpt lat="43.12816" lon="2.97904">
        <ele>84</ele>
        <time>2015-11-22T10:06:44Z</time>
      </trkpt>
      <trkpt lat="43.12821" lon="2.97882">
        <ele>78</ele>
        <time>2015-11-22T10:06:55Z</time>
      </trkpt>
      <trkpt lat="43.12822" lon="2.97874">
        <ele>79</ele>
        <time>2015-11-22T10:06:59Z</time>
      </trkpt>
      <trkpt lat="43.12827" lon="2.9787">
        <ele>77</ele>
        <time>2015-11-22T10:07:03Z</time>
      </trkpt>
      <trkpt lat="43.12839" lon="2.97873">
        <ele>74</ele>
        <time>2015-11-22T10:07:08Z</time>
      </trkpt>
      <trkpt lat="43.12851" lon="2.97868">
        <ele>74</ele>
        <time>2015-11-22T10:07:14Z</time>
      </trkpt>
      <trkpt lat="43.12859" lon="2.97861">
        <ele>72</ele>
        <time>2015-11-22T10:07:20Z</time>
      </trkpt>
      <trkpt lat="43.12871" lon="2.97863">
        <ele>71</ele>
        <time>2015-11-22T10:07:26Z</time>
      </trkpt>
      <trkpt lat="43.12874" lon="2.97856">
        <ele>63</ele>
        <time>2015-11-22T10:07:33Z</time>
      </trkpt>
      <trkpt lat="43.12877" lon="2.97857">
        <ele>62</ele>
        <time>2015-11-22T10:07:37Z</time>
      </trkpt>
      <trkpt lat="43.12893" lon="2.97861">
        <ele>61</ele>
        <time>2015-11-22T10:07:43Z</time>
      </trkpt>
      <trkpt lat="43.12922" lon="2.97889">
        <ele>59</ele>
        <time>2015-11-22T10:07:54Z</time>
      </trkpt>
      <trkpt lat="43.12929" lon="2.97912">
        <ele>61</ele>
        <time>2015-11-22T10:08:00Z</time>
      </trkpt>
      <trkpt lat="43.12934" lon="2.97929">
        <ele>60</ele>
        <time>2015-11-22T10:08:04Z</time>
      </trkpt>
      <trkpt lat="43.12944" lon="2.97942">
        <ele>60</ele>
        <time>2015-11-22T10:08:07Z</time>
      </trkpt>
      <trkpt lat="43.12961" lon="2.97961">
        <ele>56</ele>
        <time>2015-11-22T10:08:13Z</time>
      </trkpt>
      <trkpt lat="43.12986" lon="2.97981">
        <ele>53</ele>
        <time>2015-11-22T10:08:21Z</time>
      </trkpt>
      <trkpt lat="43.12991" lon="2.97985">
        <ele>54</ele>
        <time>2015-11-22T10:08:24Z</time>
      </trkpt>
      <trkpt lat="43.12998" lon="2.97987">
        <ele>53</ele>
        <time>2015-11-22T10:08:32Z</time>
      </trkpt>
      <trkpt lat="43.13" lon="2.97988">
        <ele>52</ele>
        <time>2015-11-22T10:08:36Z</time>
      </trkpt>
      <trkpt lat="43.13001" lon="2.97987">
        <ele>52</ele>
        <time>2015-11-22T10:08:42Z</time>
      </trkpt>
      <trkpt lat="43.13001" lon="2.97987">
        <ele>52</ele>
        <time>2015-11-22T10:08:48Z</time>
      </trkpt>
      <trkpt lat="43.13013" lon="2.97989">
        <ele>49</ele>
        <time>2015-11-22T10:08:54Z</time>
      </trkpt>
      <trkpt lat="43.13034" lon="2.98005">
        <ele>51</ele>
        <time>2015-11-22T10:09:02Z</time>
      </trkpt>
      <trkpt lat="43.13044" lon="2.98013">
        <ele>54</ele>
        <time>2015-11-22T10:09:06Z</time>
      </trkpt>
      <trkpt lat="43.13057" lon="2.98015">
        <ele>57</ele>
        <time>2015-11-22T10:09:12Z</time>
      </trkpt>
      <trkpt lat="43.1307" lon="2.9801">
        <ele>58</ele>
        <time>2015-11-22T10:09:18Z</time>
      </trkpt>
      <trkpt lat="43.1308" lon="2.98013">
        <ele>61</ele>
        <time>2015-11-22T10:09:24Z</time>
      </trkpt>
      <trkpt lat="43.13092" lon="2.98014">
        <ele>63</ele>
        <time>2015-11-22T10:09:30Z</time>
      </trkpt>
      <trkpt lat="43.13104" lon="2.98001">
        <ele>60</ele>
        <time>2015-11-22T10:09:36Z</time>
      </trkpt>
      <trkpt lat="43.13115" lon="2.9799">
        <ele>57</ele>
        <time>2015-11-22T10:09:42Z</time>
      </trkpt>
      <trkpt lat="43.13124" lon="2.97978">
        <ele>55</ele>
        <time>2015-11-22T10:09:48Z</time>
      </trkpt>
      <trkpt lat="43.13142" lon="2.97959">
        <ele>56</ele>
        <time>2015-11-22T10:09:56Z</time>
      </trkpt>
      <trkpt lat="43.1315" lon="2.97949">
        <ele>55</ele>
        <time>2015-11-22T10:10:00Z</time>
      </trkpt>
      <trkpt lat="43.13166" lon="2.97928">
        <ele>53</ele>
        <time>2015-11-22T10:10:08Z</time>
      </trkpt>
      <trkpt lat="43.13173" lon="2.97919">
        <ele>53</ele>
        <time>2015-11-22T10:10:12Z</time>
      </trkpt>
      <trkpt lat="43.13181" lon="2.97903">
        <ele>54</ele>
        <time>2015-11-22T10:10:22Z</time>
      </trkpt>
      <trkpt lat="43.13181" lon="2.97903">
        <ele>54</ele>
        <time>2015-11-22T10:10:24Z</time>
      </trkpt>
      <trkpt lat="43.13181" lon="2.979">
        <ele>53</ele>
        <time>2015-11-22T10:10:30Z</time>
      </trkpt>
      <trkpt lat="43.13188" lon="2.97884">
        <ele>50</ele>
        <time>2015-11-22T10:10:36Z</time>
      </trkpt>
      <trkpt lat="43.13184" lon="2.97861">
        <ele>47</ele>
        <time>2015-11-22T10:10:42Z</time>
      </trkpt>
      <trkpt lat="43.13182" lon="2.97834">
        <ele>46</ele>
        <time>2015-11-22T10:10:49Z</time>
      </trkpt>
      <trkpt lat="43.1317" lon="2.97821">
        <ele>43</ele>
        <time>2015-11-22T10:10:54Z</time>
      </trkpt>
      <trkpt lat="43.13158" lon="2.97808">
        <ele>45</ele>
        <time>2015-11-22T10:10:59Z</time>
      </trkpt>
      <trkpt lat="43.13145" lon="2.97794">
        <ele>46</ele>
        <time>2015-11-22T10:11:05Z</time>
      </trkpt>
      <trkpt lat="43.13134" lon="2.97781">
        <ele>44</ele>
        <time>2015-11-22T10:11:10Z</time>
      </trkpt>
      <trkpt lat="43.1312" lon="2.97761">
        <ele>38</ele>
        <time>2015-11-22T10:11:18Z</time>
      </trkpt>
      <trkpt lat="43.1311" lon="2.97756">
        <ele>36</ele>
        <time>2015-11-22T10:11:22Z</time>
      </trkpt>
      <trkpt lat="43.13106" lon="2.97735">
        <ele>38</ele>
        <time>2015-11-22T10:11:28Z</time>
      </trkpt>
      <trkpt lat="43.13114" lon="2.9772">
        <ele>37</ele>
        <time>2015-11-22T10:11:34Z</time>
      </trkpt>
      <trkpt lat="43.13122" lon="2.97704">
        <ele>35</ele>
        <time>2015-11-22T10:11:40Z</time>
      </trkpt>
      <trkpt lat="43.13118" lon="2.97684">
        <ele>33</ele>
        <time>2015-11-22T10:11:48Z</time>
      </trkpt>
      <trkpt lat="43.13114" lon="2.97663">
        <ele>32</ele>
        <time>2015-11-22T10:11:54Z</time>
      </trkpt>
      <trkpt lat="43.13108" lon="2.97651">
        <ele>30</ele>
        <time>2015-11-22T10:11:58Z</time>
      </trkpt>
      <trkpt lat="43.13105" lon="2.97636">
        <ele>34</ele>
        <time>2015-11-22T10:12:04Z</time>
      </trkpt>
      <trkpt lat="43.131" lon="2.9762">
        <ele>28</ele>
        <time>2015-11-22T10:12:11Z</time>
      </trkpt>
      <trkpt lat="43.131" lon="2.97609">
        <ele>29</ele>
        <time>2015-11-22T10:12:16Z</time>
      </trkpt>
      <trkpt lat="43.13102" lon="2.97581">
        <ele>28</ele>
        <time>2015-11-22T10:12:22Z</time>
      </trkpt>
      <trkpt lat="43.13109" lon="2.97554">
        <ele>31</ele>
        <time>2015-11-22T10:12:28Z</time>
      </trkpt>
      <trkpt lat="43.13117" lon="2.97537">
        <ele>36</ele>
        <time>2015-11-22T10:12:34Z</time>
      </trkpt>
      <trkpt lat="43.13126" lon="2.97516">
        <ele>32</ele>
        <time>2015-11-22T10:12:39Z</time>
      </trkpt>
      <trkpt lat="43.13143" lon="2.97506">
        <ele>31</ele>
        <time>2015-11-22T10:12:46Z</time>
      </trkpt>
      <trkpt lat="43.1317" lon="2.97504">
        <ele>30</ele>
        <time>2015-11-22T10:12:54Z</time>
      </trkpt>
      <trkpt lat="43.13184" lon="2.97503">
        <ele>28</ele>
        <time>2015-11-22T10:12:58Z</time>
      </trkpt>
      <trkpt lat="43.13197" lon="2.97496">
        <ele>25</ele>
        <time>2015-11-22T10:13:03Z</time>
      </trkpt>
      <trkpt lat="43.13214" lon="2.97492">
        <ele>21</ele>
        <time>2015-11-22T10:13:08Z</time>
      </trkpt>
      <trkpt lat="43.13231" lon="2.9749">
        <ele>18</ele>
        <time>2015-11-22T10:13:13Z</time>
      </trkpt>
      <trkpt lat="43.13263" lon="2.97485">
        <ele>15</ele>
        <time>2015-11-22T10:13:23Z</time>
      </trkpt>
      <trkpt lat="43.13267" lon="2.97483">
        <ele>14</ele>
        <time>2015-11-22T10:13:25Z</time>
      </trkpt>
      <trkpt lat="43.13283" lon="2.97478">
        <ele>13</ele>
        <time>2015-11-22T10:13:30Z</time>
      </trkpt>
      <trkpt lat="43.13301" lon="2.97475">
        <ele>13</ele>
        <time>2015-11-22T10:13:36Z</time>
      </trkpt>
      <trkpt lat="43.1332" lon="2.97473">
        <ele>10</ele>
        <time>2015-11-22T10:13:42Z</time>
      </trkpt>
      <trkpt lat="43.13337" lon="2.97469">
        <ele>8</ele>
        <time>2015-11-22T10:13:48Z</time>
      </trkpt>
      <trkpt lat="43.13358" lon="2.9747">
        <ele>6</ele>
        <time>2015-11-22T10:13:54Z</time>
      </trkpt>
      <trkpt lat="43.13373" lon="2.97473">
        <ele>7</ele>
        <time>2015-11-22T10:14:00Z</time>
      </trkpt>
      <trkpt lat="43.13385" lon="2.97479">
        <ele>7</ele>
        <time>2015-11-22T10:14:06Z</time>
      </trkpt>
      <trkpt lat="43.13389" lon="2.97475">
        <ele>3</ele>
        <time>2015-11-22T10:14:12Z</time>
      </trkpt>
      <trkpt lat="43.13394" lon="2.97469">
        <ele>5</ele>
        <time>2015-11-22T10:14:18Z</time>
      </trkpt>
      <trkpt lat="43.13393" lon="2.97471">
        <ele>5</ele>
        <time>2015-11-22T10:14:24Z</time>
      </trkpt>
      <trkpt lat="43.13395" lon="2.97472">
        <ele>4</ele>
        <time>2015-11-22T10:14:31Z</time>
      </trkpt>
      <trkpt lat="43.13396" lon="2.97475">
        <ele>8</ele>
        <time>2015-11-22T10:14:36Z</time>
      </trkpt>
      <trkpt lat="43.13393" lon="2.97473">
        <ele>10</ele>
        <time>2015-11-22T10:14:41Z</time>
      </trkpt>
      <trkpt lat="43.13394" lon="2.9747">
        <ele>10</ele>
        <time>2015-11-22T10:14:47Z</time>
      </trkpt>
      <trkpt lat="43.13395" lon="2.9747">
        <ele>8</ele>
        <time>2015-11-22T10:14:55Z</time>
      </trkpt>
      <trkpt lat="43.13395" lon="2.9747">
        <ele>8</ele>
        <time>2015-11-22T10:14:58Z</time>
      </trkpt>
      <trkpt lat="43.13395" lon="2.9747">
        <ele>9</ele>
        <time>2015-11-22T10:15:03Z</time>
      </trkpt>
      <trkpt lat="43.13396" lon="2.97473">
        <ele>10</ele>
        <time>2015-11-22T10:15:09Z</time>
      </trkpt>
      <trkpt lat="43.13396" lon="2.97478">
        <ele>10</ele>
        <time>2015-11-22T10:15:15Z</time>
      </trkpt>
      <trkpt lat="43.13395" lon="2.97475">
        <ele>11</ele>
        <time>2015-11-22T10:15:20Z</time>
      </trkpt>
      <trkpt lat="43.13394" lon="2.97473">
        <ele>9</ele>
        <time>2015-11-22T10:15:26Z</time>
      </trkpt>
      <trkpt lat="43.13395" lon="2.97473">
        <ele>10</ele>
        <time>2015-11-22T10:15:32Z</time>
      </trkpt>
      <trkpt lat="43.13394" lon="2.97473">
        <ele>10</ele>
        <time>2015-11-22T10:15:38Z</time>
      </trkpt>
      <trkpt lat="43.13394" lon="2.97472">
        <ele>8</ele>
        <time>2015-11-22T10:15:44Z</time>
      </trkpt>
      <trkpt lat="43.13395" lon="2.97473">
        <ele>10</ele>
        <time>2015-11-22T10:15:50Z</time>
      </trkpt>
      <trkpt lat="43.13397" lon="2.97475">
        <ele>11</ele>
        <time>2015-11-22T10:15:58Z</time>
      </trkpt>
      <trkpt lat="43.13396" lon="2.97475">
        <ele>12</ele>
        <time>2015-11-22T10:16:02Z</time>
      </trkpt>
      <trkpt lat="43.13396" lon="2.97475">
        <ele>12</ele>
        <time>2015-11-22T10:16:08Z</time>
      </trkpt>
      <trkpt lat="43.13394" lon="2.97475">
        <ele>12</ele>
        <time>2015-11-22T10:16:14Z</time>
      </trkpt>
      <trkpt lat="43.13398" lon="2.97484">
        <ele>11</ele>
        <time>2015-11-22T10:16:20Z</time>
      </trkpt>
      <trkpt lat="43.13405" lon="2.97497">
        <ele>8</ele>
        <time>2015-11-22T10:16:26Z</time>
      </trkpt>
      <trkpt lat="43.13417" lon="2.97497">
        <ele>7</ele>
        <time>2015-11-22T10:16:32Z</time>
      </trkpt>
      <trkpt lat="43.13428" lon="2.97488">
        <ele>7</ele>
        <time>2015-11-22T10:16:38Z</time>
      </trkpt>
      <trkpt lat="43.1344" lon="2.97474">
        <ele>9</ele>
        <time>2015-11-22T10:16:44Z</time>
      </trkpt>
      <trkpt lat="43.1345" lon="2.97465">
        <ele>9</ele>
        <time>2015-11-22T10:16:49Z</time>
      </trkpt>
      <trkpt lat="43.13459" lon="2.97456">
        <ele>8</ele>
        <time>2015-11-22T10:16:54Z</time>
      </trkpt>
      <trkpt lat="43.13472" lon="2.97443">
        <ele>8</ele>
        <time>2015-11-22T10:17:00Z</time>
      </trkpt>
      <trkpt lat="43.13478" lon="2.97433">
        <ele>7</ele>
        <time>2015-11-22T10:17:05Z</time>
      </trkpt>
      <trkpt lat="43.1349" lon="2.97423">
        <ele>8</ele>
        <time>2015-11-22T10:17:11Z</time>
      </trkpt>
      <trkpt lat="43.13502" lon="2.97416">
        <ele>9</ele>
        <time>2015-11-22T10:17:17Z</time>
      </trkpt>
      <trkpt lat="43.13519" lon="2.9741">
        <ele>12</ele>
        <time>2015-11-22T10:17:26Z</time>
      </trkpt>
      <trkpt lat="43.13524" lon="2.97407">
        <ele>12</ele>
        <time>2015-11-22T10:17:29Z</time>
      </trkpt>
      <trkpt lat="43.13537" lon="2.97401">
        <ele>13</ele>
        <time>2015-11-22T10:17:35Z</time>
      </trkpt>
      <trkpt lat="43.13557" lon="2.97388">
        <ele>12</ele>
        <time>2015-11-22T10:17:46Z</time>
      </trkpt>
      <trkpt lat="43.13558" lon="2.97387">
        <ele>12</ele>
        <time>2015-11-22T10:17:47Z</time>
      </trkpt>
      <trkpt lat="43.13574" lon="2.97388">
        <ele>11</ele>
        <time>2015-11-22T10:17:57Z</time>
      </trkpt>
      <trkpt lat="43.13577" lon="2.97387">
        <ele>12</ele>
        <time>2015-11-22T10:18:00Z</time>
      </trkpt>
      <trkpt lat="43.13582" lon="2.97388">
        <ele>11</ele>
        <time>2015-11-22T10:18:04Z</time>
      </trkpt>
      <trkpt lat="43.13592" lon="2.97391">
        <ele>11</ele>
        <time>2015-11-22T10:18:10Z</time>
      </trkpt>
      <trkpt lat="43.13601" lon="2.97398">
        <ele>12</ele>
        <time>2015-11-22T10:18:15Z</time>
      </trkpt>
      <trkpt lat="43.13622" lon="2.97419">
        <ele>13</ele>
        <time>2015-11-22T10:18:24Z</time>
      </trkpt>
      <trkpt lat="43.13643" lon="2.97428">
        <ele>13</ele>
        <time>2015-11-22T10:18:32Z</time>
      </trkpt>
      <trkpt lat="43.13649" lon="2.97432">
        <ele>14</ele>
        <time>2015-11-22T10:18:34Z</time>
      </trkpt>
      <trkpt lat="43.13664" lon="2.97449">
        <ele>10</ele>
        <time>2015-11-22T10:18:40Z</time>
      </trkpt>
      <trkpt lat="43.13675" lon="2.97467">
        <ele>8</ele>
        <time>2015-11-22T10:18:45Z</time>
      </trkpt>
      <trkpt lat="43.1369" lon="2.97487">
        <ele>9</ele>
        <time>2015-11-22T10:18:51Z</time>
      </trkpt>
      <trkpt lat="43.13702" lon="2.97503">
        <ele>7</ele>
        <time>2015-11-22T10:18:57Z</time>
      </trkpt>
      <trkpt lat="43.13719" lon="2.97521">
        <ele>9</ele>
        <time>2015-11-22T10:19:03Z</time>
      </trkpt>
      <trkpt lat="43.13738" lon="2.97541">
        <ele>8</ele>
        <time>2015-11-22T10:19:11Z</time>
      </trkpt>
      <trkpt lat="43.1376" lon="2.97563">
        <ele>7</ele>
        <time>2015-11-22T10:19:20Z</time>
      </trkpt>
      <trkpt lat="43.13763" lon="2.97565">
        <ele>7</ele>
        <time>2015-11-22T10:19:21Z</time>
      </trkpt>
      <trkpt lat="43.13775" lon="2.97576">
        <ele>10</ele>
        <time>2015-11-22T10:19:27Z</time>
      </trkpt>
      <trkpt lat="43.13796" lon="2.97593">
        <ele>15</ele>
        <time>2015-11-22T10:19:38Z</time>
      </trkpt>
      <trkpt lat="43.13798" lon="2.97595">
        <ele>16</ele>
        <time>2015-11-22T10:19:39Z</time>
      </trkpt>
      <trkpt lat="43.13813" lon="2.97605">
        <ele>18</ele>
        <time>2015-11-22T10:19:45Z</time>
      </trkpt>
      <trkpt lat="43.13825" lon="2.97616">
        <ele>21</ele>
        <time>2015-11-22T10:19:51Z</time>
      </trkpt>
      <trkpt lat="43.13835" lon="2.97633">
        <ele>22</ele>
        <time>2015-11-22T10:19:57Z</time>
      </trkpt>
      <trkpt lat="43.13845" lon="2.97648">
        <ele>21</ele>
        <time>2015-11-22T10:20:03Z</time>
      </trkpt>
      <trkpt lat="43.13855" lon="2.9766">
        <ele>20</ele>
        <time>2015-11-22T10:20:09Z</time>
      </trkpt>
      <trkpt lat="43.13865" lon="2.97673">
        <ele>19</ele>
        <time>2015-11-22T10:20:15Z</time>
      </trkpt>
      <trkpt lat="43.13878" lon="2.97687">
        <ele>19</ele>
        <time>2015-11-22T10:20:22Z</time>
      </trkpt>
      <trkpt lat="43.13885" lon="2.97695">
        <ele>17</ele>
        <time>2015-11-22T10:20:27Z</time>
      </trkpt>
      <trkpt lat="43.13895" lon="2.97704">
        <ele>17</ele>
        <time>2015-11-22T10:20:33Z</time>
      </trkpt>
      <trkpt lat="43.13904" lon="2.97712">
        <ele>16</ele>
        <time>2015-11-22T10:20:38Z</time>
      </trkpt>
      <trkpt lat="43.13919" lon="2.97726">
        <ele>15</ele>
        <time>2015-11-22T10:20:45Z</time>
      </trkpt>
      <trkpt lat="43.13927" lon="2.97734">
        <ele>15</ele>
        <time>2015-11-22T10:20:50Z</time>
      </trkpt>
      <trkpt lat="43.13947" lon="2.97749">
        <ele>15</ele>
        <time>2015-11-22T10:20:59Z</time>
      </trkpt>
      <trkpt lat="43.13964" lon="2.97761">
        <ele>17</ele>
        <time>2015-11-22T10:21:06Z</time>
      </trkpt>
      <trkpt lat="43.1397" lon="2.97766">
        <ele>18</ele>
        <time>2015-11-22T10:21:09Z</time>
      </trkpt>
      <trkpt lat="43.13976" lon="2.97772">
        <ele>17</ele>
        <time>2015-11-22T10:21:13Z</time>
      </trkpt>
      <trkpt lat="43.13987" lon="2.97778">
        <ele>16</ele>
        <time>2015-11-22T10:21:19Z</time>
      </trkpt>
      <trkpt lat="43.13998" lon="2.97787">
        <ele>13</ele>
        <time>2015-11-22T10:21:24Z</time>
      </trkpt>
      <trkpt lat="43.14017" lon="2.97802">
        <ele>14</ele>
        <time>2015-11-22T10:21:35Z</time>
      </trkpt>
      <trkpt lat="43.1402" lon="2.97805">
        <ele>15</ele>
        <time>2015-11-22T10:21:37Z</time>
      </trkpt>
      <trkpt lat="43.14026" lon="2.97809">
        <ele>15</ele>
        <time>2015-11-22T10:21:41Z</time>
      </trkpt>
      <trkpt lat="43.14039" lon="2.97824">
        <ele>17</ele>
        <time>2015-11-22T10:21:51Z</time>
      </trkpt>
      <trkpt lat="43.14045" lon="2.97828">
        <ele>17</ele>
        <time>2015-11-22T10:21:53Z</time>
      </trkpt>
      <trkpt lat="43.14058" lon="2.97843">
        <ele>20</ele>
        <time>2015-11-22T10:22:01Z</time>
      </trkpt>
      <trkpt lat="43.14068" lon="2.97851">
        <ele>22</ele>
        <time>2015-11-22T10:22:05Z</time>
      </trkpt>
      <trkpt lat="43.14078" lon="2.97861">
        <ele>21</ele>
        <time>2015-11-22T10:22:11Z</time>
      </trkpt>
      <trkpt lat="43.14088" lon="2.97869">
        <ele>22</ele>
        <time>2015-11-22T10:22:16Z</time>
      </trkpt>
      <trkpt lat="43.14101" lon="2.97885">
        <ele>19</ele>
        <time>2015-11-22T10:22:22Z</time>
      </trkpt>
      <trkpt lat="43.14112" lon="2.97908">
        <ele>18</ele>
        <time>2015-11-22T10:22:28Z</time>
      </trkpt>
      <trkpt lat="43.14118" lon="2.97935">
        <ele>20</ele>
        <time>2015-11-22T10:22:35Z</time>
      </trkpt>
      <trkpt lat="43.14124" lon="2.97954">
        <ele>22</ele>
        <time>2015-11-22T10:22:40Z</time>
      </trkpt>
      <trkpt lat="43.14135" lon="2.97965">
        <ele>23</ele>
        <time>2015-11-22T10:22:45Z</time>
      </trkpt>
      <trkpt lat="43.14148" lon="2.97979">
        <ele>20</ele>
        <time>2015-11-22T10:22:51Z</time>
      </trkpt>
      <trkpt lat="43.14165" lon="2.97997">
        <ele>18</ele>
        <time>2015-11-22T10:22:59Z</time>
      </trkpt>
      <trkpt lat="43.14172" lon="2.98009">
        <ele>15</ele>
        <time>2015-11-22T10:23:03Z</time>
      </trkpt>
      <trkpt lat="43.14187" lon="2.98022">
        <ele>18</ele>
        <time>2015-11-22T10:23:09Z</time>
      </trkpt>
      <trkpt lat="43.14205" lon="2.98025">
        <ele>19</ele>
        <time>2015-11-22T10:23:15Z</time>
      </trkpt>
      <trkpt lat="43.14224" lon="2.98016">
        <ele>17</ele>
        <time>2015-11-22T10:23:20Z</time>
      </trkpt>
      <trkpt lat="43.14251" lon="2.98018">
        <ele>15</ele>
        <time>2015-11-22T10:23:27Z</time>
      </trkpt>
      <trkpt lat="43.14273" lon="2.98026">
        <ele>12</ele>
        <time>2015-11-22T10:23:35Z</time>
      </trkpt>
      <trkpt lat="43.14281" lon="2.98026">
        <ele>10</ele>
        <time>2015-11-22T10:23:39Z</time>
      </trkpt>
      <trkpt lat="43.14294" lon="2.98027">
        <ele>8</ele>
        <time>2015-11-22T10:23:44Z</time>
      </trkpt>
      <trkpt lat="43.14309" lon="2.98038">
        <ele>9</ele>
        <time>2015-11-22T10:23:50Z</time>
      </trkpt>
      <trkpt lat="43.14328" lon="2.98059">
        <ele>9</ele>
        <time>2015-11-22T10:23:59Z</time>
      </trkpt>
      <trkpt lat="43.14336" lon="2.98067">
        <ele>9</ele>
        <time>2015-11-22T10:24:02Z</time>
      </trkpt>
      <trkpt lat="43.14354" lon="2.9808">
        <ele>10</ele>
        <time>2015-11-22T10:24:08Z</time>
      </trkpt>
      <trkpt lat="43.14369" lon="2.98082">
        <ele>8</ele>
        <time>2015-11-22T10:24:14Z</time>
      </trkpt>
      <trkpt lat="43.14389" lon="2.98093">
        <ele>7</ele>
        <time>2015-11-22T10:24:20Z</time>
      </trkpt>
      <trkpt lat="43.14403" lon="2.98105">
        <ele>4</ele>
        <time>2015-11-22T10:24:27Z</time>
      </trkpt>
      <trkpt lat="43.14416" lon="2.98121">
        <ele>3</ele>
        <time>2015-11-22T10:24:32Z</time>
      </trkpt>
      <trkpt lat="43.14429" lon="2.98145">
        <ele>5</ele>
        <time>2015-11-22T10:24:38Z</time>
      </trkpt>
      <trkpt lat="43.14434" lon="2.98168">
        <ele>4</ele>
        <time>2015-11-22T10:24:44Z</time>
      </trkpt>
      <trkpt lat="43.14441" lon="2.9819">
        <ele>3</ele>
        <time>2015-11-22T10:24:50Z</time>
      </trkpt>
      <trkpt lat="43.14445" lon="2.98203">
        <ele>4</ele>
        <time>2015-11-22T10:24:55Z</time>
      </trkpt>
      <trkpt lat="43.14458" lon="2.982">
        <ele>2</ele>
        <time>2015-11-22T10:25:01Z</time>
      </trkpt>
      <trkpt lat="43.14484" lon="2.98201">
        <ele>2</ele>
        <time>2015-11-22T10:25:11Z</time>
      </trkpt>
      <trkpt lat="43.1449" lon="2.98204">
        <ele>3</ele>
        <time>2015-11-22T10:25:13Z</time>
      </trkpt>
      <trkpt lat="43.14514" lon="2.98202">
        <ele>6</ele>
        <time>2015-11-22T10:25:23Z</time>
      </trkpt>
      <trkpt lat="43.14519" lon="2.98202">
        <ele>5</ele>
        <time>2015-11-22T10:25:25Z</time>
      </trkpt>
      <trkpt lat="43.14532" lon="2.98195">
        <ele>6</ele>
        <time>2015-11-22T10:25:31Z</time>
      </trkpt>
      <trkpt lat="43.14547" lon="2.98183">
        <ele>2</ele>
        <time>2015-11-22T10:25:37Z</time>
      </trkpt>
      <trkpt lat="43.14561" lon="2.98165">
        <ele>-2</ele>
        <time>2015-11-22T10:25:43Z</time>
      </trkpt>
      <trkpt lat="43.14567" lon="2.98148">
        <ele>-1</ele>
        <time>2015-11-22T10:25:48Z</time>
      </trkpt>
      <trkpt lat="43.1457" lon="2.98142">
        <ele>-1</ele>
        <time>2015-11-22T10:25:54Z</time>
      </trkpt>
      <trkpt lat="43.14601" lon="2.98081">
        <ele>11</ele>
        <time>2015-11-22T10:26:16Z</time>
      </trkpt>
      <trkpt lat="43.14603" lon="2.98078">
        <ele>12</ele>
        <time>2015-11-22T10:26:17Z</time>
      </trkpt>
      <trkpt lat="43.14613" lon="2.98061">
        <ele>12</ele>
        <time>2015-11-22T10:26:24Z</time>
      </trkpt>
      <trkpt lat="43.14619" lon="2.98037">
        <ele>16</ele>
        <time>2015-11-22T10:26:32Z</time>
      </trkpt>
      <trkpt lat="43.1462" lon="2.98031">
        <ele>17</ele>
        <time>2015-11-22T10:26:36Z</time>
      </trkpt>
      <trkpt lat="43.14626" lon="2.98014">
        <ele>17</ele>
        <time>2015-11-22T10:26:41Z</time>
      </trkpt>
      <trkpt lat="43.14634" lon="2.98">
        <ele>17</ele>
        <time>2015-11-22T10:26:48Z</time>
      </trkpt>
      <trkpt lat="43.14642" lon="2.97986">
        <ele>18</ele>
        <time>2015-11-22T10:26:54Z</time>
      </trkpt>
      <trkpt lat="43.1465" lon="2.97972">
        <ele>17</ele>
        <time>2015-11-22T10:26:59Z</time>
      </trkpt>
      <trkpt lat="43.14657" lon="2.97958">
        <ele>17</ele>
        <time>2015-11-22T10:27:05Z</time>
      </trkpt>
      <trkpt lat="43.14664" lon="2.97945">
        <ele>18</ele>
        <time>2015-11-22T10:27:11Z</time>
      </trkpt>
      <trkpt lat="43.14674" lon="2.97932">
        <ele>17</ele>
        <time>2015-11-22T10:27:18Z</time>
      </trkpt>
      <trkpt lat="43.14685" lon="2.97923">
        <ele>18</ele>
        <time>2015-11-22T10:27:23Z</time>
      </trkpt>
      <trkpt lat="43.14694" lon="2.97921">
        <ele>18</ele>
        <time>2015-11-22T10:27:29Z</time>
      </trkpt>
      <trkpt lat="43.14703" lon="2.97914">
        <ele>18</ele>
        <time>2015-11-22T10:27:35Z</time>
      </trkpt>
      <trkpt lat="43.14711" lon="2.97896">
        <ele>18</ele>
        <time>2015-11-22T10:27:41Z</time>
      </trkpt>
      <trkpt lat="43.14717" lon="2.9788">
        <ele>20</ele>
        <time>2015-11-22T10:27:47Z</time>
      </trkpt>
      <trkpt lat="43.14727" lon="2.97865">
        <ele>22</ele>
        <time>2015-11-22T10:27:53Z</time>
      </trkpt>
      <trkpt lat="43.14755" lon="2.97843">
        <ele>23</ele>
        <time>2015-11-22T10:28:10Z</time>
      </trkpt>
      <trkpt lat="43.14764" lon="2.97852">
        <ele>21</ele>
        <time>2015-11-22T10:28:15Z</time>
      </trkpt>
      <trkpt lat="43.14778" lon="2.97854">
        <ele>20</ele>
        <time>2015-11-22T10:28:21Z</time>
      </trkpt>
      <trkpt lat="43.14783" lon="2.97852">
        <ele>19</ele>
        <time>2015-11-22T10:28:24Z</time>
      </trkpt>
      <trkpt lat="43.14797" lon="2.97846">
        <ele>19</ele>
        <time>2015-11-22T10:28:29Z</time>
      </trkpt>
      <trkpt lat="43.14811" lon="2.97837">
        <ele>15</ele>
        <time>2015-11-22T10:28:35Z</time>
      </trkpt>
      <trkpt lat="43.14824" lon="2.97826">
        <ele>14</ele>
        <time>2015-11-22T10:28:41Z</time>
      </trkpt>
      <trkpt lat="43.14841" lon="2.97815">
        <ele>13</ele>
        <time>2015-11-22T10:28:49Z</time>
      </trkpt>
      <trkpt lat="43.14848" lon="2.97806">
        <ele>13</ele>
        <time>2015-11-22T10:28:53Z</time>
      </trkpt>
      <trkpt lat="43.14861" lon="2.9777">
        <ele>11</ele>
        <time>2015-11-22T10:29:04Z</time>
      </trkpt>
      <trkpt lat="43.14864" lon="2.9776">
        <ele>11</ele>
        <time>2015-11-22T10:29:07Z</time>
      </trkpt>
      <trkpt lat="43.14873" lon="2.97745">
        <ele>16</ele>
        <time>2015-11-22T10:29:14Z</time>
      </trkpt>
      <trkpt lat="43.14866" lon="2.97733">
        <ele>19</ele>
        <time>2015-11-22T10:29:22Z</time>
      </trkpt>
      <trkpt lat="43.14866" lon="2.97731">
        <ele>19</ele>
        <time>2015-11-22T10:29:24Z</time>
      </trkpt>
      <trkpt lat="43.14859" lon="2.97724">
        <ele>21</ele>
        <time>2015-11-22T10:29:29Z</time>
      </trkpt>
      <trkpt lat="43.14846" lon="2.97716">
        <ele>21</ele>
        <time>2015-11-22T10:29:35Z</time>
      </trkpt>
      <trkpt lat="43.14832" lon="2.97709">
        <ele>23</ele>
        <time>2015-11-22T10:29:41Z</time>
      </trkpt>
      <trkpt lat="43.14818" lon="2.97701">
        <ele>22</ele>
        <time>2015-11-22T10:29:47Z</time>
      </trkpt>
      <trkpt lat="43.14799" lon="2.9769">
        <ele>20</ele>
        <time>2015-11-22T10:29:55Z</time>
      </trkpt>
      <trkpt lat="43.1479" lon="2.97684">
        <ele>18</ele>
        <time>2015-11-22T10:29:59Z</time>
      </trkpt>
      <trkpt lat="43.14776" lon="2.97673">
        <ele>18</ele>
        <time>2015-11-22T10:30:05Z</time>
      </trkpt>
      <trkpt lat="43.1476" lon="2.97662">
        <ele>17</ele>
        <time>2015-11-22T10:30:11Z</time>
      </trkpt>
      <trkpt lat="43.14758" lon="2.97656">
        <ele>17</ele>
        <time>2015-11-22T10:30:16Z</time>
      </trkpt>
      <trkpt lat="43.14759" lon="2.9764">
        <ele>17</ele>
        <time>2015-11-22T10:30:22Z</time>
      </trkpt>
      <trkpt lat="43.14752" lon="2.9762">
        <ele>12</ele>
        <time>2015-11-22T10:30:29Z</time>
      </trkpt>
      <trkpt lat="43.14748" lon="2.97611">
        <ele>11</ele>
        <time>2015-11-22T10:30:33Z</time>
      </trkpt>
      <trkpt lat="43.14742" lon="2.97595">
        <ele>11</ele>
        <time>2015-11-22T10:30:39Z</time>
      </trkpt>
      <trkpt lat="43.14735" lon="2.97576">
        <ele>11</ele>
        <time>2015-11-22T10:30:46Z</time>
      </trkpt>
      <trkpt lat="43.14729" lon="2.9756">
        <ele>15</ele>
        <time>2015-11-22T10:30:52Z</time>
      </trkpt>
      <trkpt lat="43.14724" lon="2.97545">
        <ele>16</ele>
        <time>2015-11-22T10:30:57Z</time>
      </trkpt>
      <trkpt lat="43.14719" lon="2.97533">
        <ele>17</ele>
        <time>2015-11-22T10:31:02Z</time>
      </trkpt>
      <trkpt lat="43.14713" lon="2.9752">
        <ele>19</ele>
        <time>2015-11-22T10:31:07Z</time>
      </trkpt>
      <trkpt lat="43.14709" lon="2.97505">
        <ele>19</ele>
        <time>2015-11-22T10:31:13Z</time>
      </trkpt>
      <trkpt lat="43.14704" lon="2.97489">
        <ele>17</ele>
        <time>2015-11-22T10:31:19Z</time>
      </trkpt>
      <trkpt lat="43.14702" lon="2.97478">
        <ele>17</ele>
        <time>2015-11-22T10:31:24Z</time>
      </trkpt>
      <trkpt lat="43.14701" lon="2.97469">
        <ele>16</ele>
        <time>2015-11-22T10:31:30Z</time>
      </trkpt>
      <trkpt lat="43.14701" lon="2.97458">
        <ele>14</ele>
        <time>2015-11-22T10:31:36Z</time>
      </trkpt>
      <trkpt lat="43.14705" lon="2.97444">
        <ele>20</ele>
        <time>2015-11-22T10:31:42Z</time>
      </trkpt>
      <trkpt lat="43.14709" lon="2.97427">
        <ele>23</ele>
        <time>2015-11-22T10:31:48Z</time>
      </trkpt>
      <trkpt lat="43.1471" lon="2.97401">
        <ele>24</ele>
        <time>2015-11-22T10:31:55Z</time>
      </trkpt>
      <trkpt lat="43.14711" lon="2.97394">
        <ele>26</ele>
        <time>2015-11-22T10:31:59Z</time>
      </trkpt>
      <trkpt lat="43.14709" lon="2.97377">
        <ele>28</ele>
        <time>2015-11-22T10:32:05Z</time>
      </trkpt>
      <trkpt lat="43.14709" lon="2.97365">
        <ele>29</ele>
        <time>2015-11-22T10:32:11Z</time>
      </trkpt>
      <trkpt lat="43.1471" lon="2.97354">
        <ele>31</ele>
        <time>2015-11-22T10:32:17Z</time>
      </trkpt>
      <trkpt lat="43.1471" lon="2.97346">
        <ele>33</ele>
        <time>2015-11-22T10:32:23Z</time>
      </trkpt>
      <trkpt lat="43.14705" lon="2.97338">
        <ele>31</ele>
        <time>2015-11-22T10:32:30Z</time>
      </trkpt>
      <trkpt lat="43.14698" lon="2.97333">
        <ele>32</ele>
        <time>2015-11-22T10:32:35Z</time>
      </trkpt>
      <trkpt lat="43.14698" lon="2.97323">
        <ele>29</ele>
        <time>2015-11-22T10:32:41Z</time>
      </trkpt>
      <trkpt lat="43.147" lon="2.97307">
        <ele>32</ele>
        <time>2015-11-22T10:32:46Z</time>
      </trkpt>
      <trkpt lat="43.147" lon="2.97281">
        <ele>32</ele>
        <time>2015-11-22T10:32:55Z</time>
      </trkpt>
      <trkpt lat="43.14701" lon="2.97277">
        <ele>33</ele>
        <time>2015-11-22T10:32:59Z</time>
      </trkpt>
      <trkpt lat="43.14701" lon="2.9727">
        <ele>34</ele>
        <time>2015-11-22T10:33:04Z</time>
      </trkpt>
      <trkpt lat="43.14696" lon="2.97263">
        <ele>33</ele>
        <time>2015-11-22T10:33:11Z</time>
      </trkpt>
      <trkpt lat="43.14696" lon="2.97261">
        <ele>31</ele>
        <time>2015-11-22T10:33:17Z</time>
      </trkpt>
      <trkpt lat="43.14696" lon="2.97262">
        <ele>31</ele>
        <time>2015-11-22T10:33:21Z</time>
      </trkpt>
      <trkpt lat="43.14695" lon="2.97262">
        <ele>31</ele>
        <time>2015-11-22T10:33:26Z</time>
      </trkpt>
      <trkpt lat="43.14695" lon="2.97261">
        <ele>31</ele>
        <time>2015-11-22T10:33:35Z</time>
      </trkpt>
      <trkpt lat="43.14695" lon="2.9726">
        <ele>31</ele>
        <time>2015-11-22T10:33:38Z</time>
      </trkpt>
      <trkpt lat="43.14695" lon="2.9726">
        <ele>30</ele>
        <time>2015-11-22T10:33:44Z</time>
      </trkpt>
      <trkpt lat="43.14697" lon="2.9726">
        <ele>31</ele>
        <time>2015-11-22T10:33:50Z</time>
      </trkpt>
      <trkpt lat="43.14696" lon="2.9726">
        <ele>31</ele>
        <time>2015-11-22T10:33:56Z</time>
      </trkpt>
      <trkpt lat="43.14697" lon="2.97262">
        <ele>33</ele>
        <time>2015-11-22T10:34:02Z</time>
      </trkpt>
      <trkpt lat="43.14697" lon="2.97262">
        <ele>36</ele>
        <time>2015-11-22T10:34:08Z</time>
      </trkpt>
      <trkpt lat="43.14697" lon="2.97263">
        <ele>36</ele>
        <time>2015-11-22T10:34:15Z</time>
      </trkpt>
      <trkpt lat="43.14697" lon="2.97263">
        <ele>36</ele>
        <time>2015-11-22T10:34:21Z</time>
      </trkpt>
      <trkpt lat="43.14697" lon="2.97263">
        <ele>36</ele>
        <time>2015-11-22T10:34:26Z</time>
      </trkpt>
      <trkpt lat="43.14697" lon="2.97263">
        <ele>36</ele>
        <time>2015-11-22T10:34:32Z</time>
      </trkpt>
      <trkpt lat="43.14697" lon="2.97263">
        <ele>36</ele>
        <time>2015-11-22T10:34:38Z</time>
      </trkpt>
      <trkpt lat="43.14697" lon="2.97263">
        <ele>36</ele>
        <time>2015-11-22T10:34:43Z</time>
      </trkpt>
      <trkpt lat="43.14697" lon="2.97263">
        <ele>36</ele>
        <time>2015-11-22T10:34:49Z</time>
      </trkpt>
      <trkpt lat="43.14696" lon="2.97262">
        <ele>36</ele>
        <time>2015-11-22T10:34:55Z</time>
      </trkpt>
      <trkpt lat="43.14696" lon="2.97265">
        <ele>38</ele>
        <time>2015-11-22T10:35:02Z</time>
      </trkpt>
      <trkpt lat="43.14696" lon="2.97264">
        <ele>37</ele>
        <time>2015-11-22T10:35:06Z</time>
      </trkpt>
      <trkpt lat="43.14696" lon="2.97264">
        <ele>37</ele>
        <time>2015-11-22T10:35:12Z</time>
      </trkpt>
      <trkpt lat="43.14702" lon="2.9726">
        <ele>37</ele>
        <time>2015-11-22T10:35:21Z</time>
      </trkpt>
      <trkpt lat="43.14705" lon="2.97259">
        <ele>35</ele>
        <time>2015-11-22T10:35:24Z</time>
      </trkpt>
      <trkpt lat="43.14703" lon="2.97244">
        <ele>34</ele>
        <time>2015-11-22T10:35:30Z</time>
      </trkpt>
      <trkpt lat="43.14695" lon="2.97234">
        <ele>30</ele>
        <time>2015-11-22T10:35:36Z</time>
      </trkpt>
      <trkpt lat="43.14688" lon="2.97235">
        <ele>29</ele>
        <time>2015-11-22T10:35:42Z</time>
      </trkpt>
      <trkpt lat="43.14689" lon="2.97235">
        <ele>29</ele>
        <time>2015-11-22T10:35:47Z</time>
      </trkpt>
      <trkpt lat="43.14686" lon="2.97229">
        <ele>29</ele>
        <time>2015-11-22T10:35:53Z</time>
      </trkpt>
      <trkpt lat="43.14686" lon="2.9722">
        <ele>30</ele>
        <time>2015-11-22T10:35:58Z</time>
      </trkpt>
      <trkpt lat="43.14697" lon="2.97215">
        <ele>30</ele>
        <time>2015-11-22T10:36:03Z</time>
      </trkpt>
      <trkpt lat="43.14708" lon="2.9721">
        <ele>27</ele>
        <time>2015-11-22T10:36:09Z</time>
      </trkpt>
      <trkpt lat="43.14703" lon="2.97213">
        <ele>28</ele>
        <time>2015-11-22T10:36:16Z</time>
      </trkpt>
      <trkpt lat="43.14693" lon="2.97217">
        <ele>27</ele>
        <time>2015-11-22T10:36:21Z</time>
      </trkpt>
      <trkpt lat="43.14681" lon="2.97217">
        <ele>27</ele>
        <time>2015-11-22T10:36:28Z</time>
      </trkpt>
      <trkpt lat="43.14682" lon="2.97211">
        <ele>27</ele>
        <time>2015-11-22T10:36:32Z</time>
      </trkpt>
      <trkpt lat="43.14684" lon="2.97195">
        <ele>29</ele>
        <time>2015-11-22T10:36:38Z</time>
      </trkpt>
      <trkpt lat="43.14686" lon="2.97181">
        <ele>31</ele>
        <time>2015-11-22T10:36:43Z</time>
      </trkpt>
      <trkpt lat="43.14693" lon="2.97148">
        <ele>32</ele>
        <time>2015-11-22T10:36:54Z</time>
      </trkpt>
      <trkpt lat="43.14694" lon="2.97146">
        <ele>32</ele>
        <time>2015-11-22T10:36:55Z</time>
      </trkpt>
      <trkpt lat="43.14699" lon="2.97132">
        <ele>31</ele>
        <time>2015-11-22T10:37:01Z</time>
      </trkpt>
      <trkpt lat="43.14707" lon="2.97132">
        <ele>33</ele>
        <time>2015-11-22T10:37:08Z</time>
      </trkpt>
      <trkpt lat="43.14715" lon="2.97133">
        <ele>34</ele>
        <time>2015-11-22T10:37:12Z</time>
      </trkpt>
      <trkpt lat="43.14727" lon="2.97139">
        <ele>35</ele>
        <time>2015-11-22T10:37:18Z</time>
      </trkpt>
      <trkpt lat="43.14741" lon="2.97144">
        <ele>36</ele>
        <time>2015-11-22T10:37:24Z</time>
      </trkpt>
      <trkpt lat="43.14757" lon="2.9715">
        <ele>36</ele>
        <time>2015-11-22T10:37:30Z</time>
      </trkpt>
      <trkpt lat="43.1477" lon="2.97153">
        <ele>36</ele>
        <time>2015-11-22T10:37:35Z</time>
      </trkpt>
      <trkpt lat="43.14782" lon="2.97144">
        <ele>35</ele>
        <time>2015-11-22T10:37:41Z</time>
      </trkpt>
      <trkpt lat="43.14788" lon="2.97127">
        <ele>36</ele>
        <time>2015-11-22T10:37:47Z</time>
      </trkpt>
      <trkpt lat="43.14794" lon="2.97109">
        <ele>37</ele>
        <time>2015-11-22T10:37:53Z</time>
      </trkpt>
      <trkpt lat="43.14804" lon="2.97095">
        <ele>35</ele>
        <time>2015-11-22T10:37:59Z</time>
      </trkpt>
      <trkpt lat="43.14812" lon="2.97082">
        <ele>37</ele>
        <time>2015-11-22T10:38:04Z</time>
      </trkpt>
      <trkpt lat="43.14821" lon="2.97072">
        <ele>38</ele>
        <time>2015-11-22T10:38:10Z</time>
      </trkpt>
      <trkpt lat="43.14829" lon="2.97065">
        <ele>38</ele>
        <time>2015-11-22T10:38:15Z</time>
      </trkpt>
      <trkpt lat="43.14837" lon="2.97055">
        <ele>36</ele>
        <time>2015-11-22T10:38:21Z</time>
      </trkpt>
      <trkpt lat="43.14844" lon="2.97026">
        <ele>35</ele>
        <time>2015-11-22T10:38:30Z</time>
      </trkpt>
      <trkpt lat="43.14847" lon="2.97018">
        <ele>36</ele>
        <time>2015-11-22T10:38:33Z</time>
      </trkpt>
      <trkpt lat="43.14858" lon="2.97011">
        <ele>37</ele>
        <time>2015-11-22T10:38:39Z</time>
      </trkpt>
      <trkpt lat="43.14862" lon="2.97011">
        <ele>38</ele>
        <time>2015-11-22T10:38:46Z</time>
      </trkpt>
      <trkpt lat="43.14861" lon="2.97011">
        <ele>38</ele>
        <time>2015-11-22T10:38:53Z</time>
      </trkpt>
      <trkpt lat="43.1486" lon="2.97008">
        <ele>40</ele>
        <time>2015-11-22T10:38:58Z</time>
      </trkpt>
      <trkpt lat="43.14862" lon="2.97008">
        <ele>37</ele>
        <time>2015-11-22T10:39:03Z</time>
      </trkpt>
      <trkpt lat="43.14863" lon="2.97007">
        <ele>38</ele>
        <time>2015-11-22T10:39:11Z</time>
      </trkpt>
      <trkpt lat="43.14863" lon="2.97008">
        <ele>38</ele>
        <time>2015-11-22T10:39:14Z</time>
      </trkpt>
      <trkpt lat="43.1487" lon="2.97012">
        <ele>39</ele>
        <time>2015-11-22T10:39:20Z</time>
      </trkpt>
      <trkpt lat="43.1488" lon="2.97024">
        <ele>40</ele>
        <time>2015-11-22T10:39:26Z</time>
      </trkpt>
      <trkpt lat="43.14882" lon="2.97025">
        <ele>40</ele>
        <time>2015-11-22T10:39:30Z</time>
      </trkpt>
      <trkpt lat="43.14882" lon="2.97026">
        <ele>41</ele>
        <time>2015-11-22T10:39:36Z</time>
      </trkpt>
      <trkpt lat="43.14882" lon="2.97025">
        <ele>41</ele>
        <time>2015-11-22T10:39:42Z</time>
      </trkpt>
      <trkpt lat="43.14882" lon="2.97025">
        <ele>41</ele>
        <time>2015-11-22T10:39:48Z</time>
      </trkpt>
      <trkpt lat="43.14882" lon="2.97025">
        <ele>41</ele>
        <time>2015-11-22T10:39:55Z</time>
      </trkpt>
      <trkpt lat="43.14882" lon="2.97025">
        <ele>41</ele>
        <time>2015-11-22T10:40:03Z</time>
      </trkpt>
      <trkpt lat="43.14882" lon="2.97025">
        <ele>41</ele>
        <time>2015-11-22T10:40:04Z</time>
      </trkpt>
      <trkpt lat="43.14882" lon="2.97025">
        <ele>41</ele>
        <time>2015-11-22T10:40:12Z</time>
      </trkpt>
      <trkpt lat="43.14882" lon="2.97025">
        <ele>41</ele>
        <time>2015-11-22T10:40:19Z</time>
      </trkpt>
      <trkpt lat="43.14882" lon="2.97025">
        <ele>41</ele>
        <time>2015-11-22T10:40:21Z</time>
      </trkpt>
      <trkpt lat="43.14882" lon="2.97025">
        <ele>41</ele>
        <time>2015-11-22T10:40:27Z</time>
      </trkpt>
      <trkpt lat="43.14882" lon="2.97025">
        <ele>41</ele>
        <time>2015-11-22T10:40:33Z</time>
      </trkpt>
      <trkpt lat="43.14882" lon="2.97025">
        <ele>41</ele>
        <time>2015-11-22T10:40:39Z</time>
      </trkpt>
      <trkpt lat="43.14883" lon="2.97027">
        <ele>41</ele>
        <time>2015-11-22T10:40:45Z</time>
      </trkpt>
      <trkpt lat="43.14893" lon="2.97032">
        <ele>43</ele>
        <time>2015-11-22T10:40:50Z</time>
      </trkpt>
      <trkpt lat="43.14911" lon="2.97035">
        <ele>43</ele>
        <time>2015-11-22T10:40:55Z</time>
      </trkpt>
      <trkpt lat="43.14936" lon="2.97021">
        <ele>40</ele>
        <time>2015-11-22T10:41:00Z</time>
      </trkpt>
      <trkpt lat="43.14968" lon="2.97003">
        <ele>41</ele>
        <time>2015-11-22T10:41:06Z</time>
      </trkpt>
      <trkpt lat="43.14986" lon="2.96985">
        <ele>40</ele>
        <time>2015-11-22T10:41:12Z</time>
      </trkpt>
      <trkpt lat="43.14987" lon="2.96983">
        <ele>38</ele>
        <time>2015-11-22T10:41:18Z</time>
      </trkpt>
      <trkpt lat="43.14988" lon="2.96984">
        <ele>36</ele>
        <time>2015-11-22T10:41:26Z</time>
      </trkpt>
      <trkpt lat="43.14988" lon="2.96983">
        <ele>36</ele>
        <time>2015-11-22T10:41:30Z</time>
      </trkpt>
      <trkpt lat="43.14988" lon="2.96983">
        <ele>36</ele>
        <time>2015-11-22T10:41:35Z</time>
      </trkpt>
      <trkpt lat="43.14988" lon="2.96983">
        <ele>35</ele>
        <time>2015-11-22T10:41:45Z</time>
      </trkpt>
      <trkpt lat="43.14988" lon="2.96983">
        <ele>36</ele>
        <time>2015-11-22T10:41:47Z</time>
      </trkpt>
      <trkpt lat="43.14988" lon="2.96983">
        <ele>35</ele>
        <time>2015-11-22T10:41:53Z</time>
      </trkpt>
      <trkpt lat="43.14988" lon="2.96982">
        <ele>35</ele>
        <time>2015-11-22T10:42:00Z</time>
      </trkpt>
      <trkpt lat="43.14988" lon="2.9698">
        <ele>35</ele>
        <time>2015-11-22T10:42:05Z</time>
      </trkpt>
      <trkpt lat="43.14993" lon="2.96968">
        <ele>35</ele>
        <time>2015-11-22T10:42:11Z</time>
      </trkpt>
      <trkpt lat="43.14999" lon="2.9695">
        <ele>36</ele>
        <time>2015-11-22T10:42:17Z</time>
      </trkpt>
      <trkpt lat="43.15026" lon="2.9691">
        <ele>33</ele>
        <time>2015-11-22T10:42:24Z</time>
      </trkpt>
      <trkpt lat="43.15047" lon="2.96897">
        <ele>35</ele>
        <time>2015-11-22T10:42:33Z</time>
      </trkpt>
      <trkpt lat="43.15048" lon="2.96897">
        <ele>37</ele>
        <time>2015-11-22T10:42:34Z</time>
      </trkpt>
      <trkpt lat="43.15055" lon="2.9689">
        <ele>38</ele>
        <time>2015-11-22T10:42:40Z</time>
      </trkpt>
      <trkpt lat="43.15058" lon="2.96883">
        <ele>41</ele>
        <time>2015-11-22T10:42:46Z</time>
      </trkpt>
      <trkpt lat="43.15061" lon="2.9688">
        <ele>41</ele>
        <time>2015-11-22T10:42:53Z</time>
      </trkpt>
      <trkpt lat="43.15062" lon="2.96874">
        <ele>40</ele>
        <time>2015-11-22T10:42:58Z</time>
      </trkpt>
      <trkpt lat="43.15064" lon="2.96871">
        <ele>41</ele>
        <time>2015-11-22T10:43:03Z</time>
      </trkpt>
      <trkpt lat="43.15066" lon="2.9687">
        <ele>40</ele>
        <time>2015-11-22T10:43:09Z</time>
      </trkpt>
      <trkpt lat="43.15066" lon="2.9687">
        <ele>40</ele>
        <time>2015-11-22T10:43:20Z</time>
      </trkpt>
      <trkpt lat="43.15066" lon="2.9687">
        <ele>40</ele>
        <time>2015-11-22T10:43:21Z</time>
      </trkpt>
      <trkpt lat="43.15068" lon="2.96871">
        <ele>40</ele>
        <time>2015-11-22T10:43:30Z</time>
      </trkpt>
      <trkpt lat="43.15069" lon="2.96873">
        <ele>40</ele>
        <time>2015-11-22T10:43:32Z</time>
      </trkpt>
      <trkpt lat="43.15074" lon="2.96875">
        <ele>40</ele>
        <time>2015-11-22T10:43:38Z</time>
      </trkpt>
      <trkpt lat="43.15083" lon="2.96881">
        <ele>41</ele>
        <time>2015-11-22T10:43:47Z</time>
      </trkpt>
      <trkpt lat="43.15086" lon="2.9688">
        <ele>42</ele>
        <time>2015-11-22T10:43:49Z</time>
      </trkpt>
      <trkpt lat="43.15097" lon="2.9688">
        <ele>43</ele>
        <time>2015-11-22T10:43:55Z</time>
      </trkpt>
      <trkpt lat="43.15107" lon="2.96877">
        <ele>43</ele>
        <time>2015-11-22T10:44:01Z</time>
      </trkpt>
      <trkpt lat="43.15117" lon="2.96876">
        <ele>43</ele>
        <time>2015-11-22T10:44:06Z</time>
      </trkpt>
      <trkpt lat="43.15129" lon="2.96876">
        <ele>44</ele>
        <time>2015-11-22T10:44:12Z</time>
      </trkpt>
      <trkpt lat="43.15141" lon="2.96873">
        <ele>43</ele>
        <time>2015-11-22T10:44:18Z</time>
      </trkpt>
      <trkpt lat="43.15154" lon="2.9687">
        <ele>44</ele>
        <time>2015-11-22T10:44:24Z</time>
      </trkpt>
      <trkpt lat="43.15171" lon="2.96863">
        <ele>45</ele>
        <time>2015-11-22T10:44:32Z</time>
      </trkpt>
      <trkpt lat="43.15178" lon="2.96856">
        <ele>44</ele>
        <time>2015-11-22T10:44:36Z</time>
      </trkpt>
      <trkpt lat="43.15185" lon="2.96848">
        <ele>44</ele>
        <time>2015-11-22T10:44:41Z</time>
      </trkpt>
      <trkpt lat="43.15192" lon="2.96837">
        <ele>45</ele>
        <time>2015-11-22T10:44:46Z</time>
      </trkpt>
      <trkpt lat="43.15199" lon="2.96827">
        <ele>47</ele>
        <time>2015-11-22T10:44:51Z</time>
      </trkpt>
      <trkpt lat="43.15204" lon="2.96815">
        <ele>47</ele>
        <time>2015-11-22T10:44:56Z</time>
      </trkpt>
      <trkpt lat="43.15195" lon="2.96804">
        <ele>49</ele>
        <time>2015-11-22T10:45:02Z</time>
      </trkpt>
      <trkpt lat="43.15183" lon="2.96807">
        <ele>49</ele>
        <time>2015-11-22T10:45:08Z</time>
      </trkpt>
      <trkpt lat="43.1517" lon="2.96805">
        <ele>50</ele>
        <time>2015-11-22T10:45:14Z</time>
      </trkpt>
      <trkpt lat="43.15158" lon="2.96803">
        <ele>51</ele>
        <time>2015-11-22T10:45:20Z</time>
      </trkpt>
      <trkpt lat="43.15145" lon="2.96795">
        <ele>53</ele>
        <time>2015-11-22T10:45:26Z</time>
      </trkpt>
      <trkpt lat="43.15134" lon="2.96786">
        <ele>53</ele>
        <time>2015-11-22T10:45:31Z</time>
      </trkpt>
      <trkpt lat="43.15125" lon="2.9677">
        <ele>51</ele>
        <time>2015-11-22T10:45:36Z</time>
      </trkpt>
      <trkpt lat="43.15121" lon="2.96749">
        <ele>53</ele>
        <time>2015-11-22T10:45:44Z</time>
      </trkpt>
      <trkpt lat="43.15121" lon="2.96735">
        <ele>54</ele>
        <time>2015-11-22T10:45:49Z</time>
      </trkpt>
      <trkpt lat="43.15122" lon="2.96719">
        <ele>55</ele>
        <time>2015-11-22T10:45:54Z</time>
      </trkpt>
      <trkpt lat="43.15125" lon="2.96703">
        <ele>57</ele>
        <time>2015-11-22T10:46:00Z</time>
      </trkpt>
      <trkpt lat="43.1513" lon="2.96687">
        <ele>57</ele>
        <time>2015-11-22T10:46:06Z</time>
      </trkpt>
      <trkpt lat="43.15135" lon="2.96671">
        <ele>57</ele>
        <time>2015-11-22T10:46:12Z</time>
      </trkpt>
      <trkpt lat="43.15139" lon="2.96655">
        <ele>60</ele>
        <time>2015-11-22T10:46:18Z</time>
      </trkpt>
      <trkpt lat="43.15144" lon="2.96642">
        <ele>60</ele>
        <time>2015-11-22T10:46:24Z</time>
      </trkpt>
      <trkpt lat="43.15149" lon="2.96628">
        <ele>62</ele>
        <time>2015-11-22T10:46:30Z</time>
      </trkpt>
      <trkpt lat="43.1515" lon="2.96612">
        <ele>62</ele>
        <time>2015-11-22T10:46:35Z</time>
      </trkpt>
      <trkpt lat="43.15152" lon="2.96597">
        <ele>62</ele>
        <time>2015-11-22T10:46:41Z</time>
      </trkpt>
      <trkpt lat="43.15154" lon="2.96582">
        <ele>65</ele>
        <time>2015-11-22T10:46:47Z</time>
      </trkpt>
      <trkpt lat="43.15157" lon="2.96568">
        <ele>65</ele>
        <time>2015-11-22T10:46:53Z</time>
      </trkpt>
      <trkpt lat="43.15162" lon="2.9655">
        <ele>64</ele>
        <time>2015-11-22T10:47:01Z</time>
      </trkpt>
      <trkpt lat="43.15162" lon="2.96538">
        <ele>65</ele>
        <time>2015-11-22T10:47:05Z</time>
      </trkpt>
      <trkpt lat="43.15164" lon="2.96526">
        <ele>66</ele>
        <time>2015-11-22T10:47:10Z</time>
      </trkpt>
      <trkpt lat="43.15167" lon="2.9651">
        <ele>66</ele>
        <time>2015-11-22T10:47:16Z</time>
      </trkpt>
      <trkpt lat="43.15171" lon="2.96495">
        <ele>68</ele>
        <time>2015-11-22T10:47:22Z</time>
      </trkpt>
      <trkpt lat="43.15174" lon="2.96483">
        <ele>69</ele>
        <time>2015-11-22T10:47:28Z</time>
      </trkpt>
      <trkpt lat="43.15179" lon="2.96471">
        <ele>68</ele>
        <time>2015-11-22T10:47:34Z</time>
      </trkpt>
      <trkpt lat="43.15185" lon="2.96481">
        <ele>68</ele>
        <time>2015-11-22T10:47:40Z</time>
      </trkpt>
      <trkpt lat="43.15184" lon="2.96497">
        <ele>70</ele>
        <time>2015-11-22T10:47:46Z</time>
      </trkpt>
      <trkpt lat="43.15183" lon="2.96527">
        <ele>71</ele>
        <time>2015-11-22T10:47:58Z</time>
      </trkpt>
      <trkpt lat="43.15184" lon="2.96532">
        <ele>72</ele>
        <time>2015-11-22T10:48:00Z</time>
      </trkpt>
      <trkpt lat="43.15185" lon="2.96548">
        <ele>74</ele>
        <time>2015-11-22T10:48:06Z</time>
      </trkpt>
      <trkpt lat="43.15186" lon="2.96561">
        <ele>74</ele>
        <time>2015-11-22T10:48:10Z</time>
      </trkpt>
      <trkpt lat="43.1519" lon="2.96576">
        <ele>77</ele>
        <time>2015-11-22T10:48:16Z</time>
      </trkpt>
      <trkpt lat="43.15195" lon="2.9659">
        <ele>75</ele>
        <time>2015-11-22T10:48:21Z</time>
      </trkpt>
      <trkpt lat="43.15206" lon="2.96598">
        <ele>76</ele>
        <time>2015-11-22T10:48:27Z</time>
      </trkpt>
      <trkpt lat="43.15215" lon="2.96583">
        <ele>77</ele>
        <time>2015-11-22T10:48:37Z</time>
      </trkpt>
      <trkpt lat="43.15213" lon="2.96571">
        <ele>78</ele>
        <time>2015-11-22T10:48:42Z</time>
      </trkpt>
      <trkpt lat="43.15213" lon="2.96562">
        <ele>78</ele>
        <time>2015-11-22T10:48:46Z</time>
      </trkpt>
      <trkpt lat="43.15211" lon="2.96553">
        <ele>79</ele>
        <time>2015-11-22T10:48:50Z</time>
      </trkpt>
      <trkpt lat="43.15211" lon="2.96538">
        <ele>80</ele>
        <time>2015-11-22T10:48:56Z</time>
      </trkpt>
      <trkpt lat="43.15211" lon="2.96522">
        <ele>79</ele>
        <time>2015-11-22T10:49:02Z</time>
      </trkpt>
      <trkpt lat="43.15214" lon="2.96508">
        <ele>80</ele>
        <time>2015-11-22T10:49:07Z</time>
      </trkpt>
      <trkpt lat="43.15217" lon="2.96492">
        <ele>80</ele>
        <time>2015-11-22T10:49:13Z</time>
      </trkpt>
      <trkpt lat="43.1522" lon="2.96477">
        <ele>81</ele>
        <time>2015-11-22T10:49:18Z</time>
      </trkpt>
      <trkpt lat="43.15224" lon="2.96454">
        <ele>81</ele>
        <time>2015-11-22T10:49:26Z</time>
      </trkpt>
      <trkpt lat="43.15226" lon="2.96441">
        <ele>81</ele>
        <time>2015-11-22T10:49:30Z</time>
      </trkpt>
      <trkpt lat="43.15228" lon="2.96421">
        <ele>82</ele>
        <time>2015-11-22T10:49:36Z</time>
      </trkpt>
      <trkpt lat="43.15231" lon="2.96402">
        <ele>84</ele>
        <time>2015-11-22T10:49:42Z</time>
      </trkpt>
      <trkpt lat="43.15235" lon="2.96383">
        <ele>85</ele>
        <time>2015-11-22T10:49:48Z</time>
      </trkpt>
      <trkpt lat="43.15238" lon="2.96363">
        <ele>87</ele>
        <time>2015-11-22T10:49:54Z</time>
      </trkpt>
      <trkpt lat="43.1524" lon="2.96347">
        <ele>87</ele>
        <time>2015-11-22T10:49:59Z</time>
      </trkpt>
      <trkpt lat="43.1524" lon="2.9633">
        <ele>88</ele>
        <time>2015-11-22T10:50:04Z</time>
      </trkpt>
      <trkpt lat="43.1524" lon="2.96315">
        <ele>85</ele>
        <time>2015-11-22T10:50:09Z</time>
      </trkpt>
      <trkpt lat="43.15238" lon="2.96301">
        <ele>85</ele>
        <time>2015-11-22T10:50:14Z</time>
      </trkpt>
      <trkpt lat="43.15234" lon="2.96282">
        <ele>83</ele>
        <time>2015-11-22T10:50:20Z</time>
      </trkpt>
      <trkpt lat="43.15232" lon="2.96265">
        <ele>84</ele>
        <time>2015-11-22T10:50:26Z</time>
      </trkpt>
      <trkpt lat="43.15231" lon="2.9625">
        <ele>85</ele>
        <time>2015-11-22T10:50:32Z</time>
      </trkpt>
      <trkpt lat="43.15233" lon="2.96238">
        <ele>86</ele>
        <time>2015-11-22T10:50:37Z</time>
      </trkpt>
      <trkpt lat="43.15237" lon="2.96222">
        <ele>85</ele>
        <time>2015-11-22T10:50:43Z</time>
      </trkpt>
      <trkpt lat="43.15242" lon="2.9621">
        <ele>85</ele>
        <time>2015-11-22T10:50:49Z</time>
      </trkpt>
      <trkpt lat="43.15252" lon="2.96197">
        <ele>87</ele>
        <time>2015-11-22T10:50:57Z</time>
      </trkpt>
      <trkpt lat="43.15254" lon="2.96179">
        <ele>90</ele>
        <time>2015-11-22T10:51:06Z</time>
      </trkpt>
      <trkpt lat="43.15253" lon="2.96177">
        <ele>90</ele>
        <time>2015-11-22T10:51:07Z</time>
      </trkpt>
      <trkpt lat="43.15244" lon="2.96178">
        <ele>90</ele>
        <time>2015-11-22T10:51:12Z</time>
      </trkpt>
      <trkpt lat="43.15232" lon="2.96183">
        <ele>92</ele>
        <time>2015-11-22T10:51:18Z</time>
      </trkpt>
      <trkpt lat="43.15221" lon="2.96189">
        <ele>93</ele>
        <time>2015-11-22T10:51:24Z</time>
      </trkpt>
      <trkpt lat="43.15212" lon="2.9619">
        <ele>92</ele>
        <time>2015-11-22T10:51:30Z</time>
      </trkpt>
      <trkpt lat="43.15211" lon="2.9619">
        <ele>92</ele>
        <time>2015-11-22T10:51:36Z</time>
      </trkpt>
      <trkpt lat="43.15211" lon="2.96189">
        <ele>92</ele>
        <time>2015-11-22T10:51:42Z</time>
      </trkpt>
      <trkpt lat="43.15211" lon="2.96189">
        <ele>92</ele>
        <time>2015-11-22T10:51:47Z</time>
      </trkpt>
      <trkpt lat="43.15211" lon="2.96189">
        <ele>92</ele>
        <time>2015-11-22T10:51:52Z</time>
      </trkpt>
      <trkpt lat="43.15211" lon="2.96189">
        <ele>92</ele>
        <time>2015-11-22T10:51:58Z</time>
      </trkpt>
      <trkpt lat="43.15211" lon="2.96189">
        <ele>92</ele>
        <time>2015-11-22T10:52:04Z</time>
      </trkpt>
      <trkpt lat="43.15207" lon="2.96189">
        <ele>94</ele>
        <time>2015-11-22T10:52:10Z</time>
      </trkpt>
      <trkpt lat="43.15205" lon="2.96188">
        <ele>95</ele>
        <time>2015-11-22T10:52:16Z</time>
      </trkpt>
      <trkpt lat="43.15205" lon="2.96188">
        <ele>94</ele>
        <time>2015-11-22T10:52:22Z</time>
      </trkpt>
      <trkpt lat="43.15205" lon="2.96188">
        <ele>94</ele>
        <time>2015-11-22T10:52:28Z</time>
      </trkpt>
      <trkpt lat="43.15203" lon="2.9619">
        <ele>94</ele>
        <time>2015-11-22T10:52:39Z</time>
      </trkpt>
      <trkpt lat="43.15201" lon="2.96191">
        <ele>94</ele>
        <time>2015-11-22T10:52:40Z</time>
      </trkpt>
      <trkpt lat="43.1519" lon="2.96187">
        <ele>97</ele>
        <time>2015-11-22T10:52:46Z</time>
      </trkpt>
      <trkpt lat="43.15179" lon="2.96181">
        <ele>98</ele>
        <time>2015-11-22T10:52:52Z</time>
      </trkpt>
      <trkpt lat="43.15174" lon="2.96169">
        <ele>99</ele>
        <time>2015-11-22T10:52:58Z</time>
      </trkpt>
      <trkpt lat="43.15174" lon="2.96166">
        <ele>100</ele>
        <time>2015-11-22T10:53:04Z</time>
      </trkpt>
      <trkpt lat="43.15173" lon="2.96165">
        <ele>100</ele>
        <time>2015-11-22T10:53:12Z</time>
      </trkpt>
      <trkpt lat="43.15173" lon="2.96165">
        <ele>100</ele>
        <time>2015-11-22T10:53:16Z</time>
      </trkpt>
      <trkpt lat="43.15173" lon="2.96165">
        <ele>100</ele>
        <time>2015-11-22T10:53:22Z</time>
      </trkpt>
      <trkpt lat="43.15173" lon="2.96165">
        <ele>100</ele>
        <time>2015-11-22T10:53:27Z</time>
      </trkpt>
      <trkpt lat="43.15173" lon="2.96166">
        <ele>101</ele>
        <time>2015-11-22T10:53:32Z</time>
      </trkpt>
      <trkpt lat="43.15174" lon="2.96166">
        <ele>101</ele>
        <time>2015-11-22T10:53:40Z</time>
      </trkpt>
      <trkpt lat="43.15174" lon="2.96166">
        <ele>101</ele>
        <time>2015-11-22T10:53:45Z</time>
      </trkpt>
      <trkpt lat="43.15167" lon="2.96157">
        <ele>99</ele>
        <time>2015-11-22T10:53:50Z</time>
      </trkpt>
      <trkpt lat="43.15162" lon="2.96135">
        <ele>100</ele>
        <time>2015-11-22T10:53:59Z</time>
      </trkpt>
      <trkpt lat="43.15162" lon="2.96133">
        <ele>100</ele>
        <time>2015-11-22T10:54:00Z</time>
      </trkpt>
      <trkpt lat="43.15164" lon="2.96119">
        <ele>102</ele>
        <time>2015-11-22T10:54:05Z</time>
      </trkpt>
      <trkpt lat="43.15163" lon="2.96102">
        <ele>103</ele>
        <time>2015-11-22T10:54:11Z</time>
      </trkpt>
      <trkpt lat="43.15159" lon="2.96077">
        <ele>104</ele>
        <time>2015-11-22T10:54:17Z</time>
      </trkpt>
      <trkpt lat="43.15146" lon="2.96015">
        <ele>103</ele>
        <time>2015-11-22T10:54:29Z</time>
      </trkpt>
      <trkpt lat="43.15145" lon="2.96009">
        <ele>102</ele>
        <time>2015-11-22T10:54:30Z</time>
      </trkpt>
      <trkpt lat="43.15135" lon="2.95974">
        <ele>100</ele>
        <time>2015-11-22T10:54:35Z</time>
      </trkpt>
      <trkpt lat="43.15116" lon="2.95919">
        <ele>98</ele>
        <time>2015-11-22T10:54:44Z</time>
      </trkpt>
      <trkpt lat="43.15092" lon="2.95893">
        <ele>97</ele>
        <time>2015-11-22T10:54:50Z</time>
      </trkpt>
      <trkpt lat="43.15079" lon="2.95886">
        <ele>99</ele>
        <time>2015-11-22T10:54:53Z</time>
      </trkpt>
      <trkpt lat="43.15055" lon="2.95873">
        <ele>97</ele>
        <time>2015-11-22T10:54:59Z</time>
      </trkpt>
      <trkpt lat="43.1504" lon="2.95881">
        <ele>97</ele>
        <time>2015-11-22T10:55:05Z</time>
      </trkpt>
      <trkpt lat="43.15035" lon="2.95898">
        <ele>97</ele>
        <time>2015-11-22T10:55:11Z</time>
      </trkpt>
      <trkpt lat="43.15031" lon="2.95915">
        <ele>97</ele>
        <time>2015-11-22T10:55:17Z</time>
      </trkpt>
      <trkpt lat="43.15022" lon="2.9593">
        <ele>98</ele>
        <time>2015-11-22T10:55:23Z</time>
      </trkpt>
      <trkpt lat="43.15011" lon="2.95942">
        <ele>98</ele>
        <time>2015-11-22T10:55:29Z</time>
      </trkpt>
      <trkpt lat="43.14995" lon="2.95955">
        <ele>98</ele>
        <time>2015-11-22T10:55:35Z</time>
      </trkpt>
      <trkpt lat="43.14981" lon="2.95978">
        <ele>98</ele>
        <time>2015-11-22T10:55:40Z</time>
      </trkpt>
      <trkpt lat="43.14984" lon="2.96017">
        <ele>97</ele>
        <time>2015-11-22T10:55:46Z</time>
      </trkpt>
      <trkpt lat="43.14998" lon="2.96056">
        <ele>94</ele>
        <time>2015-11-22T10:55:52Z</time>
      </trkpt>
      <trkpt lat="43.14979" lon="2.96155">
        <ele>84</ele>
        <time>2015-11-22T10:56:04Z</time>
      </trkpt>
      <trkpt lat="43.15023" lon="2.96463">
        <ele>62</ele>
        <time>2015-11-22T10:56:42Z</time>
      </trkpt>
      <trkpt lat="43.15025" lon="2.96451">
        <ele>64</ele>
        <time>2015-11-22T10:56:47Z</time>
      </trkpt>
      <trkpt lat="43.15024" lon="2.96438">
        <ele>65</ele>
        <time>2015-11-22T10:56:53Z</time>
      </trkpt>
      <trkpt lat="43.15019" lon="2.96426">
        <ele>67</ele>
        <time>2015-11-22T10:56:59Z</time>
      </trkpt>
      <trkpt lat="43.15015" lon="2.96413">
        <ele>67</ele>
        <time>2015-11-22T10:57:05Z</time>
      </trkpt>
      <trkpt lat="43.15011" lon="2.96402">
        <ele>69</ele>
        <time>2015-11-22T10:57:11Z</time>
      </trkpt>
      <trkpt lat="43.15005" lon="2.9639">
        <ele>71</ele>
        <time>2015-11-22T10:57:17Z</time>
      </trkpt>
      <trkpt lat="43.14997" lon="2.96379">
        <ele>69</ele>
        <time>2015-11-22T10:57:23Z</time>
      </trkpt>
      <trkpt lat="43.1499" lon="2.96369">
        <ele>68</ele>
        <time>2015-11-22T10:57:28Z</time>
      </trkpt>
      <trkpt lat="43.14981" lon="2.96358">
        <ele>69</ele>
        <time>2015-11-22T10:57:34Z</time>
      </trkpt>
      <trkpt lat="43.14974" lon="2.96347">
        <ele>69</ele>
        <time>2015-11-22T10:57:40Z</time>
      </trkpt>
      <trkpt lat="43.14972" lon="2.96331">
        <ele>69</ele>
        <time>2015-11-22T10:57:46Z</time>
      </trkpt>
      <trkpt lat="43.14979" lon="2.96306">
        <ele>68</ele>
        <time>2015-11-22T10:57:51Z</time>
      </trkpt>
      <trkpt lat="43.14977" lon="2.96268">
        <ele>67</ele>
        <time>2015-11-22T10:57:57Z</time>
      </trkpt>
      <trkpt lat="43.14964" lon="2.96232">
        <ele>63</ele>
        <time>2015-11-22T10:58:03Z</time>
      </trkpt>
      <trkpt lat="43.14915" lon="2.96206">
        <ele>61</ele>
        <time>2015-11-22T10:58:12Z</time>
      </trkpt>
      <trkpt lat="43.14899" lon="2.96203">
        <ele>62</ele>
        <time>2015-11-22T10:58:15Z</time>
      </trkpt>
      <trkpt lat="43.14864" lon="2.96201">
        <ele>57</ele>
        <time>2015-11-22T10:58:24Z</time>
      </trkpt>
      <trkpt lat="43.14863" lon="2.96187">
        <ele>56</ele>
        <time>2015-11-22T10:58:26Z</time>
      </trkpt>
      <trkpt lat="43.14858" lon="2.9615">
        <ele>55</ele>
        <time>2015-11-22T10:58:31Z</time>
      </trkpt>
      <trkpt lat="43.14853" lon="2.96114">
        <ele>55</ele>
        <time>2015-11-22T10:58:36Z</time>
      </trkpt>
      <trkpt lat="43.14851" lon="2.96072">
        <ele>53</ele>
        <time>2015-11-22T10:58:42Z</time>
      </trkpt>
      <trkpt lat="43.14843" lon="2.96055">
        <ele>52</ele>
        <time>2015-11-22T10:58:48Z</time>
      </trkpt>
      <trkpt lat="43.14835" lon="2.96042">
        <ele>54</ele>
        <time>2015-11-22T10:58:54Z</time>
      </trkpt>
      <trkpt lat="43.14822" lon="2.96028">
        <ele>55</ele>
        <time>2015-11-22T10:59:03Z</time>
      </trkpt>
      <trkpt lat="43.14819" lon="2.96024">
        <ele>56</ele>
        <time>2015-11-22T10:59:06Z</time>
      </trkpt>
      <trkpt lat="43.14812" lon="2.96017">
        <ele>58</ele>
        <time>2015-11-22T10:59:11Z</time>
      </trkpt>
      <trkpt lat="43.14806" lon="2.96011">
        <ele>60</ele>
        <time>2015-11-22T10:59:17Z</time>
      </trkpt>
      <trkpt lat="43.14799" lon="2.96004">
        <ele>62</ele>
        <time>2015-11-22T10:59:23Z</time>
      </trkpt>
      <trkpt lat="43.14791" lon="2.95997">
        <ele>63</ele>
        <time>2015-11-22T10:59:29Z</time>
      </trkpt>
      <trkpt lat="43.14784" lon="2.95991">
        <ele>63</ele>
        <time>2015-11-22T10:59:35Z</time>
      </trkpt>
      <trkpt lat="43.14777" lon="2.95984">
        <ele>66</ele>
        <time>2015-11-22T10:59:41Z</time>
      </trkpt>
      <trkpt lat="43.1477" lon="2.95979">
        <ele>67</ele>
        <time>2015-11-22T10:59:47Z</time>
      </trkpt>
      <trkpt lat="43.14763" lon="2.95974">
        <ele>70</ele>
        <time>2015-11-22T10:59:53Z</time>
      </trkpt>
      <trkpt lat="43.14761" lon="2.95973">
        <ele>70</ele>
        <time>2015-11-22T10:59:59Z</time>
      </trkpt>
      <trkpt lat="43.14754" lon="2.95968">
        <ele>72</ele>
        <time>2015-11-22T11:00:06Z</time>
      </trkpt>
      <trkpt lat="43.14747" lon="2.95964">
        <ele>72</ele>
        <time>2015-11-22T11:00:11Z</time>
      </trkpt>
      <trkpt lat="43.14743" lon="2.95961">
        <ele>73</ele>
        <time>2015-11-22T11:00:16Z</time>
      </trkpt>
      <trkpt lat="43.14741" lon="2.95958">
        <ele>74</ele>
        <time>2015-11-22T11:00:22Z</time>
      </trkpt>
      <trkpt lat="43.14737" lon="2.95956">
        <ele>75</ele>
        <time>2015-11-22T11:00:27Z</time>
      </trkpt>
      <trkpt lat="43.14733" lon="2.95955">
        <ele>75</ele>
        <time>2015-11-22T11:00:33Z</time>
      </trkpt>
      <trkpt lat="43.14728" lon="2.95954">
        <ele>76</ele>
        <time>2015-11-22T11:00:39Z</time>
      </trkpt>
      <trkpt lat="43.14724" lon="2.95954">
        <ele>75</ele>
        <time>2015-11-22T11:00:44Z</time>
      </trkpt>
      <trkpt lat="43.14718" lon="2.95956">
        <ele>75</ele>
        <time>2015-11-22T11:00:49Z</time>
      </trkpt>
      <trkpt lat="43.14711" lon="2.95956">
        <ele>77</ele>
        <time>2015-11-22T11:00:55Z</time>
      </trkpt>
      <trkpt lat="43.14707" lon="2.95961">
        <ele>75</ele>
        <time>2015-11-22T11:01:02Z</time>
      </trkpt>
      <trkpt lat="43.14702" lon="2.95961">
        <ele>75</ele>
        <time>2015-11-22T11:01:06Z</time>
      </trkpt>
      <trkpt lat="43.14696" lon="2.95964">
        <ele>76</ele>
        <time>2015-11-22T11:01:12Z</time>
      </trkpt>
      <trkpt lat="43.1469" lon="2.95965">
        <ele>78</ele>
        <time>2015-11-22T11:01:18Z</time>
      </trkpt>
      <trkpt lat="43.14684" lon="2.95969">
        <ele>77</ele>
        <time>2015-11-22T11:01:24Z</time>
      </trkpt>
      <trkpt lat="43.14676" lon="2.95973">
        <ele>81</ele>
        <time>2015-11-22T11:01:31Z</time>
      </trkpt>
      <trkpt lat="43.14673" lon="2.95977">
        <ele>80</ele>
        <time>2015-11-22T11:01:35Z</time>
      </trkpt>
      <trkpt lat="43.14667" lon="2.9598">
        <ele>81</ele>
        <time>2015-11-22T11:01:41Z</time>
      </trkpt>
      <trkpt lat="43.14661" lon="2.95983">
        <ele>82</ele>
        <time>2015-11-22T11:01:47Z</time>
      </trkpt>
      <trkpt lat="43.14651" lon="2.95989">
        <ele>83</ele>
        <time>2015-11-22T11:01:55Z</time>
      </trkpt>
      <trkpt lat="43.14647" lon="2.95991">
        <ele>84</ele>
        <time>2015-11-22T11:01:59Z</time>
      </trkpt>
      <trkpt lat="43.14642" lon="2.95991">
        <ele>85</ele>
        <time>2015-11-22T11:02:04Z</time>
      </trkpt>
      <trkpt lat="43.14636" lon="2.95988">
        <ele>87</ele>
        <time>2015-11-22T11:02:10Z</time>
      </trkpt>
      <trkpt lat="43.14636" lon="2.95988">
        <ele>87</ele>
        <time>2015-11-22T11:02:16Z</time>
      </trkpt>
      <trkpt lat="43.14635" lon="2.95987">
        <ele>85</ele>
        <time>2015-11-22T11:02:23Z</time>
      </trkpt>
      <trkpt lat="43.14635" lon="2.95988">
        <ele>86</ele>
        <time>2015-11-22T11:02:27Z</time>
      </trkpt>
      <trkpt lat="43.14636" lon="2.95989">
        <ele>86</ele>
        <time>2015-11-22T11:02:33Z</time>
      </trkpt>
      <trkpt lat="43.14636" lon="2.95989">
        <ele>87</ele>
        <time>2015-11-22T11:02:39Z</time>
      </trkpt>
      <trkpt lat="43.14636" lon="2.95989">
        <ele>88</ele>
        <time>2015-11-22T11:02:45Z</time>
      </trkpt>
      <trkpt lat="43.14635" lon="2.95989">
        <ele>87</ele>
        <time>2015-11-22T11:02:50Z</time>
      </trkpt>
      <trkpt lat="43.14634" lon="2.95987">
        <ele>88</ele>
        <time>2015-11-22T11:02:56Z</time>
      </trkpt>
      <trkpt lat="43.14631" lon="2.95987">
        <ele>89</ele>
        <time>2015-11-22T11:03:02Z</time>
      </trkpt>
      <trkpt lat="43.14623" lon="2.9598">
        <ele>90</ele>
        <time>2015-11-22T11:03:08Z</time>
      </trkpt>
      <trkpt lat="43.14614" lon="2.95972">
        <ele>92</ele>
        <time>2015-11-22T11:03:14Z</time>
      </trkpt>
      <trkpt lat="43.14604" lon="2.95966">
        <ele>94</ele>
        <time>2015-11-22T11:03:20Z</time>
      </trkpt>
      <trkpt lat="43.14598" lon="2.95959">
        <ele>95</ele>
        <time>2015-11-22T11:03:25Z</time>
      </trkpt>
      <trkpt lat="43.14591" lon="2.95952">
        <ele>97</ele>
        <time>2015-11-22T11:03:31Z</time>
      </trkpt>
      <trkpt lat="43.14584" lon="2.95945">
        <ele>97</ele>
        <time>2015-11-22T11:03:37Z</time>
      </trkpt>
      <trkpt lat="43.14577" lon="2.95936">
        <ele>99</ele>
        <time>2015-11-22T11:03:43Z</time>
      </trkpt>
      <trkpt lat="43.14571" lon="2.95929">
        <ele>99</ele>
        <time>2015-11-22T11:03:49Z</time>
      </trkpt>
      <trkpt lat="43.14564" lon="2.95922">
        <ele>100</ele>
        <time>2015-11-22T11:03:55Z</time>
      </trkpt>
      <trkpt lat="43.14557" lon="2.95915">
        <ele>100</ele>
        <time>2015-11-22T11:04:01Z</time>
      </trkpt>
      <trkpt lat="43.1455" lon="2.95911">
        <ele>100</ele>
        <time>2015-11-22T11:04:06Z</time>
      </trkpt>
      <trkpt lat="43.14547" lon="2.95906">
        <ele>101</ele>
        <time>2015-11-22T11:04:11Z</time>
      </trkpt>
      <trkpt lat="43.14546" lon="2.95899">
        <ele>104</ele>
        <time>2015-11-22T11:04:17Z</time>
      </trkpt>
      <trkpt lat="43.14547" lon="2.95893">
        <ele>105</ele>
        <time>2015-11-22T11:04:23Z</time>
      </trkpt>
      <trkpt lat="43.14551" lon="2.95891">
        <ele>105</ele>
        <time>2015-11-22T11:04:28Z</time>
      </trkpt>
      <trkpt lat="43.14562" lon="2.95887">
        <ele>108</ele>
        <time>2015-11-22T11:04:38Z</time>
      </trkpt>
      <trkpt lat="43.14568" lon="2.95883">
        <ele>109</ele>
        <time>2015-11-22T11:04:45Z</time>
      </trkpt>
      <trkpt lat="43.14569" lon="2.95882">
        <ele>109</ele>
        <time>2015-11-22T11:04:46Z</time>
      </trkpt>
      <trkpt lat="43.14577" lon="2.95875">
        <ele>109</ele>
        <time>2015-11-22T11:04:53Z</time>
      </trkpt>
      <trkpt lat="43.14583" lon="2.95866">
        <ele>111</ele>
        <time>2015-11-22T11:04:58Z</time>
      </trkpt>
      <trkpt lat="43.14586" lon="2.95857">
        <ele>111</ele>
        <time>2015-11-22T11:05:03Z</time>
      </trkpt>
      <trkpt lat="43.14591" lon="2.95846">
        <ele>110</ele>
        <time>2015-11-22T11:05:09Z</time>
      </trkpt>
      <trkpt lat="43.14596" lon="2.95837">
        <ele>112</ele>
        <time>2015-11-22T11:05:15Z</time>
      </trkpt>
      <trkpt lat="43.146" lon="2.95826">
        <ele>111</ele>
        <time>2015-11-22T11:05:21Z</time>
      </trkpt>
      <trkpt lat="43.14605" lon="2.95818">
        <ele>110</ele>
        <time>2015-11-22T11:05:27Z</time>
      </trkpt>
      <trkpt lat="43.1461" lon="2.95809">
        <ele>111</ele>
        <time>2015-11-22T11:05:33Z</time>
      </trkpt>
      <trkpt lat="43.14613" lon="2.958">
        <ele>113</ele>
        <time>2015-11-22T11:05:38Z</time>
      </trkpt>
      <trkpt lat="43.14616" lon="2.95792">
        <ele>113</ele>
        <time>2015-11-22T11:05:44Z</time>
      </trkpt>
      <trkpt lat="43.14619" lon="2.95784">
        <ele>111</ele>
        <time>2015-11-22T11:05:49Z</time>
      </trkpt>
      <trkpt lat="43.14622" lon="2.9578">
        <ele>110</ele>
        <time>2015-11-22T11:05:54Z</time>
      </trkpt>
      <trkpt lat="43.14622" lon="2.95772">
        <ele>112</ele>
        <time>2015-11-22T11:06:00Z</time>
      </trkpt>
      <trkpt lat="43.1462" lon="2.95766">
        <ele>115</ele>
        <time>2015-11-22T11:06:06Z</time>
      </trkpt>
      <trkpt lat="43.14615" lon="2.95761">
        <ele>116</ele>
        <time>2015-11-22T11:06:12Z</time>
      </trkpt>
      <trkpt lat="43.14607" lon="2.95754">
        <ele>117</ele>
        <time>2015-11-22T11:06:18Z</time>
      </trkpt>
      <trkpt lat="43.14598" lon="2.95748">
        <ele>118</ele>
        <time>2015-11-22T11:06:24Z</time>
      </trkpt>
      <trkpt lat="43.14592" lon="2.95743">
        <ele>119</ele>
        <time>2015-11-22T11:06:29Z</time>
      </trkpt>
      <trkpt lat="43.14584" lon="2.95738">
        <ele>119</ele>
        <time>2015-11-22T11:06:34Z</time>
      </trkpt>
      <trkpt lat="43.14576" lon="2.95732">
        <ele>121</ele>
        <time>2015-11-22T11:06:40Z</time>
      </trkpt>
      <trkpt lat="43.14566" lon="2.95726">
        <ele>122</ele>
        <time>2015-11-22T11:06:47Z</time>
      </trkpt>
      <trkpt lat="43.14559" lon="2.95722">
        <ele>124</ele>
        <time>2015-11-22T11:06:52Z</time>
      </trkpt>
      <trkpt lat="43.14553" lon="2.95719">
        <ele>125</ele>
        <time>2015-11-22T11:06:58Z</time>
      </trkpt>
      <trkpt lat="43.14546" lon="2.95716">
        <ele>126</ele>
        <time>2015-11-22T11:07:04Z</time>
      </trkpt>
      <trkpt lat="43.14541" lon="2.9571">
        <ele>128</ele>
        <time>2015-11-22T11:07:10Z</time>
      </trkpt>
      <trkpt lat="43.14536" lon="2.95707">
        <ele>128</ele>
        <time>2015-11-22T11:07:15Z</time>
      </trkpt>
      <trkpt lat="43.1453" lon="2.957">
        <ele>128</ele>
        <time>2015-11-22T11:07:21Z</time>
      </trkpt>
      <trkpt lat="43.14525" lon="2.95695">
        <ele>128</ele>
        <time>2015-11-22T11:07:26Z</time>
      </trkpt>
      <trkpt lat="43.14519" lon="2.95689">
        <ele>130</ele>
        <time>2015-11-22T11:07:32Z</time>
      </trkpt>
      <trkpt lat="43.14514" lon="2.95681">
        <ele>130</ele>
        <time>2015-11-22T11:07:38Z</time>
      </trkpt>
      <trkpt lat="43.14509" lon="2.95673">
        <ele>132</ele>
        <time>2015-11-22T11:07:44Z</time>
      </trkpt>
      <trkpt lat="43.14505" lon="2.95666">
        <ele>133</ele>
        <time>2015-11-22T11:07:49Z</time>
      </trkpt>
      <trkpt lat="43.14502" lon="2.95656">
        <ele>133</ele>
        <time>2015-11-22T11:07:54Z</time>
      </trkpt>
      <trkpt lat="43.14498" lon="2.95645">
        <ele>134</ele>
        <time>2015-11-22T11:08:00Z</time>
      </trkpt>
      <trkpt lat="43.14493" lon="2.95635">
        <ele>134</ele>
        <time>2015-11-22T11:08:06Z</time>
      </trkpt>
      <trkpt lat="43.1448" lon="2.9563">
        <ele>132</ele>
        <time>2015-11-22T11:08:11Z</time>
      </trkpt>
      <trkpt lat="43.14453" lon="2.95633">
        <ele>127</ele>
        <time>2015-11-22T11:08:17Z</time>
      </trkpt>
      <trkpt lat="43.14422" lon="2.95614">
        <ele>125</ele>
        <time>2015-11-22T11:08:23Z</time>
      </trkpt>
      <trkpt lat="43.14394" lon="2.95603">
        <ele>124</ele>
        <time>2015-11-22T11:08:28Z</time>
      </trkpt>
      <trkpt lat="43.14371" lon="2.95571">
        <ele>121</ele>
        <time>2015-11-22T11:08:34Z</time>
      </trkpt>
      <trkpt lat="43.14358" lon="2.95546">
        <ele>118</ele>
        <time>2015-11-22T11:08:40Z</time>
      </trkpt>
      <trkpt lat="43.14343" lon="2.95534">
        <ele>118</ele>
        <time>2015-11-22T11:08:45Z</time>
      </trkpt>
      <trkpt lat="43.14332" lon="2.95525">
        <ele>119</ele>
        <time>2015-11-22T11:08:51Z</time>
      </trkpt>
      <trkpt lat="43.14321" lon="2.95518">
        <ele>121</ele>
        <time>2015-11-22T11:08:57Z</time>
      </trkpt>
      <trkpt lat="43.14312" lon="2.95507">
        <ele>123</ele>
        <time>2015-11-22T11:09:03Z</time>
      </trkpt>
      <trkpt lat="43.14302" lon="2.95493">
        <ele>123</ele>
        <time>2015-11-22T11:09:09Z</time>
      </trkpt>
      <trkpt lat="43.14295" lon="2.95482">
        <ele>124</ele>
        <time>2015-11-22T11:09:14Z</time>
      </trkpt>
      <trkpt lat="43.14289" lon="2.95469">
        <ele>124</ele>
        <time>2015-11-22T11:09:20Z</time>
      </trkpt>
      <trkpt lat="43.14288" lon="2.9546">
        <ele>124</ele>
        <time>2015-11-22T11:09:25Z</time>
      </trkpt>
      <trkpt lat="43.14286" lon="2.95448">
        <ele>124</ele>
        <time>2015-11-22T11:09:31Z</time>
      </trkpt>
      <trkpt lat="43.14285" lon="2.95437">
        <ele>124</ele>
        <time>2015-11-22T11:09:36Z</time>
      </trkpt>
      <trkpt lat="43.14284" lon="2.95425">
        <ele>125</ele>
        <time>2015-11-22T11:09:42Z</time>
      </trkpt>
      <trkpt lat="43.14282" lon="2.95415">
        <ele>126</ele>
        <time>2015-11-22T11:09:48Z</time>
      </trkpt>
      <trkpt lat="43.14281" lon="2.95403">
        <ele>127</ele>
        <time>2015-11-22T11:09:54Z</time>
      </trkpt>
      <trkpt lat="43.1428" lon="2.95393">
        <ele>129</ele>
        <time>2015-11-22T11:10:00Z</time>
      </trkpt>
      <trkpt lat="43.14279" lon="2.95382">
        <ele>130</ele>
        <time>2015-11-22T11:10:06Z</time>
      </trkpt>
      <trkpt lat="43.14278" lon="2.95371">
        <ele>131</ele>
        <time>2015-11-22T11:10:12Z</time>
      </trkpt>
      <trkpt lat="43.14278" lon="2.95363">
        <ele>133</ele>
        <time>2015-11-22T11:10:18Z</time>
      </trkpt>
      <trkpt lat="43.14277" lon="2.95352">
        <ele>135</ele>
        <time>2015-11-22T11:10:24Z</time>
      </trkpt>
      <trkpt lat="43.14277" lon="2.95341">
        <ele>134</ele>
        <time>2015-11-22T11:10:30Z</time>
      </trkpt>
      <trkpt lat="43.14274" lon="2.95332">
        <ele>134</ele>
        <time>2015-11-22T11:10:35Z</time>
      </trkpt>
      <trkpt lat="43.14272" lon="2.9532">
        <ele>133</ele>
        <time>2015-11-22T11:10:40Z</time>
      </trkpt>
      <trkpt lat="43.14263" lon="2.95304">
        <ele>133</ele>
        <time>2015-11-22T11:10:45Z</time>
      </trkpt>
      <trkpt lat="43.14247" lon="2.95274">
        <ele>132</ele>
        <time>2015-11-22T11:10:51Z</time>
      </trkpt>
      <trkpt lat="43.14233" lon="2.95256">
        <ele>133</ele>
        <time>2015-11-22T11:10:57Z</time>
      </trkpt>
      <trkpt lat="43.14218" lon="2.95248">
        <ele>133</ele>
        <time>2015-11-22T11:11:03Z</time>
      </trkpt>
      <trkpt lat="43.14211" lon="2.95249">
        <ele>132</ele>
        <time>2015-11-22T11:11:09Z</time>
      </trkpt>
      <trkpt lat="43.14211" lon="2.9525">
        <ele>133</ele>
        <time>2015-11-22T11:11:15Z</time>
      </trkpt>
      <trkpt lat="43.14211" lon="2.9525">
        <ele>133</ele>
        <time>2015-11-22T11:11:22Z</time>
      </trkpt>
      <trkpt lat="43.14211" lon="2.9525">
        <ele>133</ele>
        <time>2015-11-22T11:11:26Z</time>
      </trkpt>
      <trkpt lat="43.14211" lon="2.9525">
        <ele>133</ele>
        <time>2015-11-22T11:11:32Z</time>
      </trkpt>
      <trkpt lat="43.14208" lon="2.95253">
        <ele>135</ele>
        <time>2015-11-22T11:11:38Z</time>
      </trkpt>
      <trkpt lat="43.142" lon="2.95266">
        <ele>134</ele>
        <time>2015-11-22T11:11:43Z</time>
      </trkpt>
      <trkpt lat="43.14193" lon="2.95291">
        <ele>132</ele>
        <time>2015-11-22T11:11:49Z</time>
      </trkpt>
      <trkpt lat="43.1418" lon="2.95327">
        <ele>129</ele>
        <time>2015-11-22T11:11:55Z</time>
      </trkpt>
      <trkpt lat="43.14168" lon="2.95365">
        <ele>130</ele>
        <time>2015-11-22T11:12:01Z</time>
      </trkpt>
      <trkpt lat="43.14153" lon="2.95384">
        <ele>131</ele>
        <time>2015-11-22T11:12:06Z</time>
      </trkpt>
      <trkpt lat="43.14131" lon="2.95405">
        <ele>132</ele>
        <time>2015-11-22T11:12:12Z</time>
      </trkpt>
      <trkpt lat="43.14113" lon="2.95428">
        <ele>130</ele>
        <time>2015-11-22T11:12:17Z</time>
      </trkpt>
      <trkpt lat="43.14085" lon="2.95438">
        <ele>127</ele>
        <time>2015-11-22T11:12:23Z</time>
      </trkpt>
      <trkpt lat="43.14051" lon="2.95434">
        <ele>125</ele>
        <time>2015-11-22T11:12:29Z</time>
      </trkpt>
      <trkpt lat="43.14024" lon="2.95441">
        <ele>123</ele>
        <time>2015-11-22T11:12:35Z</time>
      </trkpt>
      <trkpt lat="43.14016" lon="2.95421">
        <ele>122</ele>
        <time>2015-11-22T11:12:41Z</time>
      </trkpt>
      <trkpt lat="43.14" lon="2.95411">
        <ele>121</ele>
        <time>2015-11-22T11:12:47Z</time>
      </trkpt>
      <trkpt lat="43.13986" lon="2.95398">
        <ele>121</ele>
        <time>2015-11-22T11:12:53Z</time>
      </trkpt>
      <trkpt lat="43.13977" lon="2.95388">
        <ele>122</ele>
        <time>2015-11-22T11:12:58Z</time>
      </trkpt>
      <trkpt lat="43.13966" lon="2.95374">
        <ele>123</ele>
        <time>2015-11-22T11:13:04Z</time>
      </trkpt>
      <trkpt lat="43.13952" lon="2.95364">
        <ele>125</ele>
        <time>2015-11-22T11:13:10Z</time>
      </trkpt>
      <trkpt lat="43.13939" lon="2.95357">
        <ele>126</ele>
        <time>2015-11-22T11:13:15Z</time>
      </trkpt>
      <trkpt lat="43.13929" lon="2.95348">
        <ele>127</ele>
        <time>2015-11-22T11:13:20Z</time>
      </trkpt>
      <trkpt lat="43.13918" lon="2.95339">
        <ele>129</ele>
        <time>2015-11-22T11:13:26Z</time>
      </trkpt>
      <trkpt lat="43.13909" lon="2.9533">
        <ele>127</ele>
        <time>2015-11-22T11:13:31Z</time>
      </trkpt>
      <trkpt lat="43.13908" lon="2.95314">
        <ele>128</ele>
        <time>2015-11-22T11:13:37Z</time>
      </trkpt>
      <trkpt lat="43.13913" lon="2.95294">
        <ele>127</ele>
        <time>2015-11-22T11:13:43Z</time>
      </trkpt>
      <trkpt lat="43.13915" lon="2.95281">
        <ele>127</ele>
        <time>2015-11-22T11:13:49Z</time>
      </trkpt>
      <trkpt lat="43.13915" lon="2.9528">
        <ele>127</ele>
        <time>2015-11-22T11:13:55Z</time>
      </trkpt>
      <trkpt lat="43.13915" lon="2.95274">
        <ele>128</ele>
        <time>2015-11-22T11:14:00Z</time>
      </trkpt>
      <trkpt lat="43.13916" lon="2.95264">
        <ele>128</ele>
        <time>2015-11-22T11:14:05Z</time>
      </trkpt>
      <trkpt lat="43.13917" lon="2.95249">
        <ele>131</ele>
        <time>2015-11-22T11:14:11Z</time>
      </trkpt>
      <trkpt lat="43.13917" lon="2.95235">
        <ele>131</ele>
        <time>2015-11-22T11:14:17Z</time>
      </trkpt>
      <trkpt lat="43.13915" lon="2.95218">
        <ele>132</ele>
        <time>2015-11-22T11:14:23Z</time>
      </trkpt>
      <trkpt lat="43.13915" lon="2.95203">
        <ele>133</ele>
        <time>2015-11-22T11:14:29Z</time>
      </trkpt>
      <trkpt lat="43.13916" lon="2.95189">
        <ele>135</ele>
        <time>2015-11-22T11:14:36Z</time>
      </trkpt>
      <trkpt lat="43.13917" lon="2.95178">
        <ele>133</ele>
        <time>2015-11-22T11:14:40Z</time>
      </trkpt>
      <trkpt lat="43.13916" lon="2.95164">
        <ele>133</ele>
        <time>2015-11-22T11:14:46Z</time>
      </trkpt>
      <trkpt lat="43.13917" lon="2.95152">
        <ele>134</ele>
        <time>2015-11-22T11:14:52Z</time>
      </trkpt>
      <trkpt lat="43.13919" lon="2.95139">
        <ele>135</ele>
        <time>2015-11-22T11:14:58Z</time>
      </trkpt>
      <trkpt lat="43.13922" lon="2.95126">
        <ele>135</ele>
        <time>2015-11-22T11:15:04Z</time>
      </trkpt>
      <trkpt lat="43.13923" lon="2.95121">
        <ele>135</ele>
        <time>2015-11-22T11:15:10Z</time>
      </trkpt>
      <trkpt lat="43.13922" lon="2.9512">
        <ele>136</ele>
        <time>2015-11-22T11:15:16Z</time>
      </trkpt>
      <trkpt lat="43.13922" lon="2.9512">
        <ele>136</ele>
        <time>2015-11-22T11:15:21Z</time>
      </trkpt>
      <trkpt lat="43.13923" lon="2.95122">
        <ele>136</ele>
        <time>2015-11-22T11:15:26Z</time>
      </trkpt>
      <trkpt lat="43.13923" lon="2.95125">
        <ele>132</ele>
        <time>2015-11-22T11:15:32Z</time>
      </trkpt>
      <trkpt lat="43.13923" lon="2.9513">
        <ele>133</ele>
        <time>2015-11-22T11:15:37Z</time>
      </trkpt>
      <trkpt lat="43.13917" lon="2.95147">
        <ele>133</ele>
        <time>2015-11-22T11:15:43Z</time>
      </trkpt>
      <trkpt lat="43.13917" lon="2.9517">
        <ele>133</ele>
        <time>2015-11-22T11:15:49Z</time>
      </trkpt>
      <trkpt lat="43.13917" lon="2.95196">
        <ele>132</ele>
        <time>2015-11-22T11:15:55Z</time>
      </trkpt>
      <trkpt lat="43.13917" lon="2.95234">
        <ele>129</ele>
        <time>2015-11-22T11:16:01Z</time>
      </trkpt>
      <trkpt lat="43.13913" lon="2.9528">
        <ele>128</ele>
        <time>2015-11-22T11:16:07Z</time>
      </trkpt>
      <trkpt lat="43.13901" lon="2.95306">
        <ele>127</ele>
        <time>2015-11-22T11:16:12Z</time>
      </trkpt>
      <trkpt lat="43.13893" lon="2.95318">
        <ele>130</ele>
        <time>2015-11-22T11:16:18Z</time>
      </trkpt>
      <trkpt lat="43.1388" lon="2.95319">
        <ele>133</ele>
        <time>2015-11-22T11:16:24Z</time>
      </trkpt>
      <trkpt lat="43.13869" lon="2.95327">
        <ele>134</ele>
        <time>2015-11-22T11:16:30Z</time>
      </trkpt>
      <trkpt lat="43.13856" lon="2.95331">
        <ele>133</ele>
        <time>2015-11-22T11:16:37Z</time>
      </trkpt>
      <trkpt lat="43.13843" lon="2.9534">
        <ele>133</ele>
        <time>2015-11-22T11:16:42Z</time>
      </trkpt>
      <trkpt lat="43.13832" lon="2.95351">
        <ele>134</ele>
        <time>2015-11-22T11:16:48Z</time>
      </trkpt>
      <trkpt lat="43.13821" lon="2.95359">
        <ele>133</ele>
        <time>2015-11-22T11:16:53Z</time>
      </trkpt>
      <trkpt lat="43.13805" lon="2.95358">
        <ele>134</ele>
        <time>2015-11-22T11:16:59Z</time>
      </trkpt>
      <trkpt lat="43.13787" lon="2.95353">
        <ele>133</ele>
        <time>2015-11-22T11:17:05Z</time>
      </trkpt>
      <trkpt lat="43.1377" lon="2.95346">
        <ele>133</ele>
        <time>2015-11-22T11:17:11Z</time>
      </trkpt>
      <trkpt lat="43.13757" lon="2.95342">
        <ele>135</ele>
        <time>2015-11-22T11:17:17Z</time>
      </trkpt>
      <trkpt lat="43.13748" lon="2.95339">
        <ele>135</ele>
        <time>2015-11-22T11:17:23Z</time>
      </trkpt>
      <trkpt lat="43.13746" lon="2.95335">
        <ele>137</ele>
        <time>2015-11-22T11:17:30Z</time>
      </trkpt>
      <trkpt lat="43.13747" lon="2.95334">
        <ele>136</ele>
        <time>2015-11-22T11:17:35Z</time>
      </trkpt>
      <trkpt lat="43.13747" lon="2.95334">
        <ele>135</ele>
        <time>2015-11-22T11:17:40Z</time>
      </trkpt>
      <trkpt lat="43.13748" lon="2.95335">
        <ele>136</ele>
        <time>2015-11-22T11:17:46Z</time>
      </trkpt>
      <trkpt lat="43.13749" lon="2.95335">
        <ele>136</ele>
        <time>2015-11-22T11:17:52Z</time>
      </trkpt>
      <trkpt lat="43.13748" lon="2.95334">
        <ele>136</ele>
        <time>2015-11-22T11:17:57Z</time>
      </trkpt>
      <trkpt lat="43.13748" lon="2.95334">
        <ele>136</ele>
        <time>2015-11-22T11:18:03Z</time>
      </trkpt>
      <trkpt lat="43.13747" lon="2.95335">
        <ele>137</ele>
        <time>2015-11-22T11:18:10Z</time>
      </trkpt>
      <trkpt lat="43.13753" lon="2.9534">
        <ele>135</ele>
        <time>2015-11-22T11:18:14Z</time>
      </trkpt>
      <trkpt lat="43.1377" lon="2.95345">
        <ele>134</ele>
        <time>2015-11-22T11:18:20Z</time>
      </trkpt>
      <trkpt lat="43.13789" lon="2.95353">
        <ele>132</ele>
        <time>2015-11-22T11:18:25Z</time>
      </trkpt>
      <trkpt lat="43.13804" lon="2.95358">
        <ele>133</ele>
        <time>2015-11-22T11:18:31Z</time>
      </trkpt>
      <trkpt lat="43.13805" lon="2.95358">
        <ele>133</ele>
        <time>2015-11-22T11:18:36Z</time>
      </trkpt>
      <trkpt lat="43.13806" lon="2.95361">
        <ele>132</ele>
        <time>2015-11-22T11:18:43Z</time>
      </trkpt>
      <trkpt lat="43.13812" lon="2.95383">
        <ele>130</ele>
        <time>2015-11-22T11:18:48Z</time>
      </trkpt>
      <trkpt lat="43.13822" lon="2.95399">
        <ele>132</ele>
        <time>2015-11-22T11:18:54Z</time>
      </trkpt>
      <trkpt lat="43.13836" lon="2.95412">
        <ele>135</ele>
        <time>2015-11-22T11:19:00Z</time>
      </trkpt>
      <trkpt lat="43.13844" lon="2.95423">
        <ele>134</ele>
        <time>2015-11-22T11:19:06Z</time>
      </trkpt>
      <trkpt lat="43.13845" lon="2.9543">
        <ele>134</ele>
        <time>2015-11-22T11:19:12Z</time>
      </trkpt>
      <trkpt lat="43.13846" lon="2.9543">
        <ele>134</ele>
        <time>2015-11-22T11:19:17Z</time>
      </trkpt>
      <trkpt lat="43.13845" lon="2.9543">
        <ele>135</ele>
        <time>2015-11-22T11:19:23Z</time>
      </trkpt>
      <trkpt lat="43.13845" lon="2.9543">
        <ele>135</ele>
        <time>2015-11-22T11:19:29Z</time>
      </trkpt>
      <trkpt lat="43.1385" lon="2.95433">
        <ele>136</ele>
        <time>2015-11-22T11:19:35Z</time>
      </trkpt>
      <trkpt lat="43.13862" lon="2.95431">
        <ele>138</ele>
        <time>2015-11-22T11:19:41Z</time>
      </trkpt>
      <trkpt lat="43.13873" lon="2.95423">
        <ele>136</ele>
        <time>2015-11-22T11:19:47Z</time>
      </trkpt>
      <trkpt lat="43.13881" lon="2.95427">
        <ele>136</ele>
        <time>2015-11-22T11:19:53Z</time>
      </trkpt>
      <trkpt lat="43.13885" lon="2.9544">
        <ele>137</ele>
        <time>2015-11-22T11:19:59Z</time>
      </trkpt>
      <trkpt lat="43.1389" lon="2.95447">
        <ele>138</ele>
        <time>2015-11-22T11:20:05Z</time>
      </trkpt>
      <trkpt lat="43.13899" lon="2.95454">
        <ele>138</ele>
        <time>2015-11-22T11:20:11Z</time>
      </trkpt>
      <trkpt lat="43.13913" lon="2.95458">
        <ele>136</ele>
        <time>2015-11-22T11:20:17Z</time>
      </trkpt>
      <trkpt lat="43.13917" lon="2.95462">
        <ele>136</ele>
        <time>2015-11-22T11:20:23Z</time>
      </trkpt>
      <trkpt lat="43.13916" lon="2.95463">
        <ele>136</ele>
        <time>2015-11-22T11:20:28Z</time>
      </trkpt>
      <trkpt lat="43.13916" lon="2.95463">
        <ele>136</ele>
        <time>2015-11-22T11:20:34Z</time>
      </trkpt>
      <trkpt lat="43.13917" lon="2.95465">
        <ele>136</ele>
        <time>2015-11-22T11:20:40Z</time>
      </trkpt>
      <trkpt lat="43.13917" lon="2.95465">
        <ele>136</ele>
        <time>2015-11-22T11:20:46Z</time>
      </trkpt>
      <trkpt lat="43.13917" lon="2.95465">
        <ele>136</ele>
        <time>2015-11-22T11:20:52Z</time>
      </trkpt>
      <trkpt lat="43.13917" lon="2.95465">
        <ele>136</ele>
        <time>2015-11-22T11:20:58Z</time>
      </trkpt>
      <trkpt lat="43.13917" lon="2.95466">
        <ele>134</ele>
        <time>2015-11-22T11:21:04Z</time>
      </trkpt>
      <trkpt lat="43.13917" lon="2.95466">
        <ele>136</ele>
        <time>2015-11-22T11:21:10Z</time>
      </trkpt>
      <trkpt lat="43.13917" lon="2.95466">
        <ele>135</ele>
        <time>2015-11-22T11:21:15Z</time>
      </trkpt>
      <trkpt lat="43.13917" lon="2.95466">
        <ele>135</ele>
        <time>2015-11-22T11:21:21Z</time>
      </trkpt>
      <trkpt lat="43.13919" lon="2.95469">
        <ele>136</ele>
        <time>2015-11-22T11:21:27Z</time>
      </trkpt>
      <trkpt lat="43.13923" lon="2.95481">
        <ele>136</ele>
        <time>2015-11-22T11:21:33Z</time>
      </trkpt>
      <trkpt lat="43.13924" lon="2.95498">
        <ele>136</ele>
        <time>2015-11-22T11:21:39Z</time>
      </trkpt>
      <trkpt lat="43.13921" lon="2.95516">
        <ele>136</ele>
        <time>2015-11-22T11:21:45Z</time>
      </trkpt>
      <trkpt lat="43.13917" lon="2.95539">
        <ele>135</ele>
        <time>2015-11-22T11:21:51Z</time>
      </trkpt>
      <trkpt lat="43.1391" lon="2.95555">
        <ele>136</ele>
        <time>2015-11-22T11:21:57Z</time>
      </trkpt>
      <trkpt lat="43.13906" lon="2.95573">
        <ele>137</ele>
        <time>2015-11-22T11:22:03Z</time>
      </trkpt>
      <trkpt lat="43.13906" lon="2.95573">
        <ele>137</ele>
        <time>2015-11-22T11:22:09Z</time>
      </trkpt>
      <trkpt lat="43.13905" lon="2.95572">
        <ele>138</ele>
        <time>2015-11-22T11:22:15Z</time>
      </trkpt>
      <trkpt lat="43.13906" lon="2.95578">
        <ele>137</ele>
        <time>2015-11-22T11:22:21Z</time>
      </trkpt>
      <trkpt lat="43.13908" lon="2.95591">
        <ele>139</ele>
        <time>2015-11-22T11:22:26Z</time>
      </trkpt>
      <trkpt lat="43.13918" lon="2.95613">
        <ele>139</ele>
        <time>2015-11-22T11:22:32Z</time>
      </trkpt>
      <trkpt lat="43.13929" lon="2.95641">
        <ele>138</ele>
        <time>2015-11-22T11:22:38Z</time>
      </trkpt>
      <trkpt lat="43.13955" lon="2.95682">
        <ele>137</ele>
        <time>2015-11-22T11:22:48Z</time>
      </trkpt>
      <trkpt lat="43.13974" lon="2.95703">
        <ele>136</ele>
        <time>2015-11-22T11:22:54Z</time>
      </trkpt>
      <trkpt lat="43.13981" lon="2.9571">
        <ele>134</ele>
        <time>2015-11-22T11:22:56Z</time>
      </trkpt>
      <trkpt lat="43.14" lon="2.95721">
        <ele>133</ele>
        <time>2015-11-22T11:23:02Z</time>
      </trkpt>
      <trkpt lat="43.14012" lon="2.95731">
        <ele>132</ele>
        <time>2015-11-22T11:23:08Z</time>
      </trkpt>
      <trkpt lat="43.14011" lon="2.95732">
        <ele>132</ele>
        <time>2015-11-22T11:23:14Z</time>
      </trkpt>
      <trkpt lat="43.14011" lon="2.95732">
        <ele>133</ele>
        <time>2015-11-22T11:23:20Z</time>
      </trkpt>
      <trkpt lat="43.14011" lon="2.95732">
        <ele>133</ele>
        <time>2015-11-22T11:23:26Z</time>
      </trkpt>
      <trkpt lat="43.14011" lon="2.95732">
        <ele>133</ele>
        <time>2015-11-22T11:23:32Z</time>
      </trkpt>
      <trkpt lat="43.14017" lon="2.95736">
        <ele>133</ele>
        <time>2015-11-22T11:23:39Z</time>
      </trkpt>
      <trkpt lat="43.14028" lon="2.95744">
        <ele>132</ele>
        <time>2015-11-22T11:23:44Z</time>
      </trkpt>
      <trkpt lat="43.14043" lon="2.95749">
        <ele>133</ele>
        <time>2015-11-22T11:23:50Z</time>
      </trkpt>
      <trkpt lat="43.14058" lon="2.9576">
        <ele>134</ele>
        <time>2015-11-22T11:23:56Z</time>
      </trkpt>
      <trkpt lat="43.14071" lon="2.95767">
        <ele>136</ele>
        <time>2015-11-22T11:24:02Z</time>
      </trkpt>
      <trkpt lat="43.14084" lon="2.95772">
        <ele>138</ele>
        <time>2015-11-22T11:24:08Z</time>
      </trkpt>
      <trkpt lat="43.14098" lon="2.95775">
        <ele>138</ele>
        <time>2015-11-22T11:24:14Z</time>
      </trkpt>
      <trkpt lat="43.14111" lon="2.95775">
        <ele>136</ele>
        <time>2015-11-22T11:24:20Z</time>
      </trkpt>
      <trkpt lat="43.1412" lon="2.9578">
        <ele>138</ele>
        <time>2015-11-22T11:24:25Z</time>
      </trkpt>
      <trkpt lat="43.14129" lon="2.95789">
        <ele>138</ele>
        <time>2015-11-22T11:24:31Z</time>
      </trkpt>
      <trkpt lat="43.14139" lon="2.95789">
        <ele>140</ele>
        <time>2015-11-22T11:24:37Z</time>
      </trkpt>
      <trkpt lat="43.14149" lon="2.95788">
        <ele>140</ele>
        <time>2015-11-22T11:24:43Z</time>
      </trkpt>
      <trkpt lat="43.1416" lon="2.9579">
        <ele>139</ele>
        <time>2015-11-22T11:24:49Z</time>
      </trkpt>
      <trkpt lat="43.14166" lon="2.95796">
        <ele>140</ele>
        <time>2015-11-22T11:24:55Z</time>
      </trkpt>
      <trkpt lat="43.14165" lon="2.95795">
        <ele>139</ele>
        <time>2015-11-22T11:25:01Z</time>
      </trkpt>
      <trkpt lat="43.14167" lon="2.95795">
        <ele>140</ele>
        <time>2015-11-22T11:25:06Z</time>
      </trkpt>
      <trkpt lat="43.14167" lon="2.95797">
        <ele>142</ele>
        <time>2015-11-22T11:25:12Z</time>
      </trkpt>
      <trkpt lat="43.14168" lon="2.95799">
        <ele>141</ele>
        <time>2015-11-22T11:25:17Z</time>
      </trkpt>
      <trkpt lat="43.14168" lon="2.958">
        <ele>140</ele>
        <time>2015-11-22T11:25:23Z</time>
      </trkpt>
      <trkpt lat="43.14167" lon="2.95797">
        <ele>140</ele>
        <time>2015-11-22T11:25:31Z</time>
      </trkpt>
      <trkpt lat="43.14166" lon="2.9579">
        <ele>139</ele>
        <time>2015-11-22T11:25:34Z</time>
      </trkpt>
      <trkpt lat="43.1417" lon="2.95781">
        <ele>142</ele>
        <time>2015-11-22T11:25:40Z</time>
      </trkpt>
      <trkpt lat="43.14182" lon="2.95777">
        <ele>143</ele>
        <time>2015-11-22T11:25:46Z</time>
      </trkpt>
      <trkpt lat="43.14197" lon="2.95785">
        <ele>138</ele>
        <time>2015-11-22T11:25:52Z</time>
      </trkpt>
      <trkpt lat="43.14207" lon="2.95793">
        <ele>136</ele>
        <time>2015-11-22T11:25:58Z</time>
      </trkpt>
      <trkpt lat="43.14206" lon="2.95793">
        <ele>136</ele>
        <time>2015-11-22T11:26:04Z</time>
      </trkpt>
      <trkpt lat="43.14206" lon="2.95792">
        <ele>135</ele>
        <time>2015-11-22T11:26:09Z</time>
      </trkpt>
      <trkpt lat="43.14206" lon="2.95792">
        <ele>135</ele>
        <time>2015-11-22T11:26:15Z</time>
      </trkpt>
      <trkpt lat="43.14206" lon="2.95792">
        <ele>135</ele>
        <time>2015-11-22T11:26:21Z</time>
      </trkpt>
      <trkpt lat="43.14206" lon="2.95792">
        <ele>135</ele>
        <time>2015-11-22T11:26:27Z</time>
      </trkpt>
      <trkpt lat="43.14206" lon="2.95792">
        <ele>135</ele>
        <time>2015-11-22T11:26:33Z</time>
      </trkpt>
      <trkpt lat="43.14206" lon="2.95792">
        <ele>135</ele>
        <time>2015-11-22T11:26:38Z</time>
      </trkpt>
      <trkpt lat="43.14206" lon="2.95792">
        <ele>135</ele>
        <time>2015-11-22T11:26:44Z</time>
      </trkpt>
      <trkpt lat="43.14206" lon="2.95792">
        <ele>135</ele>
        <time>2015-11-22T11:26:51Z</time>
      </trkpt>
      <trkpt lat="43.14207" lon="2.95793">
        <ele>133</ele>
        <time>2015-11-22T11:26:58Z</time>
      </trkpt>
      <trkpt lat="43.14205" lon="2.9579">
        <ele>134</ele>
        <time>2015-11-22T11:27:01Z</time>
      </trkpt>
      <trkpt lat="43.14198" lon="2.95786">
        <ele>135</ele>
        <time>2015-11-22T11:27:07Z</time>
      </trkpt>
      <trkpt lat="43.14188" lon="2.95781">
        <ele>135</ele>
        <time>2015-11-22T11:27:17Z</time>
      </trkpt>
      <trkpt lat="43.14188" lon="2.95779">
        <ele>135</ele>
        <time>2015-11-22T11:27:18Z</time>
      </trkpt>
      <trkpt lat="43.1418" lon="2.95775">
        <ele>137</ele>
        <time>2015-11-22T11:27:25Z</time>
      </trkpt>
      <trkpt lat="43.14172" lon="2.95778">
        <ele>139</ele>
        <time>2015-11-22T11:27:30Z</time>
      </trkpt>
      <trkpt lat="43.14162" lon="2.95784">
        <ele>140</ele>
        <time>2015-11-22T11:27:36Z</time>
      </trkpt>
      <trkpt lat="43.14148" lon="2.95787">
        <ele>139</ele>
        <time>2015-11-22T11:27:42Z</time>
      </trkpt>
      <trkpt lat="43.1413" lon="2.95789">
        <ele>138</ele>
        <time>2015-11-22T11:27:49Z</time>
      </trkpt>
      <trkpt lat="43.14098" lon="2.95774">
        <ele>137</ele>
        <time>2015-11-22T11:28:00Z</time>
      </trkpt>
      <trkpt lat="43.1409" lon="2.95775">
        <ele>137</ele>
        <time>2015-11-22T11:28:01Z</time>
      </trkpt>
      <trkpt lat="43.1407" lon="2.95769">
        <ele>138</ele>
        <time>2015-11-22T11:28:06Z</time>
      </trkpt>
      <trkpt lat="43.14019" lon="2.95739">
        <ele>134</ele>
        <time>2015-11-22T11:28:17Z</time>
      </trkpt>
      <trkpt lat="43.14014" lon="2.95733">
        <ele>133</ele>
        <time>2015-11-22T11:28:24Z</time>
      </trkpt>
      <trkpt lat="43.14014" lon="2.95732">
        <ele>133</ele>
        <time>2015-11-22T11:28:26Z</time>
      </trkpt>
      <trkpt lat="43.14015" lon="2.95732">
        <ele>133</ele>
        <time>2015-11-22T11:28:31Z</time>
      </trkpt>
      <trkpt lat="43.14015" lon="2.95732">
        <ele>133</ele>
        <time>2015-11-22T11:28:37Z</time>
      </trkpt>
      <trkpt lat="43.14015" lon="2.95733">
        <ele>133</ele>
        <time>2015-11-22T11:28:43Z</time>
      </trkpt>
      <trkpt lat="43.14012" lon="2.95723">
        <ele>134</ele>
        <time>2015-11-22T11:28:48Z</time>
      </trkpt>
      <trkpt lat="43.14004" lon="2.95697">
        <ele>135</ele>
        <time>2015-11-22T11:28:55Z</time>
      </trkpt>
      <trkpt lat="43.13993" lon="2.95675">
        <ele>135</ele>
        <time>2015-11-22T11:29:00Z</time>
      </trkpt>
      <trkpt lat="43.13981" lon="2.9565">
        <ele>135</ele>
        <time>2015-11-22T11:29:06Z</time>
      </trkpt>
      <trkpt lat="43.13969" lon="2.95624">
        <ele>135</ele>
        <time>2015-11-22T11:29:13Z</time>
      </trkpt>
      <trkpt lat="43.13962" lon="2.95595">
        <ele>135</ele>
        <time>2015-11-22T11:29:18Z</time>
      </trkpt>
      <trkpt lat="43.13958" lon="2.9557">
        <ele>134</ele>
        <time>2015-11-22T11:29:23Z</time>
      </trkpt>
      <trkpt lat="43.13963" lon="2.95543">
        <ele>132</ele>
        <time>2015-11-22T11:29:29Z</time>
      </trkpt>
      <trkpt lat="43.13973" lon="2.95512">
        <ele>132</ele>
        <time>2015-11-22T11:29:36Z</time>
      </trkpt>
      <trkpt lat="43.13993" lon="2.95481">
        <ele>128</ele>
        <time>2015-11-22T11:29:41Z</time>
      </trkpt>
      <trkpt lat="43.14016" lon="2.95462">
        <ele>125</ele>
        <time>2015-11-22T11:29:46Z</time>
      </trkpt>
      <trkpt lat="43.14027" lon="2.95451">
        <ele>124</ele>
        <time>2015-11-22T11:29:51Z</time>
      </trkpt>
      <trkpt lat="43.14027" lon="2.9545">
        <ele>125</ele>
        <time>2015-11-22T11:30:03Z</time>
      </trkpt>
      <trkpt lat="43.14027" lon="2.9545">
        <ele>125</ele>
        <time>2015-11-22T11:30:08Z</time>
      </trkpt>
      <trkpt lat="43.14027" lon="2.9545">
        <ele>125</ele>
        <time>2015-11-22T11:30:10Z</time>
      </trkpt>
      <trkpt lat="43.14027" lon="2.9545">
        <ele>125</ele>
        <time>2015-11-22T11:30:16Z</time>
      </trkpt>
      <trkpt lat="43.14022" lon="2.9544">
        <ele>125</ele>
        <time>2015-11-22T11:30:22Z</time>
      </trkpt>
      <trkpt lat="43.14014" lon="2.95416">
        <ele>123</ele>
        <time>2015-11-22T11:30:27Z</time>
      </trkpt>
      <trkpt lat="43.14019" lon="2.95397">
        <ele>120</ele>
        <time>2015-11-22T11:30:32Z</time>
      </trkpt>
      <trkpt lat="43.14028" lon="2.95379">
        <ele>117</ele>
        <time>2015-11-22T11:30:38Z</time>
      </trkpt>
      <trkpt lat="43.14041" lon="2.9537">
        <ele>116</ele>
        <time>2015-11-22T11:30:44Z</time>
      </trkpt>
      <trkpt lat="43.14064" lon="2.95373">
        <ele>116</ele>
        <time>2015-11-22T11:30:50Z</time>
      </trkpt>
      <trkpt lat="43.14083" lon="2.95373">
        <ele>116</ele>
        <time>2015-11-22T11:30:56Z</time>
      </trkpt>
      <trkpt lat="43.14098" lon="2.95353">
        <ele>113</ele>
        <time>2015-11-22T11:31:01Z</time>
      </trkpt>
      <trkpt lat="43.14166" lon="2.95172">
        <ele>104</ele>
        <time>2015-11-22T11:31:26Z</time>
      </trkpt>
      <trkpt lat="43.14164" lon="2.95131">
        <ele>100</ele>
        <time>2015-11-22T11:31:31Z</time>
      </trkpt>
      <trkpt lat="43.14172" lon="2.95094">
        <ele>100</ele>
        <time>2015-11-22T11:31:37Z</time>
      </trkpt>
      <trkpt lat="43.14181" lon="2.95074">
        <ele>100</ele>
        <time>2015-11-22T11:31:43Z</time>
      </trkpt>
      <trkpt lat="43.14195" lon="2.9506">
        <ele>102</ele>
        <time>2015-11-22T11:31:51Z</time>
      </trkpt>
      <trkpt lat="43.14204" lon="2.95053">
        <ele>102</ele>
        <time>2015-11-22T11:31:55Z</time>
      </trkpt>
      <trkpt lat="43.14216" lon="2.95046">
        <ele>104</ele>
        <time>2015-11-22T11:32:01Z</time>
      </trkpt>
      <trkpt lat="43.1423" lon="2.95033">
        <ele>107</ele>
        <time>2015-11-22T11:32:09Z</time>
      </trkpt>
      <trkpt lat="43.14238" lon="2.95025">
        <ele>107</ele>
        <time>2015-11-22T11:32:13Z</time>
      </trkpt>
      <trkpt lat="43.14251" lon="2.95014">
        <ele>108</ele>
        <time>2015-11-22T11:32:19Z</time>
      </trkpt>
      <trkpt lat="43.14261" lon="2.95002">
        <ele>108</ele>
        <time>2015-11-22T11:32:26Z</time>
      </trkpt>
      <trkpt lat="43.14272" lon="2.94991">
        <ele>109</ele>
        <time>2015-11-22T11:32:32Z</time>
      </trkpt>
      <trkpt lat="43.1428" lon="2.94984">
        <ele>112</ele>
        <time>2015-11-22T11:32:37Z</time>
      </trkpt>
      <trkpt lat="43.14287" lon="2.94978">
        <ele>114</ele>
        <time>2015-11-22T11:32:42Z</time>
      </trkpt>
      <trkpt lat="43.14295" lon="2.94974">
        <ele>112</ele>
        <time>2015-11-22T11:32:48Z</time>
      </trkpt>
      <trkpt lat="43.14302" lon="2.94968">
        <ele>114</ele>
        <time>2015-11-22T11:32:54Z</time>
      </trkpt>
      <trkpt lat="43.14309" lon="2.94963">
        <ele>113</ele>
        <time>2015-11-22T11:33:00Z</time>
      </trkpt>
      <trkpt lat="43.14315" lon="2.94959">
        <ele>113</ele>
        <time>2015-11-22T11:33:06Z</time>
      </trkpt>
      <trkpt lat="43.14324" lon="2.94956">
        <ele>114</ele>
        <time>2015-11-22T11:33:12Z</time>
      </trkpt>
      <trkpt lat="43.14333" lon="2.94954">
        <ele>114</ele>
        <time>2015-11-22T11:33:18Z</time>
      </trkpt>
      <trkpt lat="43.14339" lon="2.94954">
        <ele>116</ele>
        <time>2015-11-22T11:33:24Z</time>
      </trkpt>
      <trkpt lat="43.1434" lon="2.94953">
        <ele>116</ele>
        <time>2015-11-22T11:33:33Z</time>
      </trkpt>
      <trkpt lat="43.1434" lon="2.94953">
        <ele>117</ele>
        <time>2015-11-22T11:33:38Z</time>
      </trkpt>
      <trkpt lat="43.1434" lon="2.94953">
        <ele>117</ele>
        <time>2015-11-22T11:33:41Z</time>
      </trkpt>
      <trkpt lat="43.1434" lon="2.94953">
        <ele>118</ele>
        <time>2015-11-22T11:33:47Z</time>
      </trkpt>
      <trkpt lat="43.14339" lon="2.94953">
        <ele>117</ele>
        <time>2015-11-22T11:33:54Z</time>
      </trkpt>
      <trkpt lat="43.14339" lon="2.94953">
        <ele>117</ele>
        <time>2015-11-22T11:33:59Z</time>
      </trkpt>
      <trkpt lat="43.14339" lon="2.94953">
        <ele>117</ele>
        <time>2015-11-22T11:34:05Z</time>
      </trkpt>
      <trkpt lat="43.14339" lon="2.94954">
        <ele>118</ele>
        <time>2015-11-22T11:34:11Z</time>
      </trkpt>
      <trkpt lat="43.1434" lon="2.94955">
        <ele>118</ele>
        <time>2015-11-22T11:34:19Z</time>
      </trkpt>
      <trkpt lat="43.1434" lon="2.94955">
        <ele>118</ele>
        <time>2015-11-22T11:34:24Z</time>
      </trkpt>
      <trkpt lat="43.1434" lon="2.94955">
        <ele>119</ele>
        <time>2015-11-22T11:34:32Z</time>
      </trkpt>
      <trkpt lat="43.1434" lon="2.94955">
        <ele>119</ele>
        <time>2015-11-22T11:34:34Z</time>
      </trkpt>
      <trkpt lat="43.1434" lon="2.94955">
        <ele>118</ele>
        <time>2015-11-22T11:34:40Z</time>
      </trkpt>
      <trkpt lat="43.14348" lon="2.9495">
        <ele>118</ele>
        <time>2015-11-22T11:34:51Z</time>
      </trkpt>
      <trkpt lat="43.14353" lon="2.94949">
        <ele>118</ele>
        <time>2015-11-22T11:34:52Z</time>
      </trkpt>
      <trkpt lat="43.14376" lon="2.94947">
        <ele>115</ele>
        <time>2015-11-22T11:34:57Z</time>
      </trkpt>
      <trkpt lat="43.14406" lon="2.94953">
        <ele>110</ele>
        <time>2015-11-22T11:35:02Z</time>
      </trkpt>
      <trkpt lat="43.14644" lon="2.95072">
        <ele>97</ele>
        <time>2015-11-22T11:35:44Z</time>
      </trkpt>
      <trkpt lat="43.14663" lon="2.95075">
        <ele>95</ele>
        <time>2015-11-22T11:35:48Z</time>
      </trkpt>
      <trkpt lat="43.14686" lon="2.95081">
        <ele>92</ele>
        <time>2015-11-22T11:35:53Z</time>
      </trkpt>
      <trkpt lat="43.14713" lon="2.95085">
        <ele>91</ele>
        <time>2015-11-22T11:35:59Z</time>
      </trkpt>
      <trkpt lat="43.14739" lon="2.95072">
        <ele>89</ele>
        <time>2015-11-22T11:36:05Z</time>
      </trkpt>
      <trkpt lat="43.14761" lon="2.95076">
        <ele>88</ele>
        <time>2015-11-22T11:36:12Z</time>
      </trkpt>
      <trkpt lat="43.14781" lon="2.95078">
        <ele>91</ele>
        <time>2015-11-22T11:36:17Z</time>
      </trkpt>
      <trkpt lat="43.14794" lon="2.95077">
        <ele>91</ele>
        <time>2015-11-22T11:36:23Z</time>
      </trkpt>
      <trkpt lat="43.14807" lon="2.95078">
        <ele>90</ele>
        <time>2015-11-22T11:36:29Z</time>
      </trkpt>
      <trkpt lat="43.1482" lon="2.9508">
        <ele>92</ele>
        <time>2015-11-22T11:36:35Z</time>
      </trkpt>
      <trkpt lat="43.14834" lon="2.95082">
        <ele>93</ele>
        <time>2015-11-22T11:36:42Z</time>
      </trkpt>
      <trkpt lat="43.14846" lon="2.95087">
        <ele>93</ele>
        <time>2015-11-22T11:36:47Z</time>
      </trkpt>
      <trkpt lat="43.14859" lon="2.95094">
        <ele>95</ele>
        <time>2015-11-22T11:36:54Z</time>
      </trkpt>
      <trkpt lat="43.1487" lon="2.95091">
        <ele>98</ele>
        <time>2015-11-22T11:37:03Z</time>
      </trkpt>
      <trkpt lat="43.14871" lon="2.95087">
        <ele>99</ele>
        <time>2015-11-22T11:37:07Z</time>
      </trkpt>
      <trkpt lat="43.1487" lon="2.95085">
        <ele>97</ele>
        <time>2015-11-22T11:37:09Z</time>
      </trkpt>
      <trkpt lat="43.14873" lon="2.95067">
        <ele>98</ele>
        <time>2015-11-22T11:37:16Z</time>
      </trkpt>
      <trkpt lat="43.14876" lon="2.95045">
        <ele>97</ele>
        <time>2015-11-22T11:37:21Z</time>
      </trkpt>
      <trkpt lat="43.14872" lon="2.95014">
        <ele>97</ele>
        <time>2015-11-22T11:37:29Z</time>
      </trkpt>
      <trkpt lat="43.14872" lon="2.95008">
        <ele>97</ele>
        <time>2015-11-22T11:37:33Z</time>
      </trkpt>
      <trkpt lat="43.14873" lon="2.95008">
        <ele>97</ele>
        <time>2015-11-22T11:37:39Z</time>
      </trkpt>
      <trkpt lat="43.14873" lon="2.95008">
        <ele>97</ele>
        <time>2015-11-22T11:37:45Z</time>
      </trkpt>
      <trkpt lat="43.14873" lon="2.95008">
        <ele>97</ele>
        <time>2015-11-22T11:37:50Z</time>
      </trkpt>
      <trkpt lat="43.14873" lon="2.95008">
        <ele>97</ele>
        <time>2015-11-22T11:37:56Z</time>
      </trkpt>
      <trkpt lat="43.14873" lon="2.95008">
        <ele>97</ele>
        <time>2015-11-22T11:38:02Z</time>
      </trkpt>
      <trkpt lat="43.14872" lon="2.95008">
        <ele>97</ele>
        <time>2015-11-22T11:38:08Z</time>
      </trkpt>
      <trkpt lat="43.14871" lon="2.95008">
        <ele>97</ele>
        <time>2015-11-22T11:38:14Z</time>
      </trkpt>
      <trkpt lat="43.14871" lon="2.95007">
        <ele>97</ele>
        <time>2015-11-22T11:38:20Z</time>
      </trkpt>
      <trkpt lat="43.14871" lon="2.95008">
        <ele>96</ele>
        <time>2015-11-22T11:38:25Z</time>
      </trkpt>
      <trkpt lat="43.14871" lon="2.95008">
        <ele>96</ele>
        <time>2015-11-22T11:38:31Z</time>
      </trkpt>
      <trkpt lat="43.14871" lon="2.95008">
        <ele>96</ele>
        <time>2015-11-22T11:38:37Z</time>
      </trkpt>
      <trkpt lat="43.14871" lon="2.95008">
        <ele>96</ele>
        <time>2015-11-22T11:38:46Z</time>
      </trkpt>
      <trkpt lat="43.14871" lon="2.95008">
        <ele>96</ele>
        <time>2015-11-22T11:38:49Z</time>
      </trkpt>
      <trkpt lat="43.14871" lon="2.95008">
        <ele>96</ele>
        <time>2015-11-22T11:38:54Z</time>
      </trkpt>
      <trkpt lat="43.14871" lon="2.95007">
        <ele>96</ele>
        <time>2015-11-22T11:39:00Z</time>
      </trkpt>
      <trkpt lat="43.14871" lon="2.95007">
        <ele>96</ele>
        <time>2015-11-22T11:39:05Z</time>
      </trkpt>
      <trkpt lat="43.14871" lon="2.95007">
        <ele>96</ele>
        <time>2015-11-22T11:39:11Z</time>
      </trkpt>
      <trkpt lat="43.14871" lon="2.95007">
        <ele>96</ele>
        <time>2015-11-22T11:39:16Z</time>
      </trkpt>
      <trkpt lat="43.14871" lon="2.95007">
        <ele>96</ele>
        <time>2015-11-22T11:39:21Z</time>
      </trkpt>
      <trkpt lat="43.14872" lon="2.95009">
        <ele>96</ele>
        <time>2015-11-22T11:39:27Z</time>
      </trkpt>
      <trkpt lat="43.14872" lon="2.95009">
        <ele>97</ele>
        <time>2015-11-22T11:39:33Z</time>
      </trkpt>
      <trkpt lat="43.14872" lon="2.95008">
        <ele>97</ele>
        <time>2015-11-22T11:39:38Z</time>
      </trkpt>
      <trkpt lat="43.14873" lon="2.94999">
        <ele>100</ele>
        <time>2015-11-22T11:39:49Z</time>
      </trkpt>
      <trkpt lat="43.14873" lon="2.94996">
        <ele>100</ele>
        <time>2015-11-22T11:39:50Z</time>
      </trkpt>
      <trkpt lat="43.14874" lon="2.9497">
        <ele>96</ele>
        <time>2015-11-22T11:39:58Z</time>
      </trkpt>
      <trkpt lat="43.14874" lon="2.9496">
        <ele>96</ele>
        <time>2015-11-22T11:40:00Z</time>
      </trkpt>
      <trkpt lat="43.14874" lon="2.94937">
        <ele>100</ele>
        <time>2015-11-22T11:40:06Z</time>
      </trkpt>
      <trkpt lat="43.14874" lon="2.94919">
        <ele>102</ele>
        <time>2015-11-22T11:40:12Z</time>
      </trkpt>
      <trkpt lat="43.14872" lon="2.94901">
        <ele>104</ele>
        <time>2015-11-22T11:40:18Z</time>
      </trkpt>
      <trkpt lat="43.14871" lon="2.94882">
        <ele>104</ele>
        <time>2015-11-22T11:40:24Z</time>
      </trkpt>
      <trkpt lat="43.14868" lon="2.94866">
        <ele>105</ele>
        <time>2015-11-22T11:40:30Z</time>
      </trkpt>
      <trkpt lat="43.14868" lon="2.94853">
        <ele>107</ele>
        <time>2015-11-22T11:40:36Z</time>
      </trkpt>
      <trkpt lat="43.14869" lon="2.94838">
        <ele>106</ele>
        <time>2015-11-22T11:40:42Z</time>
      </trkpt>
      <trkpt lat="43.14868" lon="2.94827">
        <ele>105</ele>
        <time>2015-11-22T11:40:47Z</time>
      </trkpt>
      <trkpt lat="43.14869" lon="2.94815">
        <ele>105</ele>
        <time>2015-11-22T11:40:52Z</time>
      </trkpt>
      <trkpt lat="43.1487" lon="2.94801">
        <ele>105</ele>
        <time>2015-11-22T11:40:58Z</time>
      </trkpt>
      <trkpt lat="43.14877" lon="2.94769">
        <ele>106</ele>
        <time>2015-11-22T11:41:07Z</time>
      </trkpt>
      <trkpt lat="43.14877" lon="2.9475">
        <ele>109</ele>
        <time>2015-11-22T11:41:13Z</time>
      </trkpt>
      <trkpt lat="43.14877" lon="2.94747">
        <ele>108</ele>
        <time>2015-11-22T11:41:14Z</time>
      </trkpt>
      <trkpt lat="43.14877" lon="2.94724">
        <ele>108</ele>
        <time>2015-11-22T11:41:21Z</time>
      </trkpt>
      <trkpt lat="43.14877" lon="2.94707">
        <ele>109</ele>
        <time>2015-11-22T11:41:26Z</time>
      </trkpt>
      <trkpt lat="43.14877" lon="2.94689">
        <ele>111</ele>
        <time>2015-11-22T11:41:32Z</time>
      </trkpt>
      <trkpt lat="43.14881" lon="2.94674">
        <ele>111</ele>
        <time>2015-11-22T11:41:37Z</time>
      </trkpt>
      <trkpt lat="43.14886" lon="2.94656">
        <ele>113</ele>
        <time>2015-11-22T11:41:43Z</time>
      </trkpt>
      <trkpt lat="43.1489" lon="2.94637">
        <ele>114</ele>
        <time>2015-11-22T11:41:50Z</time>
      </trkpt>
      <trkpt lat="43.14894" lon="2.94619">
        <ele>114</ele>
        <time>2015-11-22T11:41:55Z</time>
      </trkpt>
      <trkpt lat="43.14898" lon="2.94605">
        <ele>114</ele>
        <time>2015-11-22T11:42:00Z</time>
      </trkpt>
      <trkpt lat="43.149" lon="2.94589">
        <ele>116</ele>
        <time>2015-11-22T11:42:06Z</time>
      </trkpt>
      <trkpt lat="43.14902" lon="2.94572">
        <ele>116</ele>
        <time>2015-11-22T11:42:12Z</time>
      </trkpt>
      <trkpt lat="43.14907" lon="2.94559">
        <ele>118</ele>
        <time>2015-11-22T11:42:18Z</time>
      </trkpt>
      <trkpt lat="43.14909" lon="2.94549">
        <ele>118</ele>
        <time>2015-11-22T11:42:23Z</time>
      </trkpt>
      <trkpt lat="43.14914" lon="2.94536">
        <ele>118</ele>
        <time>2015-11-22T11:42:29Z</time>
      </trkpt>
      <trkpt lat="43.14919" lon="2.94523">
        <ele>119</ele>
        <time>2015-11-22T11:42:35Z</time>
      </trkpt>
      <trkpt lat="43.14926" lon="2.9451">
        <ele>119</ele>
        <time>2015-11-22T11:42:41Z</time>
      </trkpt>
      <trkpt lat="43.14931" lon="2.94497">
        <ele>117</ele>
        <time>2015-11-22T11:42:47Z</time>
      </trkpt>
      <trkpt lat="43.14935" lon="2.94485">
        <ele>119</ele>
        <time>2015-11-22T11:42:52Z</time>
      </trkpt>
      <trkpt lat="43.1494" lon="2.94472">
        <ele>118</ele>
        <time>2015-11-22T11:42:58Z</time>
      </trkpt>
      <trkpt lat="43.14946" lon="2.94459">
        <ele>119</ele>
        <time>2015-11-22T11:43:04Z</time>
      </trkpt>
      <trkpt lat="43.14954" lon="2.94442">
        <ele>119</ele>
        <time>2015-11-22T11:43:10Z</time>
      </trkpt>
      <trkpt lat="43.14961" lon="2.9443">
        <ele>119</ele>
        <time>2015-11-22T11:43:15Z</time>
      </trkpt>
      <trkpt lat="43.14968" lon="2.94418">
        <ele>121</ele>
        <time>2015-11-22T11:43:22Z</time>
      </trkpt>
      <trkpt lat="43.14975" lon="2.94406">
        <ele>122</ele>
        <time>2015-11-22T11:43:28Z</time>
      </trkpt>
      <trkpt lat="43.14984" lon="2.94397">
        <ele>121</ele>
        <time>2015-11-22T11:43:34Z</time>
      </trkpt>
      <trkpt lat="43.14991" lon="2.94387">
        <ele>123</ele>
        <time>2015-11-22T11:43:39Z</time>
      </trkpt>
      <trkpt lat="43.14997" lon="2.94377">
        <ele>122</ele>
        <time>2015-11-22T11:43:45Z</time>
      </trkpt>
      <trkpt lat="43.15002" lon="2.94369">
        <ele>123</ele>
        <time>2015-11-22T11:43:51Z</time>
      </trkpt>
      <trkpt lat="43.15007" lon="2.94363">
        <ele>123</ele>
        <time>2015-11-22T11:43:57Z</time>
      </trkpt>
      <trkpt lat="43.15012" lon="2.94358">
        <ele>125</ele>
        <time>2015-11-22T11:44:02Z</time>
      </trkpt>
      <trkpt lat="43.15015" lon="2.94354">
        <ele>124</ele>
        <time>2015-11-22T11:44:08Z</time>
      </trkpt>
      <trkpt lat="43.1502" lon="2.94349">
        <ele>124</ele>
        <time>2015-11-22T11:44:14Z</time>
      </trkpt>
      <trkpt lat="43.15024" lon="2.94348">
        <ele>122</ele>
        <time>2015-11-22T11:44:19Z</time>
      </trkpt>
      <trkpt lat="43.1503" lon="2.94345">
        <ele>124</ele>
        <time>2015-11-22T11:44:25Z</time>
      </trkpt>
      <trkpt lat="43.15033" lon="2.94331">
        <ele>129</ele>
        <time>2015-11-22T11:44:36Z</time>
      </trkpt>
      <trkpt lat="43.15033" lon="2.9433">
        <ele>129</ele>
        <time>2015-11-22T11:44:37Z</time>
      </trkpt>
      <trkpt lat="43.15032" lon="2.94322">
        <ele>131</ele>
        <time>2015-11-22T11:44:42Z</time>
      </trkpt>
      <trkpt lat="43.15027" lon="2.94316">
        <ele>131</ele>
        <time>2015-11-22T11:44:48Z</time>
      </trkpt>
      <trkpt lat="43.15019" lon="2.94309">
        <ele>132</ele>
        <time>2015-11-22T11:44:54Z</time>
      </trkpt>
      <trkpt lat="43.15012" lon="2.94302">
        <ele>133</ele>
        <time>2015-11-22T11:44:59Z</time>
      </trkpt>
      <trkpt lat="43.15002" lon="2.94293">
        <ele>134</ele>
        <time>2015-11-22T11:45:06Z</time>
      </trkpt>
      <trkpt lat="43.14992" lon="2.94285">
        <ele>135</ele>
        <time>2015-11-22T11:45:11Z</time>
      </trkpt>
      <trkpt lat="43.14984" lon="2.94276">
        <ele>135</ele>
        <time>2015-11-22T11:45:17Z</time>
      </trkpt>
      <trkpt lat="43.14979" lon="2.94266">
        <ele>136</ele>
        <time>2015-11-22T11:45:23Z</time>
      </trkpt>
      <trkpt lat="43.14971" lon="2.94253">
        <ele>136</ele>
        <time>2015-11-22T11:45:29Z</time>
      </trkpt>
      <trkpt lat="43.14961" lon="2.94243">
        <ele>135</ele>
        <time>2015-11-22T11:45:35Z</time>
      </trkpt>
      <trkpt lat="43.14958" lon="2.94242">
        <ele>136</ele>
        <time>2015-11-22T11:45:40Z</time>
      </trkpt>
      <trkpt lat="43.14956" lon="2.94238">
        <ele>134</ele>
        <time>2015-11-22T11:45:46Z</time>
      </trkpt>
      <trkpt lat="43.14946" lon="2.94229">
        <ele>135</ele>
        <time>2015-11-22T11:45:51Z</time>
      </trkpt>
      <trkpt lat="43.14936" lon="2.94207">
        <ele>133</ele>
        <time>2015-11-22T11:45:57Z</time>
      </trkpt>
      <trkpt lat="43.14925" lon="2.94184">
        <ele>133</ele>
        <time>2015-11-22T11:46:03Z</time>
      </trkpt>
      <trkpt lat="43.14904" lon="2.94179">
        <ele>131</ele>
        <time>2015-11-22T11:46:08Z</time>
      </trkpt>
      <trkpt lat="43.1488" lon="2.94188">
        <ele>131</ele>
        <time>2015-11-22T11:46:14Z</time>
      </trkpt>
      <trkpt lat="43.14863" lon="2.9419">
        <ele>130</ele>
        <time>2015-11-22T11:46:19Z</time>
      </trkpt>
      <trkpt lat="43.14862" lon="2.9419">
        <ele>130</ele>
        <time>2015-11-22T11:46:24Z</time>
      </trkpt>
      <trkpt lat="43.14863" lon="2.94191">
        <ele>130</ele>
        <time>2015-11-22T11:46:29Z</time>
      </trkpt>
      <trkpt lat="43.14863" lon="2.94191">
        <ele>130</ele>
        <time>2015-11-22T11:46:34Z</time>
      </trkpt>
      <trkpt lat="43.1487" lon="2.94192">
        <ele>133</ele>
        <time>2015-11-22T11:46:45Z</time>
      </trkpt>
      <trkpt lat="43.14873" lon="2.94189">
        <ele>134</ele>
        <time>2015-11-22T11:46:46Z</time>
      </trkpt>
      <trkpt lat="43.14882" lon="2.94187">
        <ele>133</ele>
        <time>2015-11-22T11:46:52Z</time>
      </trkpt>
      <trkpt lat="43.14893" lon="2.94182">
        <ele>136</ele>
        <time>2015-11-22T11:46:58Z</time>
      </trkpt>
      <trkpt lat="43.14901" lon="2.9418">
        <ele>144</ele>
        <time>2015-11-22T11:47:05Z</time>
      </trkpt>
      <trkpt lat="43.14912" lon="2.94181">
        <ele>145</ele>
        <time>2015-11-22T11:47:10Z</time>
      </trkpt>
      <trkpt lat="43.14927" lon="2.94189">
        <ele>137</ele>
        <time>2015-11-22T11:47:17Z</time>
      </trkpt>
      <trkpt lat="43.14931" lon="2.94198">
        <ele>136</ele>
        <time>2015-11-22T11:47:21Z</time>
      </trkpt>
      <trkpt lat="43.14935" lon="2.94211">
        <ele>138</ele>
        <time>2015-11-22T11:47:27Z</time>
      </trkpt>
      <trkpt lat="43.14943" lon="2.94227">
        <ele>138</ele>
        <time>2015-11-22T11:47:35Z</time>
      </trkpt>
      <trkpt lat="43.14952" lon="2.94238">
        <ele>138</ele>
        <time>2015-11-22T11:47:41Z</time>
      </trkpt>
      <trkpt lat="43.14956" lon="2.9424">
        <ele>138</ele>
        <time>2015-11-22T11:47:44Z</time>
      </trkpt>
      <trkpt lat="43.14963" lon="2.94247">
        <ele>140</ele>
        <time>2015-11-22T11:47:50Z</time>
      </trkpt>
      <trkpt lat="43.14965" lon="2.94251">
        <ele>139</ele>
        <time>2015-11-22T11:47:56Z</time>
      </trkpt>
      <trkpt lat="43.14965" lon="2.94251">
        <ele>139</ele>
        <time>2015-11-22T11:48:01Z</time>
      </trkpt>
      <trkpt lat="43.14964" lon="2.94251">
        <ele>139</ele>
        <time>2015-11-22T11:48:07Z</time>
      </trkpt>
      <trkpt lat="43.14964" lon="2.94251">
        <ele>139</ele>
        <time>2015-11-22T11:48:12Z</time>
      </trkpt>
      <trkpt lat="43.14964" lon="2.94251">
        <ele>139</ele>
        <time>2015-11-22T11:48:21Z</time>
      </trkpt>
      <trkpt lat="43.14964" lon="2.94251">
        <ele>139</ele>
        <time>2015-11-22T11:48:25Z</time>
      </trkpt>
      <trkpt lat="43.14964" lon="2.94251">
        <ele>139</ele>
        <time>2015-11-22T11:48:29Z</time>
      </trkpt>
      <trkpt lat="43.14964" lon="2.94251">
        <ele>139</ele>
        <time>2015-11-22T11:48:35Z</time>
      </trkpt>
      <trkpt lat="43.14964" lon="2.94251">
        <ele>139</ele>
        <time>2015-11-22T11:48:41Z</time>
      </trkpt>
      <trkpt lat="43.14964" lon="2.94251">
        <ele>139</ele>
        <time>2015-11-22T11:48:47Z</time>
      </trkpt>
      <trkpt lat="43.14964" lon="2.94251">
        <ele>139</ele>
        <time>2015-11-22T11:48:53Z</time>
      </trkpt>
      <trkpt lat="43.14964" lon="2.94252">
        <ele>138</ele>
        <time>2015-11-22T11:48:59Z</time>
      </trkpt>
      <trkpt lat="43.14963" lon="2.94251">
        <ele>137</ele>
        <time>2015-11-22T11:49:05Z</time>
      </trkpt>
      <trkpt lat="43.14963" lon="2.94251">
        <ele>137</ele>
        <time>2015-11-22T11:49:11Z</time>
      </trkpt>
      <trkpt lat="43.14963" lon="2.94251">
        <ele>137</ele>
        <time>2015-11-22T11:49:17Z</time>
      </trkpt>
      <trkpt lat="43.14963" lon="2.94251">
        <ele>137</ele>
        <time>2015-11-22T11:49:23Z</time>
      </trkpt>
      <trkpt lat="43.14963" lon="2.94251">
        <ele>137</ele>
        <time>2015-11-22T11:49:29Z</time>
      </trkpt>
      <trkpt lat="43.14966" lon="2.94252">
        <ele>138</ele>
        <time>2015-11-22T11:49:36Z</time>
      </trkpt>
      <trkpt lat="43.14976" lon="2.94267">
        <ele>138</ele>
        <time>2015-11-22T11:49:41Z</time>
      </trkpt>
      <trkpt lat="43.15" lon="2.94295">
        <ele>137</ele>
        <time>2015-11-22T11:49:47Z</time>
      </trkpt>
      <trkpt lat="43.15028" lon="2.94318">
        <ele>135</ele>
        <time>2015-11-22T11:49:52Z</time>
      </trkpt>
      <trkpt lat="43.15018" lon="2.94346">
        <ele>132</ele>
        <time>2015-11-22T11:49:57Z</time>
      </trkpt>
      <trkpt lat="43.14964" lon="2.95188">
        <ele>103</ele>
        <time>2015-11-22T11:51:37Z</time>
      </trkpt>
      <trkpt lat="43.14966" lon="2.95193">
        <ele>102</ele>
        <time>2015-11-22T11:51:43Z</time>
      </trkpt>
      <trkpt lat="43.14965" lon="2.95193">
        <ele>102</ele>
        <time>2015-11-22T11:51:49Z</time>
      </trkpt>
      <trkpt lat="43.14965" lon="2.95192">
        <ele>102</ele>
        <time>2015-11-22T11:51:55Z</time>
      </trkpt>
      <trkpt lat="43.14966" lon="2.95195">
        <ele>102</ele>
        <time>2015-11-22T11:52:04Z</time>
      </trkpt>
      <trkpt lat="43.14969" lon="2.95215">
        <ele>101</ele>
        <time>2015-11-22T11:52:10Z</time>
      </trkpt>
      <trkpt lat="43.1497" lon="2.95226">
        <ele>101</ele>
        <time>2015-11-22T11:52:12Z</time>
      </trkpt>
      <trkpt lat="43.1499" lon="2.95264">
        <ele>102</ele>
        <time>2015-11-22T11:52:23Z</time>
      </trkpt>
      <trkpt lat="43.14992" lon="2.95268">
        <ele>102</ele>
        <time>2015-11-22T11:52:24Z</time>
      </trkpt>
      <trkpt lat="43.15003" lon="2.9529">
        <ele>102</ele>
        <time>2015-11-22T11:52:30Z</time>
      </trkpt>
      <trkpt lat="43.15006" lon="2.95314">
        <ele>104</ele>
        <time>2015-11-22T11:52:37Z</time>
      </trkpt>
      <trkpt lat="43.15007" lon="2.95339">
        <ele>105</ele>
        <time>2015-11-22T11:52:43Z</time>
      </trkpt>
      <trkpt lat="43.15005" lon="2.95363">
        <ele>107</ele>
        <time>2015-11-22T11:52:49Z</time>
      </trkpt>
      <trkpt lat="43.15005" lon="2.9539">
        <ele>107</ele>
        <time>2015-11-22T11:52:54Z</time>
      </trkpt>
      <trkpt lat="43.15017" lon="2.95409">
        <ele>107</ele>
        <time>2015-11-22T11:53:00Z</time>
      </trkpt>
      <trkpt lat="43.15029" lon="2.95432">
        <ele>106</ele>
        <time>2015-11-22T11:53:07Z</time>
      </trkpt>
      <trkpt lat="43.15034" lon="2.95452">
        <ele>106</ele>
        <time>2015-11-22T11:53:12Z</time>
      </trkpt>
      <trkpt lat="43.1504" lon="2.95471">
        <ele>106</ele>
        <time>2015-11-22T11:53:17Z</time>
      </trkpt>
      <trkpt lat="43.15048" lon="2.95485">
        <ele>108</ele>
        <time>2015-11-22T11:53:23Z</time>
      </trkpt>
      <trkpt lat="43.15056" lon="2.95499">
        <ele>109</ele>
        <time>2015-11-22T11:53:29Z</time>
      </trkpt>
      <trkpt lat="43.15062" lon="2.95517">
        <ele>109</ele>
        <time>2015-11-22T11:53:35Z</time>
      </trkpt>
      <trkpt lat="43.15059" lon="2.95536">
        <ele>110</ele>
        <time>2015-11-22T11:53:41Z</time>
      </trkpt>
      <trkpt lat="43.15053" lon="2.95556">
        <ele>110</ele>
        <time>2015-11-22T11:53:47Z</time>
      </trkpt>
      <trkpt lat="43.15049" lon="2.95568">
        <ele>110</ele>
        <time>2015-11-22T11:53:51Z</time>
      </trkpt>
      <trkpt lat="43.15041" lon="2.95587">
        <ele>111</ele>
        <time>2015-11-22T11:53:57Z</time>
      </trkpt>
      <trkpt lat="43.15034" lon="2.95614">
        <ele>111</ele>
        <time>2015-11-22T11:54:03Z</time>
      </trkpt>
      <trkpt lat="43.15025" lon="2.95642">
        <ele>112</ele>
        <time>2015-11-22T11:54:09Z</time>
      </trkpt>
      <trkpt lat="43.15013" lon="2.95668">
        <ele>111</ele>
        <time>2015-11-22T11:54:15Z</time>
      </trkpt>
      <trkpt lat="43.15001" lon="2.95696">
        <ele>109</ele>
        <time>2015-11-22T11:54:21Z</time>
      </trkpt>
      <trkpt lat="43.14986" lon="2.95735">
        <ele>108</ele>
        <time>2015-11-22T11:54:28Z</time>
      </trkpt>
      <trkpt lat="43.14975" lon="2.95846">
        <ele>103</ele>
        <time>2015-11-22T11:54:45Z</time>
      </trkpt>
      <trkpt lat="43.15001" lon="2.95855">
        <ele>100</ele>
        <time>2015-11-22T11:54:50Z</time>
      </trkpt>
      <trkpt lat="43.15027" lon="2.95864">
        <ele>99</ele>
        <time>2015-11-22T11:54:56Z</time>
      </trkpt>
      <trkpt lat="43.1504" lon="2.95883">
        <ele>97</ele>
        <time>2015-11-22T11:55:02Z</time>
      </trkpt>
      <trkpt lat="43.15034" lon="2.95903">
        <ele>99</ele>
        <time>2015-11-22T11:55:07Z</time>
      </trkpt>
      <trkpt lat="43.15024" lon="2.95925">
        <ele>100</ele>
        <time>2015-11-22T11:55:13Z</time>
      </trkpt>
      <trkpt lat="43.15011" lon="2.95938">
        <ele>101</ele>
        <time>2015-11-22T11:55:19Z</time>
      </trkpt>
      <trkpt lat="43.14997" lon="2.95952">
        <ele>98</ele>
        <time>2015-11-22T11:55:23Z</time>
      </trkpt>
      <trkpt lat="43.1498" lon="2.95981">
        <ele>98</ele>
        <time>2015-11-22T11:55:30Z</time>
      </trkpt>
      <trkpt lat="43.14987" lon="2.96022">
        <ele>94</ele>
        <time>2015-11-22T11:55:36Z</time>
      </trkpt>
      <trkpt lat="43.15002" lon="2.96066">
        <ele>88</ele>
        <time>2015-11-22T11:55:41Z</time>
      </trkpt>
      <trkpt lat="43.15025" lon="2.96513">
        <ele>57</ele>
        <time>2015-11-22T11:56:37Z</time>
      </trkpt>
      <trkpt lat="43.15026" lon="2.96512">
        <ele>57</ele>
        <time>2015-11-22T11:56:43Z</time>
      </trkpt>
      <trkpt lat="43.15031" lon="2.96544">
        <ele>55</ele>
        <time>2015-11-22T11:56:54Z</time>
      </trkpt>
      <trkpt lat="43.15021" lon="2.96707">
        <ele>43</ele>
        <time>2015-11-22T11:57:12Z</time>
      </trkpt>
      <trkpt lat="43.15032" lon="2.96723">
        <ele>40</ele>
        <time>2015-11-22T11:57:19Z</time>
      </trkpt>
      <trkpt lat="43.15051" lon="2.96711">
        <ele>37</ele>
        <time>2015-11-22T11:57:24Z</time>
      </trkpt>
      <trkpt lat="43.15051" lon="2.96731">
        <ele>35</ele>
        <time>2015-11-22T11:57:29Z</time>
      </trkpt>
      <trkpt lat="43.15048" lon="2.96757">
        <ele>36</ele>
        <time>2015-11-22T11:57:34Z</time>
      </trkpt>
      <trkpt lat="43.15065" lon="2.96772">
        <ele>37</ele>
        <time>2015-11-22T11:57:42Z</time>
      </trkpt>
      <trkpt lat="43.15062" lon="2.96784">
        <ele>38</ele>
        <time>2015-11-22T11:57:44Z</time>
      </trkpt>
      <trkpt lat="43.15059" lon="2.96812">
        <ele>37</ele>
        <time>2015-11-22T11:57:50Z</time>
      </trkpt>
      <trkpt lat="43.15059" lon="2.96847">
        <ele>37</ele>
        <time>2015-11-22T11:57:58Z</time>
      </trkpt>
      <trkpt lat="43.15061" lon="2.96871">
        <ele>33</ele>
        <time>2015-11-22T11:58:02Z</time>
      </trkpt>
      <trkpt lat="43.15048" lon="2.96901">
        <ele>27</ele>
        <time>2015-11-22T11:58:07Z</time>
      </trkpt>
      <trkpt lat="43.15005" lon="2.96938">
        <ele>27</ele>
        <time>2015-11-22T11:58:19Z</time>
      </trkpt>
      <trkpt lat="43.15001" lon="2.96946">
        <ele>27</ele>
        <time>2015-11-22T11:58:25Z</time>
      </trkpt>
      <trkpt lat="43.14996" lon="2.96953">
        <ele>26</ele>
        <time>2015-11-22T11:58:31Z</time>
      </trkpt>
      <trkpt lat="43.14992" lon="2.96957">
        <ele>25</ele>
        <time>2015-11-22T11:58:36Z</time>
      </trkpt>
      <trkpt lat="43.1499" lon="2.96961">
        <ele>28</ele>
        <time>2015-11-22T11:58:44Z</time>
      </trkpt>
      <trkpt lat="43.14986" lon="2.96951">
        <ele>31</ele>
        <time>2015-11-22T11:58:50Z</time>
      </trkpt>
      <trkpt lat="43.14984" lon="2.96947">
        <ele>35</ele>
        <time>2015-11-22T11:58:57Z</time>
      </trkpt>
      <trkpt lat="43.14984" lon="2.96946">
        <ele>35</ele>
        <time>2015-11-22T11:58:59Z</time>
      </trkpt>
      <trkpt lat="43.14981" lon="2.96943">
        <ele>37</ele>
        <time>2015-11-22T11:59:05Z</time>
      </trkpt>
      <trkpt lat="43.14976" lon="2.96934">
        <ele>39</ele>
        <time>2015-11-22T11:59:14Z</time>
      </trkpt>
      <trkpt lat="43.14976" lon="2.96932">
        <ele>39</ele>
        <time>2015-11-22T11:59:18Z</time>
      </trkpt>
      <trkpt lat="43.14977" lon="2.96921">
        <ele>42</ele>
        <time>2015-11-22T11:59:25Z</time>
      </trkpt>
      <trkpt lat="43.14977" lon="2.96917">
        <ele>43</ele>
        <time>2015-11-22T11:59:29Z</time>
      </trkpt>
      <trkpt lat="43.14975" lon="2.96911">
        <ele>43</ele>
        <time>2015-11-22T11:59:34Z</time>
      </trkpt>
      <trkpt lat="43.14973" lon="2.96907">
        <ele>44</ele>
        <time>2015-11-22T11:59:40Z</time>
      </trkpt>
      <trkpt lat="43.14967" lon="2.96903">
        <ele>43</ele>
        <time>2015-11-22T11:59:45Z</time>
      </trkpt>
      <trkpt lat="43.14961" lon="2.96899">
        <ele>46</ele>
        <time>2015-11-22T11:59:51Z</time>
      </trkpt>
      <trkpt lat="43.14952" lon="2.96895">
        <ele>45</ele>
        <time>2015-11-22T11:59:57Z</time>
      </trkpt>
      <trkpt lat="43.14949" lon="2.96892">
        <ele>46</ele>
        <time>2015-11-22T12:00:02Z</time>
      </trkpt>
      <trkpt lat="43.14943" lon="2.96889">
        <ele>46</ele>
        <time>2015-11-22T12:00:08Z</time>
      </trkpt>
      <trkpt lat="43.1494" lon="2.96886">
        <ele>48</ele>
        <time>2015-11-22T12:00:12Z</time>
      </trkpt>
      <trkpt lat="43.14938" lon="2.96879">
        <ele>46</ele>
        <time>2015-11-22T12:00:18Z</time>
      </trkpt>
      <trkpt lat="43.14936" lon="2.96869">
        <ele>48</ele>
        <time>2015-11-22T12:00:26Z</time>
      </trkpt>
      <trkpt lat="43.14936" lon="2.96866">
        <ele>50</ele>
        <time>2015-11-22T12:00:30Z</time>
      </trkpt>
      <trkpt lat="43.14931" lon="2.96861">
        <ele>51</ele>
        <time>2015-11-22T12:00:36Z</time>
      </trkpt>
      <trkpt lat="43.14925" lon="2.96859">
        <ele>52</ele>
        <time>2015-11-22T12:00:43Z</time>
      </trkpt>
      <trkpt lat="43.14918" lon="2.96862">
        <ele>52</ele>
        <time>2015-11-22T12:00:47Z</time>
      </trkpt>
      <trkpt lat="43.14909" lon="2.96857">
        <ele>52</ele>
        <time>2015-11-22T12:00:53Z</time>
      </trkpt>
      <trkpt lat="43.14909" lon="2.96855">
        <ele>53</ele>
        <time>2015-11-22T12:00:59Z</time>
      </trkpt>
      <trkpt lat="43.14907" lon="2.96854">
        <ele>52</ele>
        <time>2015-11-22T12:01:05Z</time>
      </trkpt>
      <trkpt lat="43.14897" lon="2.96849">
        <ele>51</ele>
        <time>2015-11-22T12:01:10Z</time>
      </trkpt>
      <trkpt lat="43.14889" lon="2.96839">
        <ele>50</ele>
        <time>2015-11-22T12:01:16Z</time>
      </trkpt>
      <trkpt lat="43.14888" lon="2.96838">
        <ele>50</ele>
        <time>2015-11-22T12:01:21Z</time>
      </trkpt>
      <trkpt lat="43.14887" lon="2.96836">
        <ele>51</ele>
        <time>2015-11-22T12:01:26Z</time>
      </trkpt>
      <trkpt lat="43.14886" lon="2.96826">
        <ele>51</ele>
        <time>2015-11-22T12:01:32Z</time>
      </trkpt>
      <trkpt lat="43.14885" lon="2.96815">
        <ele>52</ele>
        <time>2015-11-22T12:01:38Z</time>
      </trkpt>
      <trkpt lat="43.14879" lon="2.96808">
        <ele>52</ele>
        <time>2015-11-22T12:01:44Z</time>
      </trkpt>
      <trkpt lat="43.14879" lon="2.96808">
        <ele>53</ele>
        <time>2015-11-22T12:01:50Z</time>
      </trkpt>
      <trkpt lat="43.14878" lon="2.96808">
        <ele>53</ele>
        <time>2015-11-22T12:01:56Z</time>
      </trkpt>
      <trkpt lat="43.14878" lon="2.96809">
        <ele>53</ele>
        <time>2015-11-22T12:02:02Z</time>
      </trkpt>
      <trkpt lat="43.14883" lon="2.96815">
        <ele>53</ele>
        <time>2015-11-22T12:02:08Z</time>
      </trkpt>
      <trkpt lat="43.14888" lon="2.96844">
        <ele>52</ele>
        <time>2015-11-22T12:02:14Z</time>
      </trkpt>
      <trkpt lat="43.14901" lon="2.96853">
        <ele>52</ele>
        <time>2015-11-22T12:02:20Z</time>
      </trkpt>
      <trkpt lat="43.14911" lon="2.96847">
        <ele>55</ele>
        <time>2015-11-22T12:02:25Z</time>
      </trkpt>
      <trkpt lat="43.1491" lon="2.96831">
        <ele>56</ele>
        <time>2015-11-22T12:02:31Z</time>
      </trkpt>
      <trkpt lat="43.14907" lon="2.96815">
        <ele>57</ele>
        <time>2015-11-22T12:02:36Z</time>
      </trkpt>
      <trkpt lat="43.14904" lon="2.96796">
        <ele>59</ele>
        <time>2015-11-22T12:02:43Z</time>
      </trkpt>
      <trkpt lat="43.14899" lon="2.9678">
        <ele>60</ele>
        <time>2015-11-22T12:02:48Z</time>
      </trkpt>
      <trkpt lat="43.14898" lon="2.96778">
        <ele>61</ele>
        <time>2015-11-22T12:02:54Z</time>
      </trkpt>
      <trkpt lat="43.14897" lon="2.96777">
        <ele>62</ele>
        <time>2015-11-22T12:02:59Z</time>
      </trkpt>
      <trkpt lat="43.1489" lon="2.96778">
        <ele>60</ele>
        <time>2015-11-22T12:03:04Z</time>
      </trkpt>
      <trkpt lat="43.14877" lon="2.96776">
        <ele>59</ele>
        <time>2015-11-22T12:03:09Z</time>
      </trkpt>
      <trkpt lat="43.14865" lon="2.96768">
        <ele>58</ele>
        <time>2015-11-22T12:03:13Z</time>
      </trkpt>
      <trkpt lat="43.14863" lon="2.96767">
        <ele>59</ele>
        <time>2015-11-22T12:03:19Z</time>
      </trkpt>
      <trkpt lat="43.14863" lon="2.96768">
        <ele>59</ele>
        <time>2015-11-22T12:03:25Z</time>
      </trkpt>
      <trkpt lat="43.14863" lon="2.96767">
        <ele>59</ele>
        <time>2015-11-22T12:03:32Z</time>
      </trkpt>
      <trkpt lat="43.14868" lon="2.96771">
        <ele>59</ele>
        <time>2015-11-22T12:03:37Z</time>
      </trkpt>
      <trkpt lat="43.14884" lon="2.96776">
        <ele>59</ele>
        <time>2015-11-22T12:03:43Z</time>
      </trkpt>
      <trkpt lat="43.14898" lon="2.96777">
        <ele>61</ele>
        <time>2015-11-22T12:03:50Z</time>
      </trkpt>
      <trkpt lat="43.14905" lon="2.96797">
        <ele>59</ele>
        <time>2015-11-22T12:03:56Z</time>
      </trkpt>
      <trkpt lat="43.14909" lon="2.96817">
        <ele>57</ele>
        <time>2015-11-22T12:04:01Z</time>
      </trkpt>
      <trkpt lat="43.14909" lon="2.96857">
        <ele>54</ele>
        <time>2015-11-22T12:04:08Z</time>
      </trkpt>
      <trkpt lat="43.14904" lon="2.96895">
        <ele>50</ele>
        <time>2015-11-22T12:04:12Z</time>
      </trkpt>
      <trkpt lat="43.14897" lon="2.9694">
        <ele>45</ele>
        <time>2015-11-22T12:04:19Z</time>
      </trkpt>
      <trkpt lat="43.14891" lon="2.9697">
        <ele>42</ele>
        <time>2015-11-22T12:04:23Z</time>
      </trkpt>
      <trkpt lat="43.14883" lon="2.97003">
        <ele>40</ele>
        <time>2015-11-22T12:04:29Z</time>
      </trkpt>
      <trkpt lat="43.14872" lon="2.97014">
        <ele>36</ele>
        <time>2015-11-22T12:04:36Z</time>
      </trkpt>
      <trkpt lat="43.14844" lon="2.97014">
        <ele>35</ele>
        <time>2015-11-22T12:04:41Z</time>
      </trkpt>
      <trkpt lat="43.14836" lon="2.9706">
        <ele>35</ele>
        <time>2015-11-22T12:04:47Z</time>
      </trkpt>
      <trkpt lat="43.14816" lon="2.97081">
        <ele>36</ele>
        <time>2015-11-22T12:04:52Z</time>
      </trkpt>
      <trkpt lat="43.14792" lon="2.97117">
        <ele>35</ele>
        <time>2015-11-22T12:04:59Z</time>
      </trkpt>
      <trkpt lat="43.14759" lon="2.97149">
        <ele>33</ele>
        <time>2015-11-22T12:05:06Z</time>
      </trkpt>
      <trkpt lat="43.14743" lon="2.97143">
        <ele>32</ele>
        <time>2015-11-22T12:05:10Z</time>
      </trkpt>
      <trkpt lat="43.14717" lon="2.97134">
        <ele>31</ele>
        <time>2015-11-22T12:05:16Z</time>
      </trkpt>
      <trkpt lat="43.14713" lon="2.97132">
        <ele>32</ele>
        <time>2015-11-22T12:05:21Z</time>
      </trkpt>
      <trkpt lat="43.14711" lon="2.97134">
        <ele>31</ele>
        <time>2015-11-22T12:05:31Z</time>
      </trkpt>
      <trkpt lat="43.14708" lon="2.97133">
        <ele>32</ele>
        <time>2015-11-22T12:05:33Z</time>
      </trkpt>
      <trkpt lat="43.14695" lon="2.97146">
        <ele>29</ele>
        <time>2015-11-22T12:05:40Z</time>
      </trkpt>
      <trkpt lat="43.14687" lon="2.97177">
        <ele>28</ele>
        <time>2015-11-22T12:05:45Z</time>
      </trkpt>
      <trkpt lat="43.14683" lon="2.97215">
        <ele>24</ele>
        <time>2015-11-22T12:05:51Z</time>
      </trkpt>
      <trkpt lat="43.14687" lon="2.97232">
        <ele>22</ele>
        <time>2015-11-22T12:05:58Z</time>
      </trkpt>
      <trkpt lat="43.14692" lon="2.97239">
        <ele>22</ele>
        <time>2015-11-22T12:06:03Z</time>
      </trkpt>
      <trkpt lat="43.14691" lon="2.97256">
        <ele>27</ele>
        <time>2015-11-22T12:06:12Z</time>
      </trkpt>
      <trkpt lat="43.14693" lon="2.97258">
        <ele>28</ele>
        <time>2015-11-22T12:06:14Z</time>
      </trkpt>
      <trkpt lat="43.14694" lon="2.9726">
        <ele>28</ele>
        <time>2015-11-22T12:06:19Z</time>
      </trkpt>
      <trkpt lat="43.14694" lon="2.97257">
        <ele>29</ele>
        <time>2015-11-22T12:06:25Z</time>
      </trkpt>
      <trkpt lat="43.14695" lon="2.9726">
        <ele>29</ele>
        <time>2015-11-22T12:06:36Z</time>
      </trkpt>
      <trkpt lat="43.14695" lon="2.9726">
        <ele>29</ele>
        <time>2015-11-22T12:06:37Z</time>
      </trkpt>
      <trkpt lat="43.14699" lon="2.97257">
        <ele>30</ele>
        <time>2015-11-22T12:06:43Z</time>
      </trkpt>
      <trkpt lat="43.14705" lon="2.97252">
        <ele>30</ele>
        <time>2015-11-22T12:06:49Z</time>
      </trkpt>
      <trkpt lat="43.1471" lon="2.97244">
        <ele>31</ele>
        <time>2015-11-22T12:06:58Z</time>
      </trkpt>
      <trkpt lat="43.14712" lon="2.97241">
        <ele>33</ele>
        <time>2015-11-22T12:07:01Z</time>
      </trkpt>
      <trkpt lat="43.14711" lon="2.97241">
        <ele>34</ele>
        <time>2015-11-22T12:07:07Z</time>
      </trkpt>
      <trkpt lat="43.14713" lon="2.97239">
        <ele>31</ele>
        <time>2015-11-22T12:07:13Z</time>
      </trkpt>
      <trkpt lat="43.14713" lon="2.97239">
        <ele>31</ele>
        <time>2015-11-22T12:07:20Z</time>
      </trkpt>
      <trkpt lat="43.14713" lon="2.97239">
        <ele>31</ele>
        <time>2015-11-22T12:07:25Z</time>
      </trkpt>
      <trkpt lat="43.14713" lon="2.97239">
        <ele>31</ele>
        <time>2015-11-22T12:07:31Z</time>
      </trkpt>
      <trkpt lat="43.14713" lon="2.97239">
        <ele>31</ele>
        <time>2015-11-22T12:07:37Z</time>
      </trkpt>
      <trkpt lat="43.14712" lon="2.9724">
        <ele>30</ele>
        <time>2015-11-22T12:07:42Z</time>
      </trkpt>
      <trkpt lat="43.14712" lon="2.97239">
        <ele>30</ele>
        <time>2015-11-22T12:07:48Z</time>
      </trkpt>
      <trkpt lat="43.14712" lon="2.9724">
        <ele>30</ele>
        <time>2015-11-22T12:07:54Z</time>
      </trkpt>
      <trkpt lat="43.14713" lon="2.9724">
        <ele>30</ele>
        <time>2015-11-22T12:08:00Z</time>
      </trkpt>
      <trkpt lat="43.14713" lon="2.97239">
        <ele>29</ele>
        <time>2015-11-22T12:08:11Z</time>
      </trkpt>
      <trkpt lat="43.14713" lon="2.97239">
        <ele>29</ele>
        <time>2015-11-22T12:08:13Z</time>
      </trkpt>
      <trkpt lat="43.14712" lon="2.97239">
        <ele>30</ele>
        <time>2015-11-22T12:08:18Z</time>
      </trkpt>
      <trkpt lat="43.14712" lon="2.97239">
        <ele>30</ele>
        <time>2015-11-22T12:08:24Z</time>
      </trkpt>
      <trkpt lat="43.14712" lon="2.97239">
        <ele>30</ele>
        <time>2015-11-22T12:08:31Z</time>
      </trkpt>
      <trkpt lat="43.14712" lon="2.97238">
        <ele>29</ele>
        <time>2015-11-22T12:08:36Z</time>
      </trkpt>
      <trkpt lat="43.14711" lon="2.97239">
        <ele>30</ele>
        <time>2015-11-22T12:08:45Z</time>
      </trkpt>
      <trkpt lat="43.14712" lon="2.97239">
        <ele>30</ele>
        <time>2015-11-22T12:08:47Z</time>
      </trkpt>
      <trkpt lat="43.14712" lon="2.97239">
        <ele>30</ele>
        <time>2015-11-22T12:08:54Z</time>
      </trkpt>
      <trkpt lat="43.14712" lon="2.97239">
        <ele>30</ele>
        <time>2015-11-22T12:09:03Z</time>
      </trkpt>
      <trkpt lat="43.14712" lon="2.97239">
        <ele>30</ele>
        <time>2015-11-22T12:09:11Z</time>
      </trkpt>
      <trkpt lat="43.14712" lon="2.97239">
        <ele>30</ele>
        <time>2015-11-22T12:09:11Z</time>
      </trkpt>
      <trkpt lat="43.14711" lon="2.97239">
        <ele>30</ele>
        <time>2015-11-22T12:09:17Z</time>
      </trkpt>
      <trkpt lat="43.14712" lon="2.97242">
        <ele>31</ele>
        <time>2015-11-22T12:09:23Z</time>
      </trkpt>
      <trkpt lat="43.14713" lon="2.97234">
        <ele>29</ele>
        <time>2015-11-22T12:09:29Z</time>
      </trkpt>
      <trkpt lat="43.14704" lon="2.97231">
        <ele>33</ele>
        <time>2015-11-22T12:09:37Z</time>
      </trkpt>
      <trkpt lat="43.14695" lon="2.97233">
        <ele>31</ele>
        <time>2015-11-22T12:09:45Z</time>
      </trkpt>
      <trkpt lat="43.14695" lon="2.97233">
        <ele>32</ele>
        <time>2015-11-22T12:09:47Z</time>
      </trkpt>
      <trkpt lat="43.1469" lon="2.97228">
        <ele>32</ele>
        <time>2015-11-22T12:09:53Z</time>
      </trkpt>
      <trkpt lat="43.14687" lon="2.97206">
        <ele>32</ele>
        <time>2015-11-22T12:10:00Z</time>
      </trkpt>
      <trkpt lat="43.14688" lon="2.9719">
        <ele>31</ele>
        <time>2015-11-22T12:10:05Z</time>
      </trkpt>
      <trkpt lat="43.1469" lon="2.97172">
        <ele>32</ele>
        <time>2015-11-22T12:10:10Z</time>
      </trkpt>
      <trkpt lat="43.14693" lon="2.97154">
        <ele>34</ele>
        <time>2015-11-22T12:10:16Z</time>
      </trkpt>
      <trkpt lat="43.14699" lon="2.97138">
        <ele>32</ele>
        <time>2015-11-22T12:10:23Z</time>
      </trkpt>
      <trkpt lat="43.14708" lon="2.97129">
        <ele>34</ele>
        <time>2015-11-22T12:10:28Z</time>
      </trkpt>
      <trkpt lat="43.14708" lon="2.97128">
        <ele>35</ele>
        <time>2015-11-22T12:10:32Z</time>
      </trkpt>
      <trkpt lat="43.14707" lon="2.97124">
        <ele>36</ele>
        <time>2015-11-22T12:10:38Z</time>
      </trkpt>
      <trkpt lat="43.1471" lon="2.97118">
        <ele>35</ele>
        <time>2015-11-22T12:10:43Z</time>
      </trkpt>
      <trkpt lat="43.14715" lon="2.97114">
        <ele>35</ele>
        <time>2015-11-22T12:10:49Z</time>
      </trkpt>
      <trkpt lat="43.14721" lon="2.97111">
        <ele>37</ele>
        <time>2015-11-22T12:10:54Z</time>
      </trkpt>
      <trkpt lat="43.14728" lon="2.97108">
        <ele>38</ele>
        <time>2015-11-22T12:10:59Z</time>
      </trkpt>
      <trkpt lat="43.14733" lon="2.97103">
        <ele>40</ele>
        <time>2015-11-22T12:11:06Z</time>
      </trkpt>
      <trkpt lat="43.14737" lon="2.97096">
        <ele>40</ele>
        <time>2015-11-22T12:11:11Z</time>
      </trkpt>
      <trkpt lat="43.14736" lon="2.9709">
        <ele>39</ele>
        <time>2015-11-22T12:11:15Z</time>
      </trkpt>
      <trkpt lat="43.14733" lon="2.97079">
        <ele>40</ele>
        <time>2015-11-22T12:11:22Z</time>
      </trkpt>
      <trkpt lat="43.1473" lon="2.97076">
        <ele>40</ele>
        <time>2015-11-22T12:11:28Z</time>
      </trkpt>
      <trkpt lat="43.14729" lon="2.97073">
        <ele>40</ele>
        <time>2015-11-22T12:11:33Z</time>
      </trkpt>
      <trkpt lat="43.14728" lon="2.97065">
        <ele>40</ele>
        <time>2015-11-22T12:11:39Z</time>
      </trkpt>
      <trkpt lat="43.14728" lon="2.97056">
        <ele>41</ele>
        <time>2015-11-22T12:11:47Z</time>
      </trkpt>
      <trkpt lat="43.14737" lon="2.97063">
        <ele>41</ele>
        <time>2015-11-22T12:11:54Z</time>
      </trkpt>
      <trkpt lat="43.14739" lon="2.97064">
        <ele>41</ele>
        <time>2015-11-22T12:11:56Z</time>
      </trkpt>
      <trkpt lat="43.14751" lon="2.9707">
        <ele>40</ele>
        <time>2015-11-22T12:12:01Z</time>
      </trkpt>
      <trkpt lat="43.14765" lon="2.97074">
        <ele>42</ele>
        <time>2015-11-22T12:12:07Z</time>
      </trkpt>
      <trkpt lat="43.1478" lon="2.97077">
        <ele>42</ele>
        <time>2015-11-22T12:12:14Z</time>
      </trkpt>
      <trkpt lat="43.14799" lon="2.97079">
        <ele>38</ele>
        <time>2015-11-22T12:12:20Z</time>
      </trkpt>
      <trkpt lat="43.14804" lon="2.97081">
        <ele>38</ele>
        <time>2015-11-22T12:12:25Z</time>
      </trkpt>
      <trkpt lat="43.14805" lon="2.9708">
        <ele>37</ele>
        <time>2015-11-22T12:12:31Z</time>
      </trkpt>
      <trkpt lat="43.14805" lon="2.9708">
        <ele>37</ele>
        <time>2015-11-22T12:12:34Z</time>
      </trkpt>
      <trkpt lat="43.14805" lon="2.9708">
        <ele>37</ele>
        <time>2015-11-22T12:12:43Z</time>
      </trkpt>
      <trkpt lat="43.14805" lon="2.9708">
        <ele>37</ele>
        <time>2015-11-22T12:12:47Z</time>
      </trkpt>
      <trkpt lat="43.14805" lon="2.9708">
        <ele>37</ele>
        <time>2015-11-22T12:12:52Z</time>
      </trkpt>
      <trkpt lat="43.14805" lon="2.9708">
        <ele>37</ele>
        <time>2015-11-22T12:12:59Z</time>
      </trkpt>
      <trkpt lat="43.14805" lon="2.9708">
        <ele>37</ele>
        <time>2015-11-22T12:13:03Z</time>
      </trkpt>
      <trkpt lat="43.14805" lon="2.9708">
        <ele>37</ele>
        <time>2015-11-22T12:13:10Z</time>
      </trkpt>
      <trkpt lat="43.14805" lon="2.9708">
        <ele>37</ele>
        <time>2015-11-22T12:13:15Z</time>
      </trkpt>
      <trkpt lat="43.14803" lon="2.97077">
        <ele>38</ele>
        <time>2015-11-22T12:13:21Z</time>
      </trkpt>
      <trkpt lat="43.14801" lon="2.97055">
        <ele>37</ele>
        <time>2015-11-22T12:13:28Z</time>
      </trkpt>
      <trkpt lat="43.14802" lon="2.9704">
        <ele>38</ele>
        <time>2015-11-22T12:13:34Z</time>
      </trkpt>
      <trkpt lat="43.14802" lon="2.9704">
        <ele>39</ele>
        <time>2015-11-22T12:13:39Z</time>
      </trkpt>
      <trkpt lat="43.14802" lon="2.97041">
        <ele>40</ele>
        <time>2015-11-22T12:13:45Z</time>
      </trkpt>
      <trkpt lat="43.14802" lon="2.97041">
        <ele>40</ele>
        <time>2015-11-22T12:13:51Z</time>
      </trkpt>
      <trkpt lat="43.14807" lon="2.97038">
        <ele>39</ele>
        <time>2015-11-22T12:13:57Z</time>
      </trkpt>
      <trkpt lat="43.14812" lon="2.9703">
        <ele>38</ele>
        <time>2015-11-22T12:14:02Z</time>
      </trkpt>
      <trkpt lat="43.14815" lon="2.9703">
        <ele>38</ele>
        <time>2015-11-22T12:14:07Z</time>
      </trkpt>
      <trkpt lat="43.1482" lon="2.97024">
        <ele>40</ele>
        <time>2015-11-22T12:14:16Z</time>
      </trkpt>
      <trkpt lat="43.1482" lon="2.97024">
        <ele>40</ele>
        <time>2015-11-22T12:14:20Z</time>
      </trkpt>
      <trkpt lat="43.1482" lon="2.97024">
        <ele>41</ele>
        <time>2015-11-22T12:14:25Z</time>
      </trkpt>
      <trkpt lat="43.1482" lon="2.97024">
        <ele>41</ele>
        <time>2015-11-22T12:14:30Z</time>
      </trkpt>
      <trkpt lat="43.14826" lon="2.9703">
        <ele>39</ele>
        <time>2015-11-22T12:14:35Z</time>
      </trkpt>
      <trkpt lat="43.14834" lon="2.97033">
        <ele>38</ele>
        <time>2015-11-22T12:14:41Z</time>
      </trkpt>
      <trkpt lat="43.14843" lon="2.97036">
        <ele>33</ele>
        <time>2015-11-22T12:14:48Z</time>
      </trkpt>
      <trkpt lat="43.14849" lon="2.97019">
        <ele>34</ele>
        <time>2015-11-22T12:14:53Z</time>
      </trkpt>
      <trkpt lat="43.1486" lon="2.97009">
        <ele>34</ele>
        <time>2015-11-22T12:14:58Z</time>
      </trkpt>
      <trkpt lat="43.14868" lon="2.9701">
        <ele>32</ele>
        <time>2015-11-22T12:15:04Z</time>
      </trkpt>
      <trkpt lat="43.14873" lon="2.97016">
        <ele>33</ele>
        <time>2015-11-22T12:15:10Z</time>
      </trkpt>
      <trkpt lat="43.14883" lon="2.97024">
        <ele>35</ele>
        <time>2015-11-22T12:15:19Z</time>
      </trkpt>
      <trkpt lat="43.14885" lon="2.97027">
        <ele>36</ele>
        <time>2015-11-22T12:15:20Z</time>
      </trkpt>
      <trkpt lat="43.14902" lon="2.97034">
        <ele>36</ele>
        <time>2015-11-22T12:15:27Z</time>
      </trkpt>
      <trkpt lat="43.1492" lon="2.97032">
        <ele>37</ele>
        <time>2015-11-22T12:15:32Z</time>
      </trkpt>
      <trkpt lat="43.14933" lon="2.97025">
        <ele>37</ele>
        <time>2015-11-22T12:15:38Z</time>
      </trkpt>
      <trkpt lat="43.1494" lon="2.97019">
        <ele>38</ele>
        <time>2015-11-22T12:15:45Z</time>
      </trkpt>
      <trkpt lat="43.14952" lon="2.97012">
        <ele>37</ele>
        <time>2015-11-22T12:15:51Z</time>
      </trkpt>
      <trkpt lat="43.14954" lon="2.97003">
        <ele>34</ele>
        <time>2015-11-22T12:15:57Z</time>
      </trkpt>
      <trkpt lat="43.14949" lon="2.96994">
        <ele>40</ele>
        <time>2015-11-22T12:16:08Z</time>
      </trkpt>
      <trkpt lat="43.14948" lon="2.96993">
        <ele>40</ele>
        <time>2015-11-22T12:16:09Z</time>
      </trkpt>
      <trkpt lat="43.14945" lon="2.96991">
        <ele>41</ele>
        <time>2015-11-22T12:16:14Z</time>
      </trkpt>
      <trkpt lat="43.14944" lon="2.96991">
        <ele>42</ele>
        <time>2015-11-22T12:16:20Z</time>
      </trkpt>
      <trkpt lat="43.14929" lon="2.97009">
        <ele>37</ele>
        <time>2015-11-22T12:16:31Z</time>
      </trkpt>
      <trkpt lat="43.14924" lon="2.97007">
        <ele>37</ele>
        <time>2015-11-22T12:16:35Z</time>
      </trkpt>
      <trkpt lat="43.14921" lon="2.97003">
        <ele>37</ele>
        <time>2015-11-22T12:16:39Z</time>
      </trkpt>
      <trkpt lat="43.14917" lon="2.96995">
        <ele>40</ele>
        <time>2015-11-22T12:16:46Z</time>
      </trkpt>
      <trkpt lat="43.14912" lon="2.96997">
        <ele>38</ele>
        <time>2015-11-22T12:16:50Z</time>
      </trkpt>
      <trkpt lat="43.14911" lon="2.96991">
        <ele>40</ele>
        <time>2015-11-22T12:17:00Z</time>
      </trkpt>
      <trkpt lat="43.14911" lon="2.9699">
        <ele>40</ele>
        <time>2015-11-22T12:17:02Z</time>
      </trkpt>
      <trkpt lat="43.14909" lon="2.96974">
        <ele>40</ele>
        <time>2015-11-22T12:17:11Z</time>
      </trkpt>
      <trkpt lat="43.14908" lon="2.96969">
        <ele>41</ele>
        <time>2015-11-22T12:17:15Z</time>
      </trkpt>
      <trkpt lat="43.14904" lon="2.96959">
        <ele>42</ele>
        <time>2015-11-22T12:17:21Z</time>
      </trkpt>
      <trkpt lat="43.149" lon="2.96944">
        <ele>44</ele>
        <time>2015-11-22T12:17:27Z</time>
      </trkpt>
      <trkpt lat="43.14901" lon="2.96926">
        <ele>45</ele>
        <time>2015-11-22T12:17:37Z</time>
      </trkpt>
      <trkpt lat="43.14901" lon="2.96922">
        <ele>47</ele>
        <time>2015-11-22T12:17:39Z</time>
      </trkpt>
      <trkpt lat="43.14901" lon="2.96913">
        <ele>49</ele>
        <time>2015-11-22T12:17:45Z</time>
      </trkpt>
      <trkpt lat="43.14903" lon="2.96902">
        <ele>49</ele>
        <time>2015-11-22T12:17:49Z</time>
      </trkpt>
      <trkpt lat="43.14907" lon="2.96883">
        <ele>50</ele>
        <time>2015-11-22T12:18:00Z</time>
      </trkpt>
      <trkpt lat="43.14908" lon="2.96882">
        <ele>50</ele>
        <time>2015-11-22T12:18:00Z</time>
      </trkpt>
      <trkpt lat="43.14908" lon="2.96877">
        <ele>50</ele>
        <time>2015-11-22T12:18:08Z</time>
      </trkpt>
      <trkpt lat="43.14907" lon="2.96877">
        <ele>51</ele>
        <time>2015-11-22T12:18:11Z</time>
      </trkpt>
      <trkpt lat="43.14907" lon="2.96877">
        <ele>51</ele>
        <time>2015-11-22T12:18:17Z</time>
      </trkpt>
      <trkpt lat="43.14907" lon="2.96877">
        <ele>51</ele>
        <time>2015-11-22T12:18:23Z</time>
      </trkpt>
      <trkpt lat="43.14906" lon="2.96878">
        <ele>51</ele>
        <time>2015-11-22T12:18:30Z</time>
      </trkpt>
      <trkpt lat="43.14904" lon="2.96876">
        <ele>50</ele>
        <time>2015-11-22T12:18:35Z</time>
      </trkpt>
      <trkpt lat="43.14896" lon="2.96878">
        <ele>49</ele>
        <time>2015-11-22T12:18:43Z</time>
      </trkpt>
      <trkpt lat="43.14889" lon="2.9688">
        <ele>49</ele>
        <time>2015-11-22T12:18:53Z</time>
      </trkpt>
      <trkpt lat="43.14889" lon="2.9688">
        <ele>49</ele>
        <time>2015-11-22T12:18:54Z</time>
      </trkpt>
      <trkpt lat="43.14886" lon="2.96881">
        <ele>49</ele>
        <time>2015-11-22T12:19:00Z</time>
      </trkpt>
      <trkpt lat="43.14881" lon="2.96874">
        <ele>48</ele>
        <time>2015-11-22T12:19:06Z</time>
      </trkpt>
      <trkpt lat="43.14881" lon="2.96869">
        <ele>49</ele>
        <time>2015-11-22T12:19:12Z</time>
      </trkpt>
      <trkpt lat="43.14881" lon="2.96869">
        <ele>48</ele>
        <time>2015-11-22T12:19:17Z</time>
      </trkpt>
      <trkpt lat="43.14885" lon="2.96863">
        <ele>50</ele>
        <time>2015-11-22T12:19:24Z</time>
      </trkpt>
      <trkpt lat="43.14893" lon="2.96864">
        <ele>55</ele>
        <time>2015-11-22T12:19:29Z</time>
      </trkpt>
      <trkpt lat="43.14905" lon="2.96855">
        <ele>56</ele>
        <time>2015-11-22T12:19:40Z</time>
      </trkpt>
      <trkpt lat="43.14911" lon="2.9685">
        <ele>59</ele>
        <time>2015-11-22T12:19:45Z</time>
      </trkpt>
      <trkpt lat="43.14911" lon="2.96847">
        <ele>59</ele>
        <time>2015-11-22T12:19:48Z</time>
      </trkpt>
      <trkpt lat="43.14912" lon="2.96834">
        <ele>59</ele>
        <time>2015-11-22T12:19:53Z</time>
      </trkpt>
      <trkpt lat="43.14908" lon="2.96814">
        <ele>60</ele>
        <time>2015-11-22T12:20:04Z</time>
      </trkpt>
      <trkpt lat="43.14907" lon="2.96804">
        <ele>60</ele>
        <time>2015-11-22T12:20:10Z</time>
      </trkpt>
      <trkpt lat="43.14906" lon="2.96801">
        <ele>60</ele>
        <time>2015-11-22T12:20:12Z</time>
      </trkpt>
      <trkpt lat="43.14904" lon="2.96793">
        <ele>61</ele>
        <time>2015-11-22T12:20:16Z</time>
      </trkpt>
      <trkpt lat="43.149" lon="2.96781">
        <ele>61</ele>
        <time>2015-11-22T12:20:23Z</time>
      </trkpt>
      <trkpt lat="43.14897" lon="2.96769">
        <ele>63</ele>
        <time>2015-11-22T12:20:28Z</time>
      </trkpt>
      <trkpt lat="43.14893" lon="2.96753">
        <ele>65</ele>
        <time>2015-11-22T12:20:35Z</time>
      </trkpt>
      <trkpt lat="43.14888" lon="2.96745">
        <ele>65</ele>
        <time>2015-11-22T12:20:40Z</time>
      </trkpt>
      <trkpt lat="43.14886" lon="2.96736">
        <ele>66</ele>
        <time>2015-11-22T12:20:46Z</time>
      </trkpt>
      <trkpt lat="43.14884" lon="2.96728">
        <ele>68</ele>
        <time>2015-11-22T12:20:52Z</time>
      </trkpt>
      <trkpt lat="43.14881" lon="2.9672">
        <ele>68</ele>
        <time>2015-11-22T12:20:58Z</time>
      </trkpt>
      <trkpt lat="43.14878" lon="2.96712">
        <ele>68</ele>
        <time>2015-11-22T12:21:04Z</time>
      </trkpt>
      <trkpt lat="43.14873" lon="2.96703">
        <ele>70</ele>
        <time>2015-11-22T12:21:08Z</time>
      </trkpt>
      <trkpt lat="43.14868" lon="2.96693">
        <ele>71</ele>
        <time>2015-11-22T12:21:13Z</time>
      </trkpt>
      <trkpt lat="43.14862" lon="2.96682">
        <ele>71</ele>
        <time>2015-11-22T12:21:20Z</time>
      </trkpt>
      <trkpt lat="43.14855" lon="2.96674">
        <ele>72</ele>
        <time>2015-11-22T12:21:26Z</time>
      </trkpt>
      <trkpt lat="43.1485" lon="2.96667">
        <ele>72</ele>
        <time>2015-11-22T12:21:31Z</time>
      </trkpt>
      <trkpt lat="43.14843" lon="2.96655">
        <ele>73</ele>
        <time>2015-11-22T12:21:37Z</time>
      </trkpt>
      <trkpt lat="43.1484" lon="2.96643">
        <ele>73</ele>
        <time>2015-11-22T12:21:42Z</time>
      </trkpt>
      <trkpt lat="43.14838" lon="2.96615">
        <ele>76</ele>
        <time>2015-11-22T12:21:54Z</time>
      </trkpt>
      <trkpt lat="43.14834" lon="2.96604">
        <ele>77</ele>
        <time>2015-11-22T12:21:59Z</time>
      </trkpt>
      <trkpt lat="43.14832" lon="2.96601">
        <ele>76</ele>
        <time>2015-11-22T12:22:01Z</time>
      </trkpt>
      <trkpt lat="43.14828" lon="2.96592">
        <ele>77</ele>
        <time>2015-11-22T12:22:08Z</time>
      </trkpt>
      <trkpt lat="43.14825" lon="2.96588">
        <ele>78</ele>
        <time>2015-11-22T12:22:12Z</time>
      </trkpt>
      <trkpt lat="43.14822" lon="2.9658">
        <ele>79</ele>
        <time>2015-11-22T12:22:18Z</time>
      </trkpt>
      <trkpt lat="43.14818" lon="2.96571">
        <ele>81</ele>
        <time>2015-11-22T12:22:24Z</time>
      </trkpt>
      <trkpt lat="43.14814" lon="2.96565">
        <ele>82</ele>
        <time>2015-11-22T12:22:29Z</time>
      </trkpt>
      <trkpt lat="43.14812" lon="2.9656">
        <ele>82</ele>
        <time>2015-11-22T12:22:33Z</time>
      </trkpt>
      <trkpt lat="43.14813" lon="2.9656">
        <ele>81</ele>
        <time>2015-11-22T12:22:40Z</time>
      </trkpt>
      <trkpt lat="43.14812" lon="2.9656">
        <ele>82</ele>
        <time>2015-11-22T12:22:45Z</time>
      </trkpt>
      <trkpt lat="43.14811" lon="2.96557">
        <ele>81</ele>
        <time>2015-11-22T12:22:50Z</time>
      </trkpt>
      <trkpt lat="43.14809" lon="2.96557">
        <ele>82</ele>
        <time>2015-11-22T12:22:57Z</time>
      </trkpt>
      <trkpt lat="43.1481" lon="2.96558">
        <ele>82</ele>
        <time>2015-11-22T12:23:02Z</time>
      </trkpt>
      <trkpt lat="43.14809" lon="2.96557">
        <ele>81</ele>
        <time>2015-11-22T12:23:09Z</time>
      </trkpt>
      <trkpt lat="43.14803" lon="2.96553">
        <ele>85</ele>
        <time>2015-11-22T12:23:15Z</time>
      </trkpt>
      <trkpt lat="43.1479" lon="2.96552">
        <ele>83</ele>
        <time>2015-11-22T12:23:21Z</time>
      </trkpt>
      <trkpt lat="43.1478" lon="2.96557">
        <ele>81</ele>
        <time>2015-11-22T12:23:26Z</time>
      </trkpt>
      <trkpt lat="43.14771" lon="2.96566">
        <ele>78</ele>
        <time>2015-11-22T12:23:30Z</time>
      </trkpt>
      <trkpt lat="43.14766" lon="2.96594">
        <ele>75</ele>
        <time>2015-11-22T12:23:41Z</time>
      </trkpt>
      <trkpt lat="43.14767" lon="2.96593">
        <ele>72</ele>
        <time>2015-11-22T12:23:43Z</time>
      </trkpt>
      <trkpt lat="43.14774" lon="2.96605">
        <ele>74</ele>
        <time>2015-11-22T12:23:53Z</time>
      </trkpt>
      <trkpt lat="43.14777" lon="2.96609">
        <ele>74</ele>
        <time>2015-11-22T12:23:54Z</time>
      </trkpt>
      <trkpt lat="43.14779" lon="2.96609">
        <ele>75</ele>
        <time>2015-11-22T12:24:00Z</time>
      </trkpt>
      <trkpt lat="43.14787" lon="2.96624">
        <ele>72</ele>
        <time>2015-11-22T12:24:07Z</time>
      </trkpt>
      <trkpt lat="43.14798" lon="2.96635">
        <ele>73</ele>
        <time>2015-11-22T12:24:14Z</time>
      </trkpt>
      <trkpt lat="43.14802" lon="2.96641">
        <ele>73</ele>
        <time>2015-11-22T12:24:17Z</time>
      </trkpt>
      <trkpt lat="43.14803" lon="2.96647">
        <ele>71</ele>
        <time>2015-11-22T12:24:24Z</time>
      </trkpt>
      <trkpt lat="43.14801" lon="2.96669">
        <ele>71</ele>
        <time>2015-11-22T12:24:31Z</time>
      </trkpt>
      <trkpt lat="43.14801" lon="2.96686">
        <ele>69</ele>
        <time>2015-11-22T12:24:36Z</time>
      </trkpt>
      <trkpt lat="43.148" lon="2.96693">
        <ele>67</ele>
        <time>2015-11-22T12:24:40Z</time>
      </trkpt>
      <trkpt lat="43.14803" lon="2.96707">
        <ele>68</ele>
        <time>2015-11-22T12:24:47Z</time>
      </trkpt>
      <trkpt lat="43.14805" lon="2.96726">
        <ele>65</ele>
        <time>2015-11-22T12:24:52Z</time>
      </trkpt>
      <trkpt lat="43.14806" lon="2.96741">
        <ele>63</ele>
        <time>2015-11-22T12:24:56Z</time>
      </trkpt>
      <trkpt lat="43.14806" lon="2.96754">
        <ele>66</ele>
        <time>2015-11-22T12:25:02Z</time>
      </trkpt>
      <trkpt lat="43.14807" lon="2.96769">
        <ele>66</ele>
        <time>2015-11-22T12:25:07Z</time>
      </trkpt>
      <trkpt lat="43.1481" lon="2.9679">
        <ele>63</ele>
        <time>2015-11-22T12:25:14Z</time>
      </trkpt>
      <trkpt lat="43.1481" lon="2.96792">
        <ele>64</ele>
        <time>2015-11-22T12:25:17Z</time>
      </trkpt>
      <trkpt lat="43.14813" lon="2.96809">
        <ele>59</ele>
        <time>2015-11-22T12:25:24Z</time>
      </trkpt>
      <trkpt lat="43.14815" lon="2.96825">
        <ele>57</ele>
        <time>2015-11-22T12:25:30Z</time>
      </trkpt>
      <trkpt lat="43.14819" lon="2.96826">
        <ele>60</ele>
        <time>2015-11-22T12:25:40Z</time>
      </trkpt>
      <trkpt lat="43.1482" lon="2.96826">
        <ele>57</ele>
        <time>2015-11-22T12:25:44Z</time>
      </trkpt>
      <trkpt lat="43.14816" lon="2.96823">
        <ele>57</ele>
        <time>2015-11-22T12:25:47Z</time>
      </trkpt>
      <trkpt lat="43.14814" lon="2.96824">
        <ele>57</ele>
        <time>2015-11-22T12:25:53Z</time>
      </trkpt>
      <trkpt lat="43.14814" lon="2.96824">
        <ele>59</ele>
        <time>2015-11-22T12:25:59Z</time>
      </trkpt>
      <trkpt lat="43.14814" lon="2.96825">
        <ele>58</ele>
        <time>2015-11-22T12:26:08Z</time>
      </trkpt>
      <trkpt lat="43.14813" lon="2.96828">
        <ele>60</ele>
        <time>2015-11-22T12:26:11Z</time>
      </trkpt>
      <trkpt lat="43.14806" lon="2.96867">
        <ele>56</ele>
        <time>2015-11-22T12:26:22Z</time>
      </trkpt>
      <trkpt lat="43.14803" lon="2.96868">
        <ele>56</ele>
        <time>2015-11-22T12:26:22Z</time>
      </trkpt>
      <trkpt lat="43.14791" lon="2.96893">
        <ele>54</ele>
        <time>2015-11-22T12:26:33Z</time>
      </trkpt>
      <trkpt lat="43.14791" lon="2.96896">
        <ele>55</ele>
        <time>2015-11-22T12:26:34Z</time>
      </trkpt>
      <trkpt lat="43.14789" lon="2.96902">
        <ele>54</ele>
        <time>2015-11-22T12:26:40Z</time>
      </trkpt>
      <trkpt lat="43.14785" lon="2.96917">
        <ele>54</ele>
        <time>2015-11-22T12:26:45Z</time>
      </trkpt>
      <trkpt lat="43.14781" lon="2.96936">
        <ele>54</ele>
        <time>2015-11-22T12:26:52Z</time>
      </trkpt>
      <trkpt lat="43.14773" lon="2.96943">
        <ele>53</ele>
        <time>2015-11-22T12:26:57Z</time>
      </trkpt>
      <trkpt lat="43.14774" lon="2.96963">
        <ele>51</ele>
        <time>2015-11-22T12:27:04Z</time>
      </trkpt>
      <trkpt lat="43.14776" lon="2.9698">
        <ele>50</ele>
        <time>2015-11-22T12:27:10Z</time>
      </trkpt>
      <trkpt lat="43.14773" lon="2.96982">
        <ele>53</ele>
        <time>2015-11-22T12:27:16Z</time>
      </trkpt>
      <trkpt lat="43.14771" lon="2.96991">
        <ele>51</ele>
        <time>2015-11-22T12:27:23Z</time>
      </trkpt>
      <trkpt lat="43.14771" lon="2.96993">
        <ele>53</ele>
        <time>2015-11-22T12:27:27Z</time>
      </trkpt>
      <trkpt lat="43.14771" lon="2.96992">
        <ele>52</ele>
        <time>2015-11-22T12:27:33Z</time>
      </trkpt>
      <trkpt lat="43.14771" lon="2.96992">
        <ele>52</ele>
        <time>2015-11-22T12:27:39Z</time>
      </trkpt>
      <trkpt lat="43.14769" lon="2.97">
        <ele>50</ele>
        <time>2015-11-22T12:27:45Z</time>
      </trkpt>
      <trkpt lat="43.14764" lon="2.9702">
        <ele>48</ele>
        <time>2015-11-22T12:27:50Z</time>
      </trkpt>
      <trkpt lat="43.14756" lon="2.97035">
        <ele>49</ele>
        <time>2015-11-22T12:27:55Z</time>
      </trkpt>
      <trkpt lat="43.14755" lon="2.97043">
        <ele>48</ele>
        <time>2015-11-22T12:28:01Z</time>
      </trkpt>
      <trkpt lat="43.14755" lon="2.97045">
        <ele>46</ele>
        <time>2015-11-22T12:28:06Z</time>
      </trkpt>
      <trkpt lat="43.14756" lon="2.97046">
        <ele>44</ele>
        <time>2015-11-22T12:28:12Z</time>
      </trkpt>
      <trkpt lat="43.14756" lon="2.97046">
        <ele>44</ele>
        <time>2015-11-22T12:28:20Z</time>
      </trkpt>
      <trkpt lat="43.14756" lon="2.97046">
        <ele>44</ele>
        <time>2015-11-22T12:28:27Z</time>
      </trkpt>
      <trkpt lat="43.14752" lon="2.97047">
        <ele>43</ele>
        <time>2015-11-22T12:28:29Z</time>
      </trkpt>
      <trkpt lat="43.14734" lon="2.97051">
        <ele>46</ele>
        <time>2015-11-22T12:28:34Z</time>
      </trkpt>
      <trkpt lat="43.1473" lon="2.97055">
        <ele>40</ele>
        <time>2015-11-22T12:28:42Z</time>
      </trkpt>
      <trkpt lat="43.1473" lon="2.97055">
        <ele>40</ele>
        <time>2015-11-22T12:28:46Z</time>
      </trkpt>
      <trkpt lat="43.14725" lon="2.97067">
        <ele>41</ele>
        <time>2015-11-22T12:28:52Z</time>
      </trkpt>
      <trkpt lat="43.14724" lon="2.97069">
        <ele>41</ele>
        <time>2015-11-22T12:28:58Z</time>
      </trkpt>
      <trkpt lat="43.14718" lon="2.97085">
        <ele>39</ele>
        <time>2015-11-22T12:29:05Z</time>
      </trkpt>
      <trkpt lat="43.14705" lon="2.97087">
        <ele>38</ele>
        <time>2015-11-22T12:29:11Z</time>
      </trkpt>
      <trkpt lat="43.14698" lon="2.97104">
        <ele>41</ele>
        <time>2015-11-22T12:29:17Z</time>
      </trkpt>
      <trkpt lat="43.14693" lon="2.9711">
        <ele>40</ele>
        <time>2015-11-22T12:29:20Z</time>
      </trkpt>
      <trkpt lat="43.14694" lon="2.97107">
        <ele>38</ele>
        <time>2015-11-22T12:29:28Z</time>
      </trkpt>
      <trkpt lat="43.14692" lon="2.97114">
        <ele>40</ele>
        <time>2015-11-22T12:29:38Z</time>
      </trkpt>
      <trkpt lat="43.14692" lon="2.97114">
        <ele>42</ele>
        <time>2015-11-22T12:29:38Z</time>
      </trkpt>
      <trkpt lat="43.14693" lon="2.97115">
        <ele>41</ele>
        <time>2015-11-22T12:29:44Z</time>
      </trkpt>
      <trkpt lat="43.14693" lon="2.97112">
        <ele>39</ele>
        <time>2015-11-22T12:29:51Z</time>
      </trkpt>
      <trkpt lat="43.14693" lon="2.97113">
        <ele>39</ele>
        <time>2015-11-22T12:29:57Z</time>
      </trkpt>
      <trkpt lat="43.14695" lon="2.97135">
        <ele>35</ele>
        <time>2015-11-22T12:30:03Z</time>
      </trkpt>
      <trkpt lat="43.14707" lon="2.97163">
        <ele>38</ele>
        <time>2015-11-22T12:30:10Z</time>
      </trkpt>
      <trkpt lat="43.14701" lon="2.97179">
        <ele>36</ele>
        <time>2015-11-22T12:30:14Z</time>
      </trkpt>
      <trkpt lat="43.14689" lon="2.97193">
        <ele>37</ele>
        <time>2015-11-22T12:30:20Z</time>
      </trkpt>
      <trkpt lat="43.14686" lon="2.97224">
        <ele>32</ele>
        <time>2015-11-22T12:30:26Z</time>
      </trkpt>
      <trkpt lat="43.14695" lon="2.97247">
        <ele>28</ele>
        <time>2015-11-22T12:30:32Z</time>
      </trkpt>
      <trkpt lat="43.14701" lon="2.97262">
        <ele>27</ele>
        <time>2015-11-22T12:30:37Z</time>
      </trkpt>
      <trkpt lat="43.14703" lon="2.97277">
        <ele>26</ele>
        <time>2015-11-22T12:30:42Z</time>
      </trkpt>
      <trkpt lat="43.14706" lon="2.97285">
        <ele>25</ele>
        <time>2015-11-22T12:30:49Z</time>
      </trkpt>
      <trkpt lat="43.14719" lon="2.97316">
        <ele>24</ele>
        <time>2015-11-22T12:30:58Z</time>
      </trkpt>
      <trkpt lat="43.14721" lon="2.9732">
        <ele>25</ele>
        <time>2015-11-22T12:31:00Z</time>
      </trkpt>
      <trkpt lat="43.14724" lon="2.97339">
        <ele>23</ele>
        <time>2015-11-22T12:31:05Z</time>
      </trkpt>
      <trkpt lat="43.14725" lon="2.97361">
        <ele>24</ele>
        <time>2015-11-22T12:31:11Z</time>
      </trkpt>
      <trkpt lat="43.1473" lon="2.974">
        <ele>23</ele>
        <time>2015-11-22T12:31:20Z</time>
      </trkpt>
      <trkpt lat="43.14735" lon="2.97426">
        <ele>20</ele>
        <time>2015-11-22T12:31:27Z</time>
      </trkpt>
      <trkpt lat="43.1474" lon="2.97451">
        <ele>20</ele>
        <time>2015-11-22T12:31:32Z</time>
      </trkpt>
      <trkpt lat="43.14741" lon="2.97459">
        <ele>19</ele>
        <time>2015-11-22T12:31:36Z</time>
      </trkpt>
      <trkpt lat="43.14741" lon="2.97457">
        <ele>20</ele>
        <time>2015-11-22T12:31:45Z</time>
      </trkpt>
      <trkpt lat="43.14741" lon="2.97457">
        <ele>20</ele>
        <time>2015-11-22T12:31:48Z</time>
      </trkpt>
      <trkpt lat="43.14742" lon="2.97465">
        <ele>19</ele>
        <time>2015-11-22T12:31:53Z</time>
      </trkpt>
      <trkpt lat="43.14764" lon="2.9746">
        <ele>12</ele>
        <time>2015-11-22T12:32:01Z</time>
      </trkpt>
      <trkpt lat="43.1477" lon="2.97451">
        <ele>13</ele>
        <time>2015-11-22T12:32:05Z</time>
      </trkpt>
      <trkpt lat="43.14779" lon="2.9743">
        <ele>14</ele>
        <time>2015-11-22T12:32:11Z</time>
      </trkpt>
      <trkpt lat="43.14785" lon="2.97409">
        <ele>17</ele>
        <time>2015-11-22T12:32:17Z</time>
      </trkpt>
      <trkpt lat="43.14787" lon="2.97398">
        <ele>16</ele>
        <time>2015-11-22T12:32:23Z</time>
      </trkpt>
      <trkpt lat="43.14791" lon="2.97379">
        <ele>17</ele>
        <time>2015-11-22T12:32:29Z</time>
      </trkpt>
      <trkpt lat="43.14792" lon="2.97362">
        <ele>15</ele>
        <time>2015-11-22T12:32:35Z</time>
      </trkpt>
      <trkpt lat="43.14796" lon="2.97347">
        <ele>18</ele>
        <time>2015-11-22T12:32:40Z</time>
      </trkpt>
      <trkpt lat="43.14797" lon="2.9733">
        <ele>21</ele>
        <time>2015-11-22T12:32:49Z</time>
      </trkpt>
      <trkpt lat="43.14798" lon="2.97324">
        <ele>22</ele>
        <time>2015-11-22T12:32:51Z</time>
      </trkpt>
      <trkpt lat="43.14801" lon="2.97308">
        <ele>23</ele>
        <time>2015-11-22T12:33:00Z</time>
      </trkpt>
      <trkpt lat="43.14803" lon="2.97298">
        <ele>24</ele>
        <time>2015-11-22T12:33:05Z</time>
      </trkpt>
      <trkpt lat="43.14803" lon="2.97288">
        <ele>26</ele>
        <time>2015-11-22T12:33:10Z</time>
      </trkpt>
      <trkpt lat="43.14805" lon="2.97278">
        <ele>25</ele>
        <time>2015-11-22T12:33:17Z</time>
      </trkpt>
      <trkpt lat="43.14803" lon="2.97267">
        <ele>25</ele>
        <time>2015-11-22T12:33:22Z</time>
      </trkpt>
      <trkpt lat="43.14798" lon="2.97255">
        <ele>22</ele>
        <time>2015-11-22T12:33:28Z</time>
      </trkpt>
      <trkpt lat="43.14795" lon="2.97252">
        <ele>22</ele>
        <time>2015-11-22T12:33:34Z</time>
      </trkpt>
      <trkpt lat="43.14787" lon="2.97274">
        <ele>23</ele>
        <time>2015-11-22T12:33:43Z</time>
      </trkpt>
      <trkpt lat="43.14785" lon="2.97283">
        <ele>22</ele>
        <time>2015-11-22T12:33:45Z</time>
      </trkpt>
      <trkpt lat="43.14777" lon="2.97288">
        <ele>25</ele>
        <time>2015-11-22T12:33:51Z</time>
      </trkpt>
      <trkpt lat="43.14772" lon="2.97292">
        <ele>27</ele>
        <time>2015-11-22T12:33:58Z</time>
      </trkpt>
      <trkpt lat="43.14753" lon="2.97293">
        <ele>28</ele>
        <time>2015-11-22T12:34:04Z</time>
      </trkpt>
      <trkpt lat="43.14747" lon="2.97292">
        <ele>25</ele>
        <time>2015-11-22T12:34:10Z</time>
      </trkpt>
      <trkpt lat="43.14748" lon="2.9729">
        <ele>25</ele>
        <time>2015-11-22T12:34:15Z</time>
      </trkpt>
      <trkpt lat="43.14748" lon="2.97284">
        <ele>26</ele>
        <time>2015-11-22T12:34:25Z</time>
      </trkpt>
      <trkpt lat="43.14748" lon="2.97282">
        <ele>26</ele>
        <time>2015-11-22T12:34:30Z</time>
      </trkpt>
      <trkpt lat="43.14748" lon="2.97282">
        <ele>25</ele>
        <time>2015-11-22T12:34:32Z</time>
      </trkpt>
      <trkpt lat="43.14748" lon="2.97282">
        <ele>25</ele>
        <time>2015-11-22T12:34:38Z</time>
      </trkpt>
      <trkpt lat="43.14748" lon="2.97282">
        <ele>25</ele>
        <time>2015-11-22T12:34:48Z</time>
      </trkpt>
      <trkpt lat="43.14748" lon="2.97282">
        <ele>25</ele>
        <time>2015-11-22T12:34:50Z</time>
      </trkpt>
      <trkpt lat="43.14748" lon="2.97282">
        <ele>25</ele>
        <time>2015-11-22T12:38:57Z</time>
      </trkpt>
      <trkpt lat="43.14744" lon="2.97284">
        <ele>28</ele>
        <time>2015-11-22T12:39:17Z</time>
      </trkpt>
      <trkpt lat="43.1474" lon="2.97282">
        <ele>28</ele>
        <time>2015-11-22T12:39:23Z</time>
      </trkpt>
      <trkpt lat="43.14735" lon="2.97289">
        <ele>33</ele>
        <time>2015-11-22T12:39:27Z</time>
      </trkpt>
      <trkpt lat="43.14732" lon="2.97298">
        <ele>37</ele>
        <time>2015-11-22T12:39:37Z</time>
      </trkpt>
      <trkpt lat="43.14731" lon="2.97298">
        <ele>37</ele>
        <time>2015-11-22T12:39:38Z</time>
      </trkpt>
      <trkpt lat="43.14721" lon="2.97295">
        <ele>35</ele>
        <time>2015-11-22T12:39:48Z</time>
      </trkpt>
      <trkpt lat="43.14721" lon="2.9729">
        <ele>36</ele>
        <time>2015-11-22T12:39:53Z</time>
      </trkpt>
      <trkpt lat="43.1472" lon="2.97287">
        <ele>35</ele>
        <time>2015-11-22T12:39:56Z</time>
      </trkpt>
      <trkpt lat="43.14712" lon="2.97283">
        <ele>34</ele>
        <time>2015-11-22T12:40:02Z</time>
      </trkpt>
      <trkpt lat="43.14706" lon="2.97278">
        <ele>35</ele>
        <time>2015-11-22T12:40:08Z</time>
      </trkpt>
      <trkpt lat="43.14703" lon="2.97268">
        <ele>37</ele>
        <time>2015-11-22T12:40:14Z</time>
      </trkpt>
      <trkpt lat="43.14698" lon="2.97262">
        <ele>36</ele>
        <time>2015-11-22T12:40:20Z</time>
      </trkpt>
      <trkpt lat="43.14696" lon="2.9726">
        <ele>34</ele>
        <time>2015-11-22T12:40:26Z</time>
      </trkpt>
      <trkpt lat="43.14695" lon="2.97261">
        <ele>34</ele>
        <time>2015-11-22T12:40:32Z</time>
      </trkpt>
      <trkpt lat="43.14695" lon="2.97261">
        <ele>32</ele>
        <time>2015-11-22T12:40:38Z</time>
      </trkpt>
      <trkpt lat="43.14695" lon="2.97261">
        <ele>34</ele>
        <time>2015-11-22T12:40:44Z</time>
      </trkpt>
      <trkpt lat="43.14695" lon="2.97261">
        <ele>34</ele>
        <time>2015-11-22T12:40:50Z</time>
      </trkpt>
      <trkpt lat="43.14695" lon="2.97261">
        <ele>35</ele>
        <time>2015-11-22T12:40:56Z</time>
      </trkpt>
      <trkpt lat="43.14695" lon="2.9726">
        <ele>34</ele>
        <time>2015-11-22T12:41:02Z</time>
      </trkpt>
      <trkpt lat="43.14698" lon="2.97263">
        <ele>34</ele>
        <time>2015-11-22T12:41:08Z</time>
      </trkpt>
      <trkpt lat="43.14703" lon="2.97256">
        <ele>35</ele>
        <time>2015-11-22T12:41:14Z</time>
      </trkpt>
      <trkpt lat="43.14705" lon="2.97246">
        <ele>35</ele>
        <time>2015-11-22T12:41:20Z</time>
      </trkpt>
      <trkpt lat="43.14702" lon="2.97237">
        <ele>37</ele>
        <time>2015-11-22T12:41:26Z</time>
      </trkpt>
      <trkpt lat="43.14696" lon="2.97234">
        <ele>37</ele>
        <time>2015-11-22T12:41:32Z</time>
      </trkpt>
      <trkpt lat="43.14694" lon="2.97235">
        <ele>36</ele>
        <time>2015-11-22T12:41:38Z</time>
      </trkpt>
      <trkpt lat="43.14692" lon="2.97234">
        <ele>35</ele>
        <time>2015-11-22T12:41:44Z</time>
      </trkpt>
      <trkpt lat="43.14689" lon="2.97231">
        <ele>35</ele>
        <time>2015-11-22T12:41:50Z</time>
      </trkpt>
      <trkpt lat="43.14686" lon="2.97216">
        <ele>33</ele>
        <time>2015-11-22T12:41:56Z</time>
      </trkpt>
      <trkpt lat="43.14686" lon="2.97206">
        <ele>34</ele>
        <time>2015-11-22T12:42:02Z</time>
      </trkpt>
      <trkpt lat="43.14687" lon="2.97195">
        <ele>35</ele>
        <time>2015-11-22T12:42:08Z</time>
      </trkpt>
      <trkpt lat="43.14689" lon="2.97185">
        <ele>36</ele>
        <time>2015-11-22T12:42:14Z</time>
      </trkpt>
      <trkpt lat="43.14691" lon="2.97175">
        <ele>37</ele>
        <time>2015-11-22T12:42:20Z</time>
      </trkpt>
      <trkpt lat="43.14693" lon="2.97165">
        <ele>36</ele>
        <time>2015-11-22T12:42:26Z</time>
      </trkpt>
      <trkpt lat="43.14697" lon="2.9716">
        <ele>36</ele>
        <time>2015-11-22T12:42:32Z</time>
      </trkpt>
      <trkpt lat="43.14701" lon="2.97161">
        <ele>35</ele>
        <time>2015-11-22T12:42:38Z</time>
      </trkpt>
      <trkpt lat="43.14701" lon="2.97161">
        <ele>34</ele>
        <time>2015-11-22T12:42:44Z</time>
      </trkpt>
      <trkpt lat="43.14701" lon="2.97161">
        <ele>34</ele>
        <time>2015-11-22T12:42:50Z</time>
      </trkpt>
      <trkpt lat="43.14701" lon="2.97161">
        <ele>34</ele>
        <time>2015-11-22T12:42:56Z</time>
      </trkpt>
      <trkpt lat="43.14704" lon="2.9716">
        <ele>34</ele>
        <time>2015-11-22T12:43:02Z</time>
      </trkpt>
      <trkpt lat="43.14704" lon="2.97159">
        <ele>33</ele>
        <time>2015-11-22T12:43:08Z</time>
      </trkpt>
      <trkpt lat="43.14704" lon="2.97159">
        <ele>33</ele>
        <time>2015-11-22T12:43:13Z</time>
      </trkpt>
      <trkpt lat="43.14705" lon="2.97159">
        <ele>33</ele>
        <time>2015-11-22T12:43:19Z</time>
      </trkpt>
      <trkpt lat="43.14705" lon="2.97159">
        <ele>33</ele>
        <time>2015-11-22T12:43:25Z</time>
      </trkpt>
      <trkpt lat="43.14705" lon="2.97158">
        <ele>34</ele>
        <time>2015-11-22T12:43:30Z</time>
      </trkpt>
      <trkpt lat="43.14705" lon="2.97159">
        <ele>33</ele>
        <time>2015-11-22T12:43:38Z</time>
      </trkpt>
      <trkpt lat="43.14706" lon="2.97159">
        <ele>32</ele>
        <time>2015-11-22T12:43:43Z</time>
      </trkpt>
      <trkpt lat="43.14706" lon="2.97159">
        <ele>32</ele>
        <time>2015-11-22T12:43:49Z</time>
      </trkpt>
      <trkpt lat="43.14706" lon="2.97159">
        <ele>32</ele>
        <time>2015-11-22T12:43:55Z</time>
      </trkpt>
      <trkpt lat="43.14706" lon="2.97159">
        <ele>32</ele>
        <time>2015-11-22T12:44:01Z</time>
      </trkpt>
      <trkpt lat="43.14706" lon="2.97159">
        <ele>32</ele>
        <time>2015-11-22T12:44:06Z</time>
      </trkpt>
      <trkpt lat="43.14706" lon="2.97159">
        <ele>31</ele>
        <time>2015-11-22T12:44:15Z</time>
      </trkpt>
    </trkseg>
  </trk>
</gpx>